[[[{"header":{"parameterUnit":"kt","parameterCategory":2,"dx":1,"dy":1,"la1":29.587661999999998,"la2":31.0,"lo1":-88.76705300000003,"lo2":-86.6583820000003,"nx":115,"ny":88,"refTime":"2022-10-09T06:00:00:Z","depth":0,"parameterNumber":1,"parameterNumberName":"U-component_of_WINDS"},"data":[-11.1779,-11.2282,-11.2556,-11.2736,-11.2967,-11.4241,-11.4923,-11.5318,-11.6576,-11.7295,-11.7387,-11.7414,-11.7414,-11.7414,-11.7414,-11.7414,-11.7414,-11.7414,-11.7414,-11.7414,-11.7468,-11.7521,-11.76,-11.7703,-11.7829,-11.8,-11.808,-11.8126,-11.8336,-11.8784,-12.0093,-12.2187,-12.1275,-12.2635,-12.4991,-12.5664,-12.5851,-12.5926,-12.6038,-12.6599,-12.6711,-12.5664,-12.5178,-12.5327,-12.5813,-12.6437,-12.7224,-12.7987,-12.8499,-12.9062,-12.9447,-12.9782,-12.9881,-12.9934,-12.9979,-12.9979,-12.9334,-12.9296,-12.861,-12.7768,-12.7158,-12.6857,-12.5642,-12.4541,-12.4281,-12.4097,-12.3074,-12.1861,-12.1443,-12.038,-12.0192,-12.0231,-12.0237,-12.0047,-11.9933,-11.9933,-11.9933,-11.9933,-11.9933,-11.9933,-11.9933,-11.9933,-11.9933,-11.9933,-11.9933,-11.9933,-11.9933,-11.9782,-11.963,-11.9497,-11.9356,-11.9129,-11.892,-11.882,-11.8766,-11.8766,-11.8766,-11.8766,-11.8766,-11.8766,-11.8766,-11.8766,-11.8766,-11.8766,-11.8766,-11.8765,-11.8766,-11.8766,-11.8766,-11.8802,-11.8784,-11.8783,-11.8815,-11.8694,-11.8597,-11.1444,-11.1731,-11.22,-11.2556,-11.2878,-11.3715,-11.4437,-11.5177,-11.6031,-11.6756,-11.7267,-11.7387,-11.7414,-11.7414,-11.7414,-11.7414,-11.7414,-11.7414,-11.7414,-11.7414,-11.7441,-11.7468,-11.7495,-11.7574,-11.7703,-11.7841,-11.8271,-11.8379,-11.8448,-11.9158,-12.0041,-12.0976,-12.1962,-12.2897,-12.3682,-12.4542,-12.5103,-12.4916,-12.5103,-12.6187,-12.5365,-12.3794,-12.3121,-12.3121,-12.3519,-12.3695,-12.4514,-12.5473,-12.658,-12.7414,-12.8421,-12.8875,-12.9183,-12.9122,-12.9318,-12.9245,-12.86,-12.8033,-12.7651,-12.6496,-12.5623,-12.4902,-12.3574,-12.2742,-12.2442,-12.1876,-12.0968,-12.0328,-12.033,-11.9991,-11.9995,-11.9999,-12.0004,-11.9933,-11.9933,-11.9933,-11.9933,-11.9933,-11.9933,-11.9933,-11.9933,-11.9933,-11.9933,-11.9933,-11.9933,-11.9933,-11.9857,-11.9668,-11.951,-11.9411,-11.9235,-11.9026,-11.889,-11.882,-11.8766,-11.8766,-11.8766,-11.8766,-11.8766,-11.8766,-11.8766,-11.8766,-11.8766,-11.8784,-11.8818,-11.8832,-11.8815,-11.887,-11.8818,-11.8818,-11.8832,-11.8916,-11.8958,-11.906,-11.9116,-11.1312,-11.1601,-11.2154,-11.2384,-11.2665,-11.3508,-11.436,-11.5141,-11.5897,-11.6448,-11.6756,-11.7212,-11.7414,-11.7414,-11.7414,-11.7414,-11.7414,-11.7414,-11.7414,-11.7414,-11.7414,-11.7414,-11.7414,-11.7505,-11.76,-11.8076,-11.8687,-11.9229,-11.957,-11.9966,-12.0004,-12.0677,-12.013,-12.0654,-12.1775,-12.2299,-12.271,-12.2935,-12.271,-12.357,-12.443,-12.2112,-12.0654,-12.2037,-12.2523,-12.2504,-12.3165,-12.4067,-12.4774,-12.5454,-12.6307,-12.698,-12.7373,-12.7433,-12.7783,-12.7897,-12.7331,-12.6534,-12.6526,-12.5456,-12.3664,-12.3099,-12.2036,-12.1395,-12.1016,-12.0944,-11.9999,-11.9961,-11.9968,-11.9937,-11.9943,-11.9948,-11.9955,-11.9961,-11.9966,-11.9967,-11.9966,-11.9968,-11.9969,-11.9966,-11.9963,-11.9966,-11.9968,-11.9969,-11.9933,-11.9933,-11.9857,-11.9668,-11.9482,-11.9326,-11.9088,-11.8937,-11.8855,-11.8766,-11.8766,-11.8766,-11.8766,-11.8766,-11.8766,-11.8802,-11.88,-11.8802,-11.8818,-11.8964,-11.9019,-11.8967,-11.8997,-11.9026,-11.9034,-11.9012,-11.9012,-11.9026,-11.9129,-11.9246,-11.9411,-11.1347,-11.154,-11.1967,-11.2282,-11.2475,-11.3292,-11.4043,-11.485,-11.563,-11.6064,-11.6386,-11.7034,-11.7414,-11.7414,-11.7414,-11.7414,-11.7414,-11.7414,-11.7414,-11.7414,-11.7414,-11.7414,-11.7414,-11.7414,-11.7532,-11.8084,-11.8734,-11.9358,-11.9327,-11.8934,-11.8919,-11.9756,-11.9308,-11.9083,-12.0056,-12.0976,-12.12,-12.1275,-12.0901,-12.1028,-12.1738,-11.9906,-11.8934,-12.0317,-12.1028,-12.0812,-12.1352,-12.2361,-12.2879,-12.3276,-12.3803,-12.4385,-12.4788,-12.5025,-12.5755,-12.632,-12.538,-12.511,-12.4802,-12.347,-12.2137,-12.1378,-12.0961,-12.0278,-11.9932,-11.997,-11.9936,-11.9936,-11.9941,-11.9949,-11.9957,-11.9968,-11.9937,-11.9946,-11.9953,-11.9948,-11.9943,-11.9955,-11.9964,-11.9961,-11.9953,-11.9957,-11.9961,-11.9966,-11.9969,-11.9894,-11.9832,-11.9673,-11.9458,-11.9203,-11.8997,-11.8916,-11.8818,-11.8766,-11.8766,-11.8766,-11.8766,-11.8766,-11.8765,-11.8818,-11.8887,-11.8932,-11.9004,-11.9112,-11.9243,-11.9203,-11.9227,-11.9265,-11.9239,-11.9273,-11.9284,-11.9284,-11.9348,-11.9483,-11.9688,-11.12,-11.1214,-11.154,-11.1885,-11.2338,-11.2701,-11.3327,-11.4083,-11.4813,-11.5525,-11.6255,-11.7034,-11.736,-11.7414,-11.7414,-11.7414,-11.7414,-11.7414,-11.7414,-11.7414,-11.7414,-11.7414,-11.7414,-11.7414,-11.7468,-11.7585,-11.8173,-11.9307,-11.8597,-11.8542,-11.8589,-11.8298,-11.8186,-11.8336,-11.8934,-11.9779,-12.0145,-11.9995,-11.9374,-11.8874,-11.8799,-11.8597,-11.8298,-11.8784,-11.8747,-11.8635,-11.9106,-11.9945,-12.1056,-12.183,-12.2671,-12.374,-12.4053,-12.4263,-12.4593,-12.4565,-12.3507,-12.3394,-12.2896,-12.1795,-12.0733,-12.0311,-12.0007,-11.997,-11.9932,-11.9932,-11.9932,-11.9932,-11.9932,-11.9941,-11.9945,-11.9953,-11.9961,-11.9968,-11.9934,-11.9934,-11.9968,-11.9937,-11.9946,-11.9943,-11.9937,-11.9943,-11.9948,-11.9955,-11.9963,-11.9895,-11.9803,-11.9641,-11.9394,-11.9142,-11.9012,-11.8948,-11.8853,-11.8766,-11.8784,-11.88,-11.8802,-11.8783,-11.8818,-11.8866,-11.8974,-11.907,-11.9192,-11.9288,-11.9357,-11.9367,-11.9428,-11.9385,-11.9394,-11.9436,-11.9475,-11.9513,-11.9592,-11.9747,-11.9895,-11.1165,-11.12,-11.1312,-11.1588,-11.1921,-11.2338,-11.2656,-11.3077,-11.3963,-11.4813,-11.5596,-11.6386,-11.6939,-11.7322,-11.7414,-11.7414,-11.7414,-11.7414,-11.7414,-11.7414,-11.7414,-11.7488,-11.7414,-11.7414,-11.7627,-11.8387,-11.9062,-11.9587,-11.9431,-11.9259,-11.8696,-11.8145,-11.8094,-11.8117,-11.835,-11.8836,-11.9238,-11.8869,-11.8533,-11.8183,-11.8155,-11.8238,-11.8149,-11.8336,-11.8298,-11.8261,-11.8448,-11.8695,-11.9234,-11.9578,-11.9968,-12.0845,-12.1169,-12.1629,-12.1961,-12.3114,-12.2018,-12.1682,-12.1909,-12.0771,-12.0197,-11.997,-11.997,-11.9932,-11.9932,-11.9932,-11.9932,-11.9932,-11.9932,-11.9936,-11.9936,-11.9941,-11.9945,-11.9949,-11.9949,-11.9953,-11.9953,-11.9957,-11.9953,-11.9953,-11.9957,-11.9965,-11.9934,-11.9943,-11.9919,-11.9895,-11.9768,-11.9613,-11.942,-11.9179,-11.9107,-11.9042,-11.8937,-11.882,-11.8853,-11.892,-11.8866,-11.8866,-11.8905,-11.9018,-11.9098,-11.9205,-11.9326,-11.9394,-11.9513,-11.9641,-11.9737,-11.9666,-11.958,-11.9661,-11.9726,-11.9726,-11.975,-11.9895,-11.9933,-11.1165,-11.1165,-11.1165,-11.1312,-11.1601,-11.1932,-11.2246,-11.252,-11.3467,-11.4321,-11.5104,-11.5897,-11.6726,-11.735,-11.7414,-11.7414,-11.7414,-11.7414,-11.7414,-11.7414,-11.7414,-11.7748,-11.8008,-11.8241,-11.8538,-11.941,-12.0208,-12.056,-12.0018,-11.9204,-11.8538,-11.8114,-11.7989,-11.8,-11.8047,-11.8071,-11.8064,-11.8015,-11.8015,-11.7914,-11.7939,-11.7986,-11.8033,-11.808,-11.8117,-11.8126,-11.8186,-11.8336,-11.8358,-11.8335,-11.854,-11.865,-11.889,-11.9337,-11.982,-12.1325,-12.0946,-12.0349,-12.1226,-12.0619,-11.9932,-11.9932,-11.9932,-11.9932,-11.9932,-11.9932,-11.9932,-11.9932,-11.9932,-11.9932,-11.9936,-11.9936,-11.9941,-11.9941,-11.9941,-11.9941,-11.9941,-11.9945,-11.9945,-11.9941,-11.9941,-11.9949,-11.9957,-11.9968,-11.9948,-11.9856,-11.9773,-11.9646,-11.9483,-11.931,-11.9228,-11.9173,-11.9095,-11.8964,-11.8996,-11.9064,-11.9019,-11.8997,-11.9155,-11.9278,-11.9357,-11.9423,-11.946,-11.9536,-11.9679,-11.9806,-11.9933,-11.9892,-11.9753,-11.9847,-11.9857,-11.9895,-11.9895,-11.9933,-11.9933,-11.1165,-11.1165,-11.1165,-11.1312,-11.1505,-11.1601,-11.1921,-11.243,-11.3389,-11.4282,-11.5105,-11.5867,-11.6607,-11.7267,-11.7414,-11.7414,-11.7414,-11.7414,-11.7414,-11.7414,-11.7414,-11.839,-11.8984,-11.9466,-12.0024,-12.0766,-12.1091,-12.0812,-11.9992,-11.9237,-11.8497,-11.7978,-11.7954,-11.7804,-11.7804,-11.7804,-11.7779,-11.7754,-11.7779,-11.7804,-11.7829,-11.7854,-11.7928,-11.7939,-11.7986,-11.8033,-11.8094,-11.814,-11.8103,-11.8223,-11.8385,-11.8486,-11.8781,-11.9217,-11.9412,-11.9731,-11.9991,-11.9901,-12.0258,-12.0349,-11.9927,-11.9757,-11.9874,-11.9927,-11.9889,-11.9922,-11.9932,-11.9932,-11.9932,-11.9932,-11.9932,-11.9932,-11.9932,-11.9932,-11.9932,-11.9932,-11.9932,-11.9932,-11.9932,-11.9932,-11.9932,-11.9936,-11.9945,-11.9953,-11.9934,-11.9852,-11.9778,-11.9661,-11.9574,-11.9442,-11.9343,-11.933,-11.9201,-11.9093,-11.9139,-11.9205,-11.9167,-11.9166,-11.9329,-11.951,-11.9624,-11.9694,-11.9717,-11.9747,-11.9853,-11.9895,-11.9933,-11.9933,-11.9895,-11.9895,-11.9933,-11.9933,-11.9933,-11.9933,-11.9933,-11.1165,-11.1165,-11.1165,-11.1249,-11.1312,-11.1347,-11.154,-11.1932,-11.2584,-11.372,-11.4887,-11.5354,-11.616,-11.7091,-11.7414,-11.7414,-11.7414,-11.7414,-11.7414,-11.7414,-11.7414,-11.8427,-11.9318,-11.9801,-12.1138,-12.1695,-12.162,-12.1323,-12.1221,-11.9772,-11.8944,-11.8578,-11.8147,-11.7738,-11.7574,-11.7574,-11.7574,-11.76,-11.7652,-11.7678,-11.7703,-11.7754,-11.7804,-11.7854,-11.7841,-11.7866,-11.7928,-11.7952,-11.7939,-11.8033,-11.8164,-11.8282,-11.8577,-11.8913,-11.9117,-11.9261,-11.9433,-11.9642,-11.9731,-11.9795,-11.9672,-11.9443,-11.9757,-11.9813,-11.9724,-11.9813,-11.9879,-11.9932,-11.9932,-11.9932,-11.9932,-11.9932,-11.9932,-11.9932,-11.9932,-11.9932,-11.9932,-11.9932,-11.9932,-11.9932,-11.9932,-11.9932,-11.9936,-11.9949,-11.9953,-11.9847,-11.9781,-11.9721,-11.9704,-11.9554,-11.948,-11.9394,-11.9292,-11.9243,-11.9299,-11.9357,-11.9385,-11.9374,-11.9542,-11.975,-11.9839,-11.9832,-11.9887,-11.9933,-11.9933,-11.9933,-11.9933,-11.9933,-11.9933,-11.9933,-11.9933,-11.9933,-11.9933,-11.9933,-11.9933,-11.1165,-11.1165,-11.1165,-11.1165,-11.1165,-11.1165,-11.1312,-11.1601,-11.2026,-11.2955,-11.4246,-11.485,-11.5728,-11.666,-11.7119,-11.7414,-11.7414,-11.7414,-11.7414,-11.7525,-11.8157,-11.8872,-11.9949,-12.0989,-12.2215,-12.2883,-12.3069,-12.2957,-12.2252,-12.0395,-11.9652,-11.8872,-11.7866,-11.7468,-11.7441,-11.7414,-11.7414,-11.7414,-11.7468,-11.751,-11.751,-11.7626,-11.7678,-11.7729,-11.7729,-11.7779,-11.7829,-11.7829,-11.7879,-11.7952,-11.7952,-11.8089,-11.8344,-11.8592,-11.8785,-11.8913,-11.9129,-11.9364,-11.9554,-11.9481,-11.9367,-11.9257,-11.9337,-11.9554,-11.9554,-11.9724,-11.9819,-11.9922,-11.9932,-11.9932,-11.9932,-11.9932,-11.9932,-11.9932,-11.9932,-11.9932,-11.9932,-11.9932,-11.9932,-11.9932,-11.9932,-11.9932,-11.9932,-11.9941,-11.9945,-11.987,-11.9855,-11.9815,-11.9737,-11.9627,-11.9591,-11.9462,-11.9413,-11.9422,-11.9449,-11.9517,-11.9565,-11.9612,-11.9773,-11.9895,-11.9895,-11.9893,-11.9933,-11.9933,-11.9933,-11.9933,-11.9933,-11.9933,-11.9933,-11.9933,-11.9933,-11.9933,-11.9933,-11.9933,-11.9933,-11.1165,-11.1165,-11.1165,-11.1165,-11.1165,-11.1165,-11.1312,-11.1505,-11.1601,-11.2252,-11.3365,-11.4174,-11.5103,-11.5925,-11.6881,-11.7184,-11.7212,-11.7322,-11.7414,-11.7785,-11.8612,-11.9578,-12.0878,-12.2586,-12.4071,-12.4665,-12.4368,-12.3514,-12.2252,-12.0543,-11.8947,-11.7971,-11.7897,-11.7674,-11.7414,-11.7414,-11.7414,-11.7414,-11.7414,-11.7414,-11.7441,-11.7441,-11.7521,-11.7574,-11.7563,-11.7615,-11.7703,-11.7703,-11.7729,-11.7779,-11.7804,-11.7903,-11.8051,-11.829,-11.8467,-11.8578,-11.8823,-11.9104,-11.9412,-11.9079,-11.8947,-11.8875,-11.9015,-11.9203,-11.9412,-11.9592,-11.968,-11.9845,-11.9927,-11.9932,-11.9932,-11.9932,-11.9932,-11.9932,-11.9932,-11.9932,-11.9932,-11.9932,-11.9932,-11.9932,-11.9932,-11.9932,-11.9932,-11.9932,-11.9936,-11.9957,-11.9953,-11.9895,-11.9796,-11.9717,-11.968,-11.9592,-11.9556,-11.9589,-11.9661,-11.9712,-11.9774,-11.9894,-11.9961,-11.9928,-11.9931,-11.9933,-11.9933,-11.9933,-11.9933,-11.9933,-11.9933,-11.9933,-11.9933,-11.9933,-11.9933,-11.9933,-11.9933,-11.9933,-11.9933,-11.1165,-11.1165,-11.1165,-11.1165,-11.1165,-11.1165,-11.1214,-11.1312,-11.1457,-11.215,-11.3148,-11.3612,-11.4287,-11.5138,-11.6091,-11.6576,-11.6697,-11.7165,-11.7369,-11.813,-11.9216,-12.0358,-12.188,-12.3589,-12.5334,-12.6002,-12.5408,-12.3997,-12.24,-12.0581,-11.9244,-11.8501,-11.8352,-11.813,-11.7823,-11.7414,-11.7414,-11.7414,-11.7414,-11.7414,-11.7414,-11.7414,-11.7441,-11.7468,-11.7468,-11.7521,-11.7548,-11.7574,-11.76,-11.7626,-11.7678,-11.7729,-11.7888,-11.8029,-11.8203,-11.8286,-11.8409,-11.8627,-11.8698,-11.8522,-11.8365,-11.8486,-11.8678,-11.8831,-11.8985,-11.9276,-11.948,-11.9642,-11.9851,-11.9932,-11.9932,-11.9932,-11.9932,-11.9932,-11.9932,-11.9932,-11.9932,-11.9932,-11.9932,-11.9932,-11.9932,-11.9932,-11.9932,-11.9932,-11.9936,-11.9949,-11.9943,-11.9929,-11.9817,-11.9796,-11.9755,-11.9717,-11.9686,-11.9764,-11.9853,-11.9857,-11.9856,-11.9948,-11.9946,-11.9953,-11.9959,-11.9929,-11.9932,-11.9933,-11.9933,-11.9933,-11.9933,-11.9933,-11.9933,-11.9933,-11.9933,-11.9933,-11.9933,-11.9933,-11.9933,-11.1165,-11.1165,-11.1165,-11.1165,-11.1165,-11.1165,-11.1165,-11.1214,-11.136,-11.1814,-11.2388,-11.3013,-11.353,-11.4212,-11.5103,-11.566,-11.597,-11.7087,-11.774,-11.8553,-12.0199,-12.1695,-12.2734,-12.4331,-12.578,-12.5891,-12.5965,-12.4814,-12.3291,-12.2549,-12.0766,-11.9615,-11.9504,-11.9058,-11.8352,-11.7823,-11.7525,-11.7414,-11.7414,-11.7414,-11.7414,-11.7414,-11.7414,-11.7414,-11.7414,-11.7414,-11.7414,-11.7414,-11.7468,-11.7532,-11.7521,-11.76,-11.7705,-11.7813,-11.7921,-11.7973,-11.8059,-11.8249,-11.835,-11.8192,-11.7976,-11.8134,-11.8347,-11.8595,-11.8612,-11.8891,-11.9129,-11.9354,-11.9563,-11.9769,-11.9839,-11.9868,-11.9932,-11.9932,-11.9932,-11.9932,-11.9932,-11.9932,-11.9932,-11.9932,-11.9932,-11.9932,-11.9932,-11.9932,-11.9932,-11.9936,-11.9965,-11.9948,-11.9885,-11.9857,-11.9802,-11.9738,-11.9798,-11.9853,-11.9895,-11.9926,-11.9946,-11.9934,-11.9965,-11.9937,-11.9946,-11.9957,-11.9967,-11.9969,-11.9933,-11.9933,-11.9933,-11.9933,-11.9933,-11.9933,-11.9933,-11.9933,-11.9933,-11.9933,-11.9933,-11.1165,-11.1165,-11.1165,-11.1165,-11.1165,-11.1165,-11.1165,-11.1165,-11.1165,-11.1263,-11.1518,-11.216,-11.2716,-11.3239,-11.4054,-11.474,-11.5069,-11.7303,-11.7903,-11.9483,-12.2075,-12.2716,-12.3463,-12.461,-12.6104,-12.5521,-12.5905,-12.5706,-12.4925,-12.4059,-12.3443,-12.2306,-12.0784,-11.9996,-11.8984,-11.7897,-11.7451,-11.7414,-11.7414,-11.7414,-11.7414,-11.7414,-11.7414,-11.7414,-11.7414,-11.7414,-11.7414,-11.7414,-11.7414,-11.7414,-11.7441,-11.7495,-11.7574,-11.7603,-11.7705,-11.7779,-11.7829,-11.7921,-11.8007,-11.7888,-11.7767,-11.7792,-11.7949,-11.817,-11.8286,-11.8448,-11.861,-11.8808,-11.9201,-11.9452,-11.9634,-11.9731,-11.9868,-11.9922,-11.9932,-11.9932,-11.9932,-11.9932,-11.9932,-11.9932,-11.9932,-11.9932,-11.9932,-11.9932,-11.9932,-11.9932,-11.9961,-11.9547,-11.9595,-11.9128,-11.9222,-11.9813,-11.9855,-11.9895,-11.9966,-11.9953,-11.993,-11.9953,-11.9953,-11.9961,-11.9968,-11.9948,-11.9961,-11.9966,-11.9969,-11.9933,-11.9933,-11.9933,-11.9933,-11.9933,-11.9933,-11.9933,-11.9933,-11.9933,-11.9933,-11.1165,-11.1165,-11.1165,-11.1165,-11.1165,-11.1165,-11.1165,-11.1165,-11.1165,-11.1165,-11.1263,-11.147,-11.1767,-11.2186,-11.3056,-11.3689,-11.4007,-11.5104,-11.6345,-11.7987,-11.9921,-12.1602,-12.2955,-12.4095,-12.5444,-12.5738,-12.607,-12.5632,-12.516,-12.4987,-12.4077,-12.1493,-12.1383,-12.0348,-11.8649,-11.7684,-11.7414,-11.7414,-11.7414,-11.7414,-11.7414,-11.7414,-11.7414,-11.7414,-11.7414,-11.7414,-11.7414,-11.7414,-11.7414,-11.7414,-11.7414,-11.7414,-11.7468,-11.7468,-11.7548,-11.7626,-11.7652,-11.7692,-11.7654,-11.7642,-11.7641,-11.7703,-11.7804,-11.789,-11.7991,-11.8249,-11.8448,-11.8466,-11.8846,-11.9178,-11.9452,-11.9592,-11.9724,-11.9857,-11.9927,-11.9932,-11.9932,-11.9932,-11.9932,-11.9932,-11.9932,-11.9932,-11.9932,-11.9932,-11.9932,-11.9932,-11.9666,-11.9253,-11.8636,-11.7903,-11.8566,-11.9854,-11.9915,-11.9925,-11.9946,-11.9961,-11.9953,-11.9936,-11.9936,-11.9945,-11.9949,-11.993,-11.9951,-11.9959,-11.9964,-11.9969,-11.9933,-11.9933,-11.9933,-11.9933,-11.9933,-11.9933,-11.9933,-11.9933,-11.9933,-11.1165,-11.1165,-11.1165,-11.1165,-11.1165,-11.1165,-11.1165,-11.1165,-11.1165,-11.1165,-11.1165,-11.1165,-11.1214,-11.1553,-11.2094,-11.2647,-11.3185,-11.456,-11.6091,-11.7954,-12.002,-12.1745,-12.3129,-12.4194,-12.4785,-12.5198,-12.527,-12.5038,-12.5001,-12.4899,-12.4721,-12.2735,-12.195,-12.0575,-11.9604,-11.8065,-11.7535,-11.7414,-11.7414,-11.7414,-11.7414,-11.7414,-11.7414,-11.7414,-11.7414,-11.7414,-11.7414,-11.7414,-11.7414,-11.7414,-11.7414,-11.7414,-11.7414,-11.7414,-11.7441,-11.7521,-11.7521,-11.7457,-11.7414,-11.7457,-11.7495,-11.7548,-11.7626,-11.7703,-11.7767,-11.7945,-11.8111,-11.8089,-11.8392,-11.8684,-11.8956,-11.9299,-11.9499,-11.9724,-11.9863,-11.9917,-11.9932,-11.9932,-11.9932,-11.9932,-11.9932,-11.9932,-11.9932,-11.9932,-11.9932,-11.9932,-11.9742,-11.8988,-11.806,-11.7055,-11.7722,-11.9291,-11.962,-11.9867,-11.9953,-11.9932,-11.9932,-11.9932,-11.9936,-11.9936,-11.9941,-11.9949,-11.9934,-11.9948,-11.9959,-11.9967,-11.9932,-11.9933,-11.9933,-11.9933,-11.9933,-11.9933,-11.9933,-11.9933,-11.9933,-11.1165,-11.1165,-11.1165,-11.1165,-11.1165,-11.1165,-11.1165,-11.1165,-11.1165,-11.1165,-11.1165,-11.1165,-11.1165,-11.1263,-11.1505,-11.1731,-11.2591,-11.4174,-11.6084,-11.789,-12.0118,-12.2008,-12.3824,-12.4277,-12.4192,-12.4473,-12.4473,-12.4433,-12.4172,-12.4327,-12.4218,-12.3466,-12.1859,-12.0791,-11.9805,-11.8285,-11.7461,-11.7414,-11.7414,-11.7414,-11.7414,-11.7414,-11.7414,-11.7414,-11.7414,-11.7414,-11.7414,-11.7414,-11.7414,-11.7414,-11.7414,-11.7414,-11.7414,-11.7414,-11.7414,-11.7414,-11.7414,-11.7414,-11.7414,-11.7414,-11.7441,-11.7441,-11.7521,-11.7574,-11.7626,-11.7717,-11.7767,-11.7626,-11.7954,-11.8235,-11.8519,-11.8933,-11.9284,-11.9516,-11.9789,-11.9922,-11.9932,-11.9932,-11.9932,-11.9932,-11.9932,-11.9932,-11.9932,-11.9932,-11.9932,-11.9932,-11.9704,-11.8608,-11.7512,-11.6155,-11.6218,-11.7807,-11.8511,-11.9578,-11.9932,-11.9932,-11.9932,-11.9932,-11.9932,-11.9936,-11.9936,-11.9945,-11.9961,-11.9937,-11.9953,-11.9963,-11.9967,-11.997,-11.9933,-11.9933,-11.9933,-11.9933,-11.9933,-11.9933,-11.9933,-11.1165,-11.1165,-11.1165,-11.1165,-11.1165,-11.1165,-11.1165,-11.1165,-11.1165,-11.1165,-11.1165,-11.1165,-11.1165,-11.1165,-11.1263,-11.1444,-11.1825,-11.3348,-11.5302,-11.7151,-11.9035,-12.0773,-12.1965,-12.2547,-12.298,-12.356,-12.3639,-12.3283,-12.3016,-12.3335,-12.2836,-12.1945,-12.1534,-12.0538,-11.9235,-11.7954,-11.7639,-11.7414,-11.7414,-11.7414,-11.7414,-11.7414,-11.7414,-11.7414,-11.7414,-11.7414,-11.7414,-11.7414,-11.7414,-11.7414,-11.7414,-11.7414,-11.7414,-11.7414,-11.7414,-11.7414,-11.7414,-11.7414,-11.7414,-11.7414,-11.7414,-11.7414,-11.7478,-11.7441,-11.7468,-11.7495,-11.7548,-11.7626,-11.7767,-11.793,-11.8211,-11.8614,-11.899,-11.9326,-11.9672,-11.9932,-11.9927,-11.9927,-11.9922,-11.9927,-11.9932,-11.9932,-11.9922,-11.9922,-11.9927,-11.9927,-11.9889,-11.8755,-11.6408,-11.5113,-11.5265,-11.6745,-11.8148,-11.9362,-11.9932,-11.9932,-11.9932,-11.9932,-11.9932,-11.9932,-11.9936,-11.9941,-11.9953,-11.9965,-11.9946,-11.9955,-11.9959,-11.9964,-11.9932,-11.9933,-11.9933,-11.9933,-11.9933,-11.9933,-11.9933,-11.1165,-11.1165,-11.1165,-11.1165,-11.1165,-11.1165,-11.1165,-11.1165,-11.1165,-11.1165,-11.1165,-11.1165,-11.1165,-11.1165,-11.1165,-11.1214,-11.1501,-11.2347,-11.4145,-11.6398,-11.7679,-11.9246,-12.1772,-12.1999,-12.2395,-12.2558,-12.2697,-12.2525,-12.2216,-12.2547,-12.1861,-12.0684,-11.995,-11.9267,-11.8116,-11.7333,-11.7087,-11.7387,-11.7414,-11.7414,-11.7414,-11.7414,-11.7414,-11.7414,-11.7414,-11.7414,-11.7414,-11.7414,-11.7414,-11.7414,-11.7414,-11.7414,-11.7414,-11.7414,-11.7414,-11.7414,-11.7414,-11.7414,-11.7414,-11.7414,-11.7414,-11.7414,-11.7414,-11.7414,-11.7414,-11.7414,-11.7478,-11.7495,-11.76,-11.768,-11.793,-11.8372,-11.8733,-11.9078,-11.9534,-11.9764,-11.9819,-11.9819,-11.9857,-11.9851,-11.9851,-11.9851,-11.9857,-11.9868,-11.9874,-11.9884,-11.9884,-11.7954,-11.5417,-11.4923,-11.4923,-11.6479,-11.8035,-11.9135,-11.9932,-11.9932,-11.9932,-11.9932,-11.9932,-11.9932,-11.9936,-11.9936,-11.9945,-11.9957,-11.9968,-11.9943,-11.9951,-11.9961,-11.9969,-11.9933,-11.9933,-11.9933,-11.9933,-11.9933,-11.9933,-11.1165,-11.1165,-11.1165,-11.1165,-11.1165,-11.1165,-11.1165,-11.1165,-11.1165,-11.1165,-11.1165,-11.1165,-11.1165,-11.1165,-11.1165,-11.1165,-11.1355,-11.1989,-11.3468,-11.5579,-11.6801,-11.8345,-12.0855,-12.1309,-12.125,-12.1393,-12.1132,-12.1252,-12.1441,-12.1678,-12.124,-12.0262,-11.928,-11.8676,-11.7915,-11.6859,-11.6697,-11.7267,-11.7414,-11.7414,-11.7414,-11.7414,-11.7414,-11.7414,-11.7414,-11.7414,-11.7414,-11.7414,-11.7414,-11.7414,-11.7414,-11.7414,-11.7414,-11.7414,-11.7414,-11.7414,-11.7414,-11.7414,-11.7414,-11.7414,-11.7414,-11.7414,-11.7414,-11.7414,-11.7414,-11.7414,-11.7414,-11.7414,-11.7441,-11.7468,-11.7563,-11.8095,-11.8493,-11.8814,-11.9224,-11.9642,-11.9703,-11.9733,-11.9718,-11.9718,-11.9741,-11.9755,-11.9724,-11.9731,-11.9789,-11.9801,-11.9776,-11.827,-11.5711,-11.4923,-11.4847,-11.61,-11.7845,-11.9097,-11.9856,-11.9818,-11.9932,-11.9932,-11.9932,-11.9932,-11.9932,-11.9932,-11.9936,-11.9941,-11.9953,-11.9968,-11.9946,-11.9957,-11.9967,-11.9932,-11.9933,-11.9933,-11.9933,-11.9933,-11.9933,-11.1165,-11.1165,-11.1165,-11.1165,-11.1165,-11.1165,-11.1165,-11.1165,-11.1165,-11.1165,-11.1165,-11.1165,-11.1165,-11.1165,-11.1165,-11.1165,-11.1517,-11.2292,-11.3109,-11.4689,-11.5769,-11.7608,-11.9166,-11.968,-11.9265,-11.7911,-11.8303,-11.9075,-11.9836,-12.0085,-12.0335,-12.1085,-11.9608,-11.8532,-11.8605,-11.7486,-11.6657,-11.7212,-11.736,-11.7414,-11.7414,-11.7414,-11.7414,-11.7414,-11.7414,-11.7414,-11.7414,-11.7414,-11.7414,-11.7414,-11.7414,-11.7414,-11.7414,-11.7414,-11.7414,-11.7414,-11.7414,-11.7414,-11.7414,-11.7414,-11.7414,-11.7414,-11.7414,-11.7414,-11.7414,-11.7414,-11.7414,-11.7414,-11.7414,-11.7414,-11.7468,-11.7932,-11.8314,-11.861,-11.8971,-11.9321,-11.9538,-11.9584,-11.9564,-11.9564,-11.9585,-11.9621,-11.9639,-11.9626,-11.9695,-11.9717,-11.9662,-11.8733,-11.6308,-11.4885,-11.47,-11.5497,-11.8035,-11.9628,-11.9514,-11.9443,-11.9894,-11.9932,-11.9932,-11.9932,-11.9932,-11.9932,-11.9932,-11.9936,-11.9941,-11.9953,-11.9934,-11.9948,-11.9959,-11.9968,-11.9933,-11.9933,-11.9933,-11.9933,-11.9933,-11.1165,-11.1165,-11.1165,-11.1165,-11.1165,-11.1165,-11.1165,-11.1165,-11.1165,-11.1165,-11.1165,-11.1165,-11.1165,-11.1165,-11.1165,-11.1165,-11.1376,-11.201,-11.2827,-11.3906,-11.4654,-11.6172,-11.755,-11.7221,-11.7056,-11.7031,-11.7009,-11.7495,-11.816,-11.8493,-11.8944,-11.9384,-11.8402,-11.784,-11.7552,-11.7112,-11.6635,-11.6748,-11.7184,-11.7414,-11.7414,-11.7414,-11.7414,-11.7414,-11.7414,-11.7414,-11.7414,-11.7414,-11.7414,-11.7414,-11.7414,-11.7414,-11.7414,-11.7414,-11.7414,-11.7414,-11.7414,-11.7414,-11.7414,-11.7414,-11.7414,-11.7414,-11.7414,-11.7414,-11.7414,-11.7414,-11.7414,-11.7414,-11.7414,-11.7414,-11.7468,-11.7893,-11.8312,-11.865,-11.9041,-11.9378,-11.9521,-11.9492,-11.9469,-11.9553,-11.9521,-11.9505,-11.9546,-11.9566,-11.9592,-11.9618,-11.9558,-11.8607,-11.6221,-11.4833,-11.4649,-11.4814,-11.7693,-11.9249,-11.8988,-11.9291,-11.9742,-11.9932,-11.9932,-11.9932,-11.9932,-11.9932,-11.9932,-11.9936,-11.9936,-11.9949,-11.9957,-11.9934,-11.9948,-11.9961,-11.9969,-11.9933,-11.9933,-11.9933,-11.9933,-11.0574,-11.0708,-11.106,-11.1165,-11.1165,-11.1165,-11.1165,-11.1165,-11.1165,-11.1165,-11.1165,-11.1165,-11.1165,-11.1165,-11.1165,-11.1165,-11.12,-11.1306,-11.1862,-11.3257,-11.3376,-11.4265,-11.4822,-11.4423,-11.4423,-11.5122,-11.574,-11.6084,-11.6416,-11.6629,-11.6866,-11.708,-11.6521,-11.5844,-11.5554,-11.537,-11.558,-11.5778,-11.6459,-11.6873,-11.7071,-11.7184,-11.724,-11.724,-11.736,-11.7387,-11.7414,-11.7414,-11.736,-11.7332,-11.736,-11.7414,-11.7414,-11.7414,-11.7414,-11.7414,-11.7414,-11.7414,-11.7414,-11.7414,-11.7414,-11.7414,-11.7414,-11.7414,-11.7414,-11.7414,-11.7414,-11.7414,-11.7414,-11.7414,-11.7441,-11.7939,-11.8249,-11.8561,-11.8996,-11.9343,-11.9482,-11.9419,-11.9406,-11.9469,-11.9468,-11.9468,-11.948,-11.9473,-11.9526,-11.9538,-11.8957,-11.8087,-11.6604,-11.5029,-11.407,-11.2993,-11.5687,-11.7698,-11.7925,-11.9064,-11.9552,-11.9932,-11.9932,-11.9932,-11.9932,-11.9932,-11.9932,-11.9932,-11.9932,-11.9941,-11.9949,-11.9965,-11.9937,-11.9955,-11.9966,-11.9969,-11.9933,-11.9933,-11.9933,-10.8699,-10.9194,-11.0602,-11.1165,-11.1165,-11.1165,-11.1165,-11.1165,-11.1165,-11.1165,-11.1165,-11.1165,-11.1165,-11.1165,-11.1165,-11.1165,-11.1165,-11.1165,-11.1425,-11.1615,-11.1902,-11.2057,-11.2431,-11.2211,-11.2378,-11.2532,-11.2487,-11.335,-11.4319,-11.4651,-11.5325,-11.5669,-11.4094,-11.3281,-11.3529,-11.28,-11.251,-11.371,-11.5074,-11.5995,-11.6589,-11.68,-11.6918,-11.6984,-11.7128,-11.7305,-11.7295,-11.736,-11.7212,-11.6918,-11.7249,-11.736,-11.7387,-11.7414,-11.7414,-11.7414,-11.7414,-11.7414,-11.7414,-11.7414,-11.7414,-11.7414,-11.7414,-11.7414,-11.7414,-11.7414,-11.7414,-11.7414,-11.7414,-11.7414,-11.7441,-11.7457,-11.785,-11.8365,-11.8636,-11.9007,-11.9244,-11.9352,-11.9352,-11.9366,-11.9366,-11.9366,-11.9366,-11.9392,-11.9406,-11.9521,-11.9337,-11.7925,-11.6019,-11.4934,-11.3899,-11.2585,-11.3819,-11.5986,-11.7318,-11.8646,-11.9173,-11.9932,-11.9894,-11.9932,-11.9932,-11.9932,-11.9932,-11.9932,-11.9932,-11.9936,-11.9945,-11.9953,-11.9968,-11.9946,-11.9959,-11.9966,-11.9969,-11.9933,-11.9933,-10.7437,-10.8489,-10.9449,-11.0356,-11.113,-11.1165,-11.1165,-11.1165,-11.1165,-11.1165,-11.1165,-11.1165,-11.1165,-11.1165,-11.1165,-11.1165,-11.1165,-11.1165,-11.1165,-11.1249,-11.1347,-11.1263,-11.1214,-11.1298,-11.1347,-11.1395,-11.1636,-11.212,-11.2699,-11.2913,-11.3279,-11.3704,-11.3444,-11.2971,-11.2477,-11.2919,-11.3612,-11.3717,-11.4665,-11.5663,-11.6376,-11.6564,-11.6589,-11.662,-11.6748,-11.6837,-11.6867,-11.7013,-11.6918,-11.6741,-11.6889,-11.7062,-11.7099,-11.724,-11.7414,-11.7414,-11.7414,-11.7414,-11.7414,-11.7414,-11.7414,-11.7414,-11.7414,-11.7414,-11.7414,-11.7414,-11.7414,-11.7414,-11.7414,-11.7414,-11.7414,-11.7414,-11.7693,-11.8235,-11.8482,-11.8765,-11.9272,-11.9338,-11.9338,-11.9338,-11.9338,-11.9338,-11.9338,-11.9352,-11.9419,-11.9506,-11.9541,-11.7747,-11.5606,-11.4962,-11.4078,-11.2654,-11.2921,-11.4653,-11.6104,-11.7318,-11.8039,-11.9514,-11.9856,-11.9932,-11.9932,-11.9932,-11.9932,-11.9932,-11.9932,-11.9936,-11.9936,-11.9941,-11.9961,-11.994,-11.9951,-11.9963,-11.9932,-11.9933,-11.9933,-10.5595,-10.677,-10.7536,-10.8833,-11.023,-11.0371,-11.0645,-11.1165,-11.1165,-11.1165,-11.1165,-11.1165,-11.1165,-11.1165,-11.1165,-11.1165,-11.1165,-11.1165,-11.1165,-11.1165,-11.1165,-11.1165,-11.1165,-11.1165,-11.1165,-11.1249,-11.1395,-11.1457,-11.1505,-11.1742,-11.1873,-11.1814,-11.2237,-11.2002,-11.1508,-11.2491,-11.3328,-11.3381,-11.4224,-11.5141,-11.5948,-11.6178,-11.628,-11.6312,-11.6408,-11.6476,-11.6508,-11.662,-11.6478,-11.5792,-11.6263,-11.6741,-11.6741,-11.6984,-11.7165,-11.7184,-11.724,-11.7267,-11.7387,-11.7414,-11.7414,-11.7414,-11.7414,-11.7414,-11.7414,-11.7414,-11.7414,-11.7414,-11.7414,-11.7414,-11.7414,-11.7414,-11.7578,-11.8059,-11.8365,-11.8745,-11.9215,-11.9338,-11.9338,-11.9338,-11.9338,-11.9338,-11.9338,-11.9352,-11.9379,-11.9457,-11.9305,-11.8444,-11.6326,-11.5173,-11.3953,-11.2585,-11.2309,-11.37,-11.4776,-11.599,-11.7242,-11.8717,-11.9135,-11.8988,-11.9059,-11.9362,-11.9666,-11.9818,-11.9704,-11.9894,-11.9932,-11.9936,-11.9957,-11.994,-11.9951,-11.9959,-11.9969,-11.963,-11.9592,-10.2622,-10.3233,-10.4567,-10.6481,-10.8207,-10.8432,-10.945,-11.0905,-11.1165,-11.1165,-11.1165,-11.1165,-11.1165,-11.1165,-11.1165,-11.1165,-11.1165,-11.1165,-11.1165,-11.1165,-11.1165,-11.1165,-11.1165,-11.1165,-11.1165,-11.113,-11.1108,-11.1144,-11.1263,-11.1122,-11.1214,-11.0889,-11.0138,-10.941,-10.9385,-10.941,-11.0631,-11.179,-11.2891,-11.4195,-11.5323,-11.5637,-11.5771,-11.5734,-11.5852,-11.5939,-11.5834,-11.5824,-11.5286,-11.4178,-11.5218,-11.5966,-11.6329,-11.6434,-11.6576,-11.686,-11.6852,-11.7071,-11.7332,-11.7387,-11.7414,-11.7414,-11.7414,-11.7414,-11.7414,-11.7414,-11.7414,-11.7414,-11.7404,-11.7441,-11.7431,-11.7457,-11.7696,-11.7678,-11.8865,-11.9393,-11.9409,-11.9451,-11.9376,-11.9338,-11.9338,-11.9338,-11.9338,-11.9338,-11.9352,-11.9379,-11.9341,-11.8575,-11.6871,-11.5328,-11.3846,-11.319,-11.2835,-11.3548,-11.3372,-11.4548,-11.5573,-11.6749,-11.7128,-11.7204,-11.7394,-11.8343,-11.9021,-11.9249,-11.94,-11.9704,-11.9898,-11.9941,-11.9957,-11.9712,-11.9687,-11.9919,-11.9662,-11.9098,-11.8756,-10.1484,-10.2851,-10.3789,-10.5311,-10.7218,-10.8249,-10.9049,-10.9757,-11.0743,-11.1165,-11.1165,-11.1165,-11.1165,-11.1165,-11.1165,-11.1165,-11.1165,-11.1165,-11.1165,-11.1165,-11.1165,-11.1165,-11.1165,-11.1165,-11.1165,-11.1024,-11.0179,-11.0179,-11.1095,-11.0215,-10.9264,-10.8701,-10.8832,-10.8515,-10.7728,-10.9443,-11.1139,-11.2332,-11.2897,-11.3915,-11.485,-11.4409,-11.4004,-11.3893,-11.3225,-11.278,-11.2743,-11.2777,-11.2453,-11.1986,-11.2347,-11.339,-11.4537,-11.4803,-11.5402,-11.6294,-11.6741,-11.6815,-11.7071,-11.7082,-11.7414,-11.7414,-11.7414,-11.7377,-11.7414,-11.7414,-11.7414,-11.7431,-11.7552,-11.7693,-11.7718,-11.7888,-11.906,-12.0729,-12.1414,-12.2096,-12.2127,-12.0711,-11.9527,-11.9338,-11.9338,-11.9338,-11.9338,-11.9338,-11.9338,-11.9338,-11.9338,-11.8775,-11.7215,-11.6106,-11.429,-11.3136,-11.2692,-11.2287,-11.2268,-11.3031,-11.3979,-11.4548,-11.508,-11.5421,-11.5801,-11.6863,-11.7541,-11.7693,-11.811,-11.8338,-11.9064,-11.9258,-11.9236,-11.926,-11.897,-11.8719,-11.8263,-11.7921,-11.7314,-10.0805,-10.2088,-10.2514,-10.3807,-10.5826,-10.6774,-10.7428,-10.7774,-10.9232,-10.9697,-10.9615,-11.0237,-11.0669,-11.0719,-11.1067,-11.1165,-11.1116,-11.0819,-11.0669,-11.0719,-11.0982,-11.1165,-11.1165,-11.1165,-11.1165,-11.0919,-10.9581,-10.9229,-10.9475,-10.8666,-10.7751,-10.7082,-10.7751,-10.761,-10.6941,-10.8221,-10.9735,-11.0856,-11.0594,-11.1244,-11.2736,-11.1895,-11.1711,-11.2039,-11.12,-11.0032,-10.9193,-10.9558,-10.9813,-10.9813,-11.0288,-11.1228,-11.2344,-11.2791,-11.3499,-11.475,-11.5076,-11.5255,-11.5458,-11.5682,-11.5753,-11.5901,-11.6347,-11.657,-11.6644,-11.7015,-11.7414,-11.7404,-11.763,-11.8136,-11.8519,-11.8941,-12.0052,-12.2371,-12.303,-12.3583,-12.5039,-12.2561,-12.0244,-11.9527,-11.9338,-11.9338,-11.9338,-11.9338,-11.9338,-11.9338,-11.9338,-11.9074,-11.778,-11.6837,-11.5203,-11.3261,-11.1357,-11.0564,-11.0931,-11.1589,-11.2082,-11.2386,-11.3069,-11.36,-11.4131,-11.489,-11.5269,-11.5644,-11.6218,-11.6825,-11.766,-11.7934,-11.7688,-11.763,-11.7376,-11.701,-11.663,-11.6099,-11.5453,-10.0512,-10.0665,-10.0547,-10.1922,-10.3645,-10.3947,-10.4285,-10.5224,-10.6564,-10.6629,-10.6263,-10.8237,-10.9183,-10.955,-11.0276,-11.0877,-11.0383,-10.9568,-10.9218,-10.9358,-11.0463,-11.0982,-11.0891,-11.1011,-11.113,-11.0637,-10.9475,-10.8173,-10.7152,-10.6871,-10.6589,-10.6554,-10.6343,-10.6026,-10.6436,-10.5298,-10.526,-10.6111,-10.5426,-10.5867,-10.7781,-10.821,-10.8828,-11.0251,-11.0178,-10.8718,-10.6054,-10.7332,-10.8064,-10.8246,-10.9521,-11.0507,-11.0429,-11.0646,-11.0955,-11.1765,-11.1803,-11.2063,-11.2612,-11.2878,-11.3053,-11.3265,-11.423,-11.5196,-11.5493,-11.6533,-11.7414,-11.7431,-11.7742,-11.8383,-11.9724,-12.0413,-12.1058,-12.1374,-12.2194,-12.4142,-12.6526,-12.4638,-12.1202,-11.9753,-11.9338,-11.9338,-11.9338,-11.9338,-11.9338,-11.9338,-11.9338,-11.9187,-11.8861,-11.739,-11.5853,-11.4275,-11.232,-11.0461,-11.0157,-11.0067,-11.0181,-11.0413,-11.1437,-11.1968,-11.2537,-11.2879,-11.3296,-11.36,-11.4169,-11.4852,-11.5687,-11.6268,-11.6059,-11.6071,-11.536,-11.5036,-11.4694,-11.4314,-11.3669,-10.038,-10.096,-10.1042,-10.1639,-10.2537,-10.2834,-10.3139,-10.341,-10.4157,-10.4295,-10.4296,-10.5851,-10.6702,-10.6895,-10.8221,-10.7818,-10.5954,-10.644,-10.6702,-10.6881,-10.894,-10.9428,-10.8868,-11.0328,-11.0144,-10.8455,-10.856,-10.8103,-10.68,-10.5639,-10.4618,-10.3491,-10.2435,-10.1942,-10.2083,-10.2576,-10.339,-10.4255,-10.4102,-10.4639,-10.6032,-10.547,-10.5653,-10.6894,-10.6273,-10.5175,-10.4298,-10.5689,-10.6492,-10.6565,-10.704,-10.7332,-10.7441,-10.8353,-10.9477,-11.0736,-11.1038,-11.1423,-11.1813,-11.2042,-11.2235,-11.257,-11.3933,-11.4909,-11.501,-11.6421,-11.7265,-11.7537,-11.7888,-11.831,-11.9203,-12.0589,-12.2102,-12.3199,-12.35,-12.4336,-12.5582,-12.3468,-12.124,-11.9716,-11.93,-11.93,-11.9338,-11.9338,-11.9338,-11.9338,-11.9338,-11.9338,-11.9163,-11.7832,-11.624,-11.4679,-11.269,-11.1226,-11.0391,-11.0129,-11.0143,-11.0143,-11.0868,-11.0716,-11.0906,-11.1096,-11.1361,-11.1665,-11.2158,-11.2841,-11.3528,-11.4261,-11.4652,-11.4927,-11.4217,-11.3316,-11.3019,-11.2605,-11.2037,-9.9493,-9.9926,-9.9926,-10.0123,-10.0471,-10.0692,-10.0645,-10.0451,-10.1238,-10.1348,-10.1482,-10.3142,-10.3957,-10.3968,-10.4521,-10.3705,-10.211,-10.3289,-10.3991,-10.4207,-10.6174,-10.666,-10.5973,-10.7876,-10.7816,-10.6253,-10.6307,-10.5357,-10.3456,-10.24,-10.1309,-10.0253,-9.9338,-9.8845,-9.8915,-9.9338,-10.0129,-10.1077,-10.0692,-10.1354,-10.2746,-10.2218,-10.2108,-10.3025,-10.2149,-10.2181,-10.3349,-10.4339,-10.5178,-10.5762,-10.5762,-10.5762,-10.5872,-10.6748,-10.7767,-10.8847,-10.9154,-10.9441,-10.9784,-10.9954,-11.0469,-11.1446,-11.2919,-11.4022,-11.4983,-11.6347,-11.7414,-11.751,-11.8028,-11.8361,-11.8727,-11.9895,-12.1617,-12.3014,-12.2939,-12.241,-12.2297,-12.1089,-11.9918,-11.9414,-11.8748,-11.8786,-11.9112,-11.9338,-11.9338,-11.9338,-11.9338,-11.9338,-11.9088,-11.7983,-11.6356,-11.476,-11.3252,-11.1887,-11.0733,-11.0456,-11.0029,-11.0029,-11.0067,-11.0105,-11.0105,-11.0413,-11.0489,-11.0868,-11.0982,-11.1513,-11.1627,-11.228,-11.233,-11.2567,-11.2387,-11.1678,-11.1689,-11.1351,-11.0669,-9.791,-9.7593,-9.7593,-9.7755,-9.7681,-9.7694,-9.7256,-9.6999,-9.7892,-9.8063,-9.7848,-10.0128,-10.1261,-10.1043,-10.0065,-9.9391,-9.9544,-10.0669,-10.1328,-10.1445,-10.2724,-10.3141,-10.3148,-10.4246,-10.481,-10.4421,-10.3111,-10.0957,-9.8395,-9.7761,-9.7374,-9.7339,-9.712,-9.7163,-9.6909,-9.5853,-9.5623,-9.6812,-9.581,-9.6044,-9.823,-9.8536,-9.8604,-9.875,-9.8604,-10.0137,-10.2656,-10.3313,-10.4116,-10.5543,-10.5689,-10.5762,-10.5762,-10.5865,-10.6027,-10.6244,-10.627,-10.6459,-10.7117,-10.7293,-10.8035,-10.9794,-11.1681,-11.2968,-11.4798,-11.6421,-11.7377,-11.7414,-11.7991,-11.8385,-11.8502,-11.9249,-12.0169,-12.124,-12.0183,-11.9201,-11.8861,-11.7389,-11.7577,-11.8295,-11.754,-11.7426,-11.8937,-11.93,-11.9338,-11.9338,-11.9338,-11.9338,-11.9163,-11.8106,-11.6598,-11.503,-11.3593,-11.2281,-11.2135,-11.1058,-11.0176,-11.0029,-11.0029,-11.0067,-11.0029,-11.0029,-11.0067,-11.0143,-11.0333,-11.0333,-11.0143,-11.0227,-11.0539,-11.0584,-11.0518,-11.0456,-11.0698,-11.0209,-11.0061,-9.709,-9.7112,-9.7463,-9.7769,-9.791,-9.7434,-9.7057,-9.6876,-9.6353,-9.605,-9.6035,-9.7716,-9.7963,-9.701,-9.6583,-9.6435,-9.6566,-9.7881,-9.8525,-9.8745,-10.0925,-10.1277,-10.0536,-10.2261,-10.2663,-10.1645,-10.067,-10.0464,-10.057,-9.8642,-9.6768,-9.5677,-9.455,-9.4022,-9.3952,-9.367,-9.3962,-9.4948,-9.4697,-9.5251,-9.6626,-9.6857,-9.6857,-9.6967,-9.7983,-9.8969,-9.9887,-10.2145,-10.3641,-10.4079,-10.5142,-10.5762,-10.5795,-10.6098,-10.6336,-10.6389,-10.6389,-10.7166,-10.8883,-10.86,-10.9376,-11.152,-11.3169,-11.4336,-11.5058,-11.6421,-11.734,-11.7356,-11.7991,-11.8352,-11.8672,-11.9102,-11.8923,-11.8219,-11.7879,-11.5878,-11.3009,-11.4104,-11.5161,-11.5576,-11.5274,-11.5614,-11.7237,-11.8432,-11.9149,-11.9225,-11.93,-11.9338,-11.9225,-11.8937,-11.8033,-11.6516,-11.4984,-11.3619,-11.2327,-11.1099,-11.0214,-11.0029,-11.0029,-11.0029,-11.0029,-11.0029,-11.0029,-11.0029,-11.0029,-11.0029,-11.0029,-11.0029,-11.0227,-11.0117,-11.0128,-11.0145,-11.0048,-11.0054,-11.006,-9.5939,-9.5614,-9.6448,-9.6732,-9.6538,-9.6088,-9.598,-9.6072,-9.5371,-9.5164,-9.5383,-9.6139,-9.604,-9.5284,-9.5284,-9.5284,-9.5317,-9.6106,-9.65,-9.6721,-9.8169,-9.8458,-9.771,-9.892,-9.9015,-9.8073,-9.6958,-9.7207,-9.7909,-9.6073,-9.4634,-9.4009,-9.3207,-9.272,-9.272,-9.272,-9.3131,-9.4049,-9.4339,-9.4674,-9.5059,-9.4558,-9.423,-9.4412,-9.5726,-9.6821,-9.7733,-10.0027,-10.1743,-10.2368,-10.3281,-10.3755,-10.3755,-10.4232,-10.4517,-10.4546,-10.4714,-10.5607,-10.7295,-10.7141,-10.8125,-11.0754,-11.1894,-11.2857,-11.3634,-11.5338,-11.6077,-11.5677,-11.6033,-11.6832,-11.7648,-11.8114,-11.7917,-11.6973,-11.618,-11.4179,-10.995,-11.1196,-11.2291,-11.2405,-11.2933,-11.3802,-11.4821,-11.6256,-11.7464,-11.8257,-11.8998,-11.93,-11.9338,-11.9338,-11.8675,-11.7252,-11.6246,-11.4975,-11.3555,-11.1971,-11.0835,-11.0252,-11.0029,-11.0029,-11.0029,-11.0029,-11.0067,-11.0029,-11.0029,-11.0029,-11.0143,-11.0029,-11.0029,-11.0033,-11.0045,-11.0059,-11.0041,-11.0053,-11.006,-9.4552,-9.3902,-9.4999,-9.5032,-9.4458,-9.4396,-9.4645,-9.4922,-9.4922,-9.5043,-9.5251,-9.5284,-9.5284,-9.5284,-9.5284,-9.5284,-9.5284,-9.5284,-9.5317,-9.5317,-9.5284,-9.5284,-9.5398,-9.5067,-9.4787,-9.4481,-9.2994,-9.2856,-9.3517,-9.2059,-9.1802,-9.2597,-9.272,-9.272,-9.272,-9.272,-9.3048,-9.3567,-9.3872,-9.381,-9.3346,-9.2084,-9.1347,-9.1383,-9.277,-9.4266,-9.5945,-9.7545,-9.9078,-10.0507,-10.0872,-10.0945,-10.1101,-10.1529,-10.1792,-10.1937,-10.2375,-10.2956,-10.3893,-10.4197,-10.5814,-10.837,-10.9372,-11.0438,-11.194,-11.3594,-11.3866,-11.3058,-11.3208,-11.4523,-11.5988,-11.6243,-11.6029,-11.5501,-11.4481,-11.2556,-10.9573,-10.9195,-10.9459,-10.9459,-11.0945,-11.1851,-11.238,-11.3462,-11.4859,-11.6407,-11.7804,-11.8823,-11.8847,-11.9074,-11.8748,-11.734,-11.6899,-11.6337,-11.523,-11.369,-11.2331,-11.1049,-11.0598,-11.0864,-11.1015,-11.0902,-11.056,-11.1399,-11.0868,-11.0792,-11.0602,-11.0257,-11.0333,-11.0223,-11.0033,-11.0045,-11.0036,-11.005,-11.0059,-9.3872,-9.3746,-9.4335,-9.4613,-9.4739,-9.495,-9.5071,-9.5131,-9.5131,-9.5191,-9.5251,-9.5284,-9.5284,-9.5284,-9.5284,-9.5284,-9.5284,-9.5284,-9.5284,-9.5284,-9.5284,-9.5284,-9.5206,-9.4854,-9.4141,-9.3063,-9.2232,-9.1726,-9.1638,-9.1356,-9.169,-9.2638,-9.272,-9.272,-9.272,-9.272,-9.3246,-9.4015,-9.1899,-9.0834,-9.1147,-9.1253,-9.1347,-9.1383,-9.1748,-9.2624,-9.4193,-9.5872,-9.7478,-9.9005,-10.0251,-10.1053,-10.1456,-10.1985,-10.2458,-10.2882,-10.3366,-10.3591,-10.3537,-10.5416,-10.7497,-10.9285,-11.0866,-11.18,-11.194,-11.193,-11.1776,-11.1839,-11.2774,-11.3939,-11.4433,-11.3813,-11.2531,-11.1272,-11.0743,-10.9271,-10.6451,-10.7911,-10.9459,-10.9459,-10.9724,-11.0567,-11.1662,-11.2304,-11.316,-11.4708,-11.6331,-11.7351,-11.7577,-11.8597,-11.8597,-11.7415,-11.6937,-11.6797,-11.6725,-11.5322,-11.4253,-11.397,-11.3671,-11.3482,-11.352,-11.3671,-11.3747,-11.3524,-11.3595,-11.2955,-11.2044,-11.1703,-11.1172,-11.0257,-11.0029,-11.0037,-11.0053,-11.0036,-11.0053,-9.3684,-9.3746,-9.4277,-9.4645,-9.4861,-9.5131,-9.5284,-9.5218,-9.4593,-9.4626,-9.5218,-9.5284,-9.5284,-9.5284,-9.5284,-9.5284,-9.5284,-9.5284,-9.5284,-9.5284,-9.5284,-9.5284,-9.5179,-9.4348,-9.3208,-9.1835,-9.1502,-9.0844,-8.9942,-9.0893,-9.1617,-9.1982,-9.2479,-9.2403,-9.1699,-9.1664,-9.1751,-9.1868,-9.0634,-9.0292,-9.0791,-9.0437,-9.058,-9.1347,-9.1347,-9.2077,-9.3646,-9.5325,-9.6602,-9.7441,-9.7821,-9.7714,-9.7283,-9.785,-9.8056,-9.7584,-9.8763,-9.9364,-9.9036,-10.0977,-10.3022,-10.5081,-10.7732,-10.8907,-10.7954,-10.7649,-10.7901,-10.8824,-10.9863,-11.0945,-11.1925,-11.131,-11.0101,-10.8478,-10.8289,-10.7194,-10.5167,-10.6187,-10.776,-10.9082,-10.878,-10.8931,-11.0605,-11.0794,-11.1398,-11.2933,-11.3915,-11.4859,-11.5614,-11.6482,-11.686,-11.6633,-11.6736,-11.6682,-11.6061,-11.5825,-11.5685,-11.4953,-11.4909,-11.4923,-11.4923,-11.4885,-11.4847,-11.4885,-11.4131,-11.341,-11.2613,-11.1817,-11.1058,-11.0143,-11.0029,-11.0037,-11.0049,-11.0031,-11.005,-9.3164,-9.3226,-9.4029,-9.4332,-9.4332,-9.454,-9.4659,-9.4561,-9.3377,-9.3508,-9.4659,-9.4659,-9.4659,-9.4659,-9.4659,-9.4758,-9.4955,-9.4955,-9.5087,-9.5251,-9.5284,-9.5284,-9.5185,-9.4002,-9.2686,-9.1306,-9.1042,-9.0133,-8.8903,-9.0246,-9.1121,-9.115,-9.171,-9.1382,-9.015,-9.0159,-8.959,-8.8442,-8.9286,-9.0011,-9.0625,-8.923,-8.9413,-9.1237,-9.1128,-9.1894,-9.3938,-9.4996,-9.5726,-9.6164,-9.5045,-9.376,-9.25,-9.3074,-9.254,-9.1151,-9.2662,-9.3614,-9.3426,-9.4695,-9.6513,-9.8969,-10.2562,-10.3985,-10.2328,-10.2749,-10.3813,-10.5187,-10.6026,-10.6882,-10.8075,-10.8025,-10.7194,-10.5948,-10.5835,-10.5344,-10.3758,-10.4147,-10.562,-10.81,-10.7421,-10.7194,-10.8742,-10.9082,-10.9686,-11.1171,-11.1775,-11.2266,-11.3537,-11.3764,-11.4179,-11.5312,-11.6256,-11.6245,-11.5755,-11.6404,-11.6806,-11.5447,-11.5354,-11.5379,-11.4999,-11.4923,-11.4923,-11.4923,-11.3941,-11.2917,-11.2348,-11.1209,-11.0564,-11.0109,-11.0037,-11.0041,-11.0059,-10.9391,-10.9063,-9.067,-9.073,-9.1352,-9.1675,-9.1675,-9.1733,-9.1733,-9.17,-9.147,0.0,0.0,-9.17,-9.17,-9.1733,-9.17,-9.2391,-9.3417,-9.3449,-9.4133,-9.5251,-9.5284,-9.5284,-9.5251,-9.4988,-9.4133,-9.2661,-9.1536,-9.1036,-9.099,-8.9055,-8.8909,-9.0279,-8.9437,-8.8742,-8.8535,-8.8921,-8.8155,-8.6349,-8.6448,-8.6846,-8.7341,-8.7077,-8.8354,-9.131,-8.9996,-9.1347,-9.5544,-9.35,-9.3463,-9.6018,-9.4683,-9.4053,-9.4411,-9.345,-9.2371,-9.1513,-9.1781,-9.1359,-9.008,-9.2298,-9.4052,-9.4723,-9.9024,-10.0578,-9.793,-10.044,-10.2271,-10.2537,-10.3908,-10.4338,-10.3255,-10.2059,-10.1153,-10.0888,-10.0851,-10.0737,-10.0586,-10.2663,-10.445,-10.5092,-10.5092,-10.5457,-10.7081,-10.7345,-10.7987,-10.9459,-10.9875,-11.0491,-11.18,-11.1196,-11.1007,-11.3084,-11.5085,-11.6648,-11.6791,-11.7739,-11.8451,-11.6671,-11.6588,-11.6446,-11.5303,-11.4923,-11.4923,-11.462,-11.47,-11.3676,-11.2537,-11.1741,-11.1513,-11.0261,-11.0045,-11.0059,-10.9797,-10.7835,-10.6102,-8.9804,-9.0014,-9.0508,-9.0681,0.0,-9.0887,-9.0122,-8.8863,-8.9563,-9.0319,-9.0944,-9.0944,-9.0944,-9.0944,-9.0944,-9.1338,-9.1996,-9.1306,-9.1733,-9.3015,-9.2358,-9.2029,-9.1996,-9.2029,-9.113,-8.9414,-8.9447,-8.9064,-8.8306,-8.8067,-8.8095,-8.8411,-8.8194,-8.8848,-9.0291,-8.8608,-8.6745,-8.4961,-8.6488,-8.7402,-8.767,-8.7661,-8.8902,-9.1201,-8.9704,0.0,0.0,0.0,0.0,0.0,0.0,0.0,0.0,-9.0395,0.0,-8.9113,-8.9817,-8.9554,-8.8074,-8.9171,-9.0333,-9.1288,-9.3537,-9.3975,-9.1779,-9.5614,-9.8453,-9.922,-9.932,-9.9381,-9.934,-9.7943,-9.6962,-9.6962,-9.6962,-9.6962,-9.7188,-9.9152,-10.158,-10.3694,-10.3645,-10.372,-10.5382,-10.5608,-10.6326,-10.7836,-10.8176,-10.8742,-11.0101,-10.8515,-10.7949,-11.0668,-11.3009,-11.4104,-11.3581,-11.4682,-11.526,-11.3993,-11.3619,-11.333,-11.2571,-11.2419,-11.2462,-11.2381,-11.1703,-11.0944,-10.9995,-10.9199,-10.8402,-10.7681,-10.7461,-10.7434,-10.7339,-10.6176,-10.4931,-8.8992,-8.9291,-8.9574,-8.9656,-8.9681,-8.9417,-8.7952,-8.5934,-8.7064,-8.8248,-8.93,-8.93,-8.9333,-8.93,-8.9356,-8.9431,-8.9629,-8.8511,-8.8774,-9.0089,-8.8938,-8.8445,-8.8445,-8.8708,-8.7929,-8.6464,-8.747,-8.7238,-8.5819,-8.7176,-8.7359,-8.6361,-8.6996,-8.8439,-9.0379,0.0,0.0,0.0,-8.6439,-8.7478,-8.7478,-8.7478,-8.8573,-9.0763,-8.9267,0.0,-9.1704,-9.1896,-9.1849,-9.148,-9.0059,0.0,0.0,0.0,0.0,0.0,0.0,0.0,0.0,0.0,0.0,0.0,-8.6159,-8.6335,-8.557,-9.0024,-9.3665,-9.5197,-9.4527,-9.4308,-9.5025,-9.3866,-9.3073,-9.3073,-9.3073,-9.2922,-9.2695,-9.4696,-9.7955,-10.2776,-10.1946,-10.1568,-10.3128,-10.3732,-10.4551,-10.6137,-10.6439,-10.7005,-10.8301,-10.6174,-10.5507,-10.7987,-11.0265,-11.0944,-10.9698,-11.0887,-11.1461,-10.9816,-10.9427,-10.9413,-10.9156,-10.9047,-10.9047,-10.9047,-10.7946,-10.7112,-10.7036,-10.5935,-10.5252,-10.4987,-10.5029,-10.4774,-10.4155,-10.4017,-10.4023,-8.6543,-8.6632,-8.6998,-8.7196,-8.6944,-8.4401,-8.3086,-8.279,-8.2987,-8.3151,-8.3349,-8.3316,-8.3316,-8.3316,-8.3316,-8.4039,-8.5169,-8.5005,-8.5782,-8.7218,-8.7053,-8.702,-8.7053,-8.8215,-8.8698,-8.8436,-8.8193,-8.8282,-8.8735,-8.6074,-8.5092,-8.5774,-8.5028,-8.4178,-8.3253,-8.2128,-8.2817,-8.5321,-8.3489,-8.2599,-8.2562,-8.2562,-8.4668,-8.8829,-8.7624,-8.8902,-9.3128,-9.2573,-9.1395,-8.9884,-9.1285,-9.1023,-8.8562,-8.6912,-8.5593,0.0,-8.1997,0.0,0.0,0.0,0.0,0.0,0.0,0.0,0.0,-8.4803,-8.8406,-9.0038,-9.1466,-9.1147,-8.8468,-8.8096,-8.8013,-8.8051,-8.8051,-8.7447,-8.6201,-8.9863,-9.4545,-9.9529,-9.8661,-9.8245,-9.9869,-10.1342,-10.2776,-10.4249,-10.4438,-10.4475,-10.494,-10.445,-10.4147,-10.4865,-10.7697,-10.9471,-10.9395,-10.9599,-10.9183,-10.7883,-10.7205,-10.7178,-10.5699,-10.548,-10.5556,-10.5518,-10.5177,-10.5101,-10.529,-10.5025,-10.4797,-10.4683,-10.4467,-10.3573,-10.1301,-10.0592,-10.0561,-8.3582,-8.3743,-8.4065,-8.3198,-8.1531,-8.0405,-7.9763,-7.9662,-7.978,-7.9881,-7.9798,-7.9864,-7.9831,-7.9831,-7.9881,-8.0225,-8.0733,-7.9945,-8.085,-8.2921,-8.2165,-8.2283,-8.3072,-8.4185,-8.463,-8.4304,-8.4578,-8.5184,-8.5911,-8.3609,-8.3274,-8.4781,-8.2686,-8.0929,-7.958,-7.8978,-7.9363,-8.0763,-7.9615,-8.0362,-8.288,-8.2124,-8.3547,-8.7332,-8.7166,-8.7906,-8.9909,-9.0973,-9.0658,-8.9019,-8.92,-8.8787,-8.7468,-8.4146,-8.2791,0.0,0.0,0.0,0.0,0.0,0.0,0.0,0.0,0.0,0.0,0.0,-8.193,-8.3704,-8.6269,-8.6829,-8.4431,-8.5076,-8.5672,-8.5672,-8.5672,-8.5143,-8.3784,-8.6956,-9.0467,-9.3563,-9.4054,-9.447,-9.5225,-9.6735,-9.8698,-10.1342,-10.0058,-9.9831,-10.2134,-10.0485,-10.0284,-10.377,-10.5658,-10.6626,-10.6684,-10.5266,-10.3605,-10.2083,-10.1029,-10.0522,-10.0729,-9.9978,-9.9713,-10.0468,-9.9978,-9.9637,-10.0582,-10.0771,-10.1117,-10.1572,-10.0676,-9.898,-9.751,-9.7255,-9.7224,-8.0571,-8.0701,-7.9498,-7.7709,-7.5827,-7.6121,-7.6415,-7.6612,-7.6889,-7.6953,-7.6953,-7.6937,-7.6889,-7.6856,-7.6807,-7.6759,-7.6807,-7.5896,-7.6698,-7.8727,-7.791,-7.8071,-7.9165,-8.0191,-8.0465,-8.0156,-8.0996,-8.1781,-8.2355,-8.1136,-8.1528,-8.3186,-8.0641,-7.9025,-7.8523,-7.8267,-7.7722,-7.6992,-7.7722,-7.956,-8.2462,-8.1706,-8.262,-8.5473,-8.5519,-8.6072,-8.7234,-8.9312,-8.9601,-8.7918,-8.7093,-8.5945,-8.4403,-7.9629,0.0,0.0,0.0,0.0,0.0,0.0,0.0,0.0,0.0,-6.2869,-6.1673,0.0,-7.4431,0.0,-7.9745,-8.1792,-8.0895,-8.1971,0.0,0.0,-8.2415,-8.1925,-8.1368,-8.3633,-8.5936,-8.7635,-8.9561,-9.0807,-9.0769,-9.2582,-9.4718,-9.6724,-9.458,-9.4505,-9.9218,-9.6174,-9.5397,-10.0767,-10.3351,-10.3842,-10.2286,-10.0345,-9.8734,-9.701,-9.5805,-9.53,-9.6598,-9.5691,-9.5274,-9.637,-9.5691,-9.5425,-9.6636,-9.6788,-9.7129,-9.7209,-9.555,-9.3743,-9.3829,-9.422,-9.4455,-7.7687,-7.743,-7.2024,-7.0024,-7.0653,-7.1343,-7.2578,-7.3964,-7.3978,-7.4011,-7.4011,-7.4011,-7.3871,-7.365,-7.338,0.0,-7.3697,-7.4299,-7.4749,-7.5281,-7.5858,-7.6236,-7.6398,-7.7807,-7.8359,-7.835,-7.9283,-7.9754,-7.9802,-7.9233,-7.9731,-8.121,-7.9494,-7.9359,-8.0753,-8.1078,-7.9851,-7.7028,-7.9778,-8.0218,-7.8186,-7.9349,-8.0896,-8.2715,-8.1279,-8.281,-8.7505,-8.8362,-8.7864,-8.6219,-8.6492,-8.3915,-7.7874,0.0,0.0,0.0,0.0,0.0,0.0,0.0,0.0,0.0,0.0,0.0,0.0,0.0,0.0,-6.5724,-7.152,0.0,-7.7226,-7.7527,0.0,0.0,0.0,-7.5631,-7.661,-7.8725,-8.0952,-8.3105,0.0,0.0,-8.7484,-9.0203,-9.1746,-9.0557,-8.8815,-8.9497,-9.4532,-9.2181,-9.1114,-9.5243,-10.0527,-10.2135,-9.6928,-9.6744,-9.677,-9.5093,-9.4974,-9.4587,-9.4735,-9.4591,-9.4742,-9.4818,-9.4894,-9.478,-9.497,-9.4591,-9.4173,-9.1214,-9.0458,-9.0272,-9.0211,-9.129,-9.2249,-7.1692,-6.9108,-6.6788,-6.5542,-6.5108,-6.5584,-6.689,-6.8725,-6.8432,-6.9022,-7.0244,-6.9792,-6.8936,-6.7866,-6.7745,0.0,0.0,0.0,-7.0523,-7.2172,-7.3338,-7.4755,-7.6405,-7.7537,-7.8008,-7.8046,-7.8945,-7.9342,-7.927,-7.8347,-7.72,-7.5764,0.0,-7.4735,-7.6448,-7.7319,-7.7123,-7.5962,-7.8265,-7.949,-7.9356,-8.0914,-8.2565,-8.4196,-8.2889,-8.354,-8.6554,-8.7118,-8.659,-8.4939,-8.3173,-7.9215,0.0,0.0,0.0,0.0,0.0,0.0,0.0,0.0,0.0,0.0,0.0,-4.6098,-4.6179,0.0,0.0,0.0,-6.1783,-6.539,-6.9148,-7.3077,0.0,0.0,0.0,0.0,0.0,0.0,0.0,-7.6346,-7.9971,-8.2878,-8.3897,-8.4275,-8.4992,-8.6406,-8.517,-8.6332,-9.2309,0.0,-8.8522,-9.389,-9.6878,-9.7251,-9.3752,-9.4567,-9.442,-9.0885,-8.9528,-8.9183,-9.0117,-8.9506,-8.9279,-9.0,-8.9544,-8.9165,-9.0189,-8.7837,-8.5295,-8.416,-8.39,-8.3911,-8.392,-8.5221,-8.6406,-6.42,0.0,0.0,0.0,0.0,-5.9534,-6.0831,-6.2662,-6.2326,-6.3036,-6.4479,-6.3943,0.0,0.0,0.0,0.0,0.0,0.0,-6.7263,-6.9591,-7.1516,-7.3469,-7.5328,-7.5591,-7.5625,-7.5695,-7.6923,-7.7152,-7.64,-7.4052,-7.1816,-6.9799,0.0,0.0,0.0,0.0,-7.6062,-7.5361,-7.8525,-8.0414,-8.0777,-8.1808,-8.3186,-8.4988,-8.3174,-8.324,-8.5376,-8.4887,-8.4053,-8.2774,-7.8287,0.0,0.0,0.0,0.0,0.0,0.0,0.0,0.0,0.0,0.0,0.0,0.0,0.0,0.0,0.0,0.0,0.0,0.0,0.0,-6.0561,-6.6536,-6.9881,0.0,0.0,0.0,0.0,0.0,0.0,0.0,0.0,0.0,-7.922,-7.8184,-7.889,0.0,0.0,-8.2341,-8.8492,-8.5934,-8.5373,-9.1018,-9.266,0.0,-9.043,-9.111,-9.0668,-8.7203,-8.5268,-8.4611,-8.5819,-8.4643,-8.4039,-8.5736,-8.4643,-8.3853,-8.4839,-8.2297,-7.9986,-7.9303,-7.9577,-7.9779,-7.9448,-8.0556,-8.1738,0.0,0.0,0.0,0.0,-5.2966,0.0,0.0,0.0,-5.6087,-5.6156,0.0,-5.6218,0.0,0.0,0.0,0.0,-5.8007,-6.2442,0.0,0.0,-7.0491,-7.2237,-7.2255,-7.094,-7.0268,-7.0333,-7.2251,-7.2058,-6.9789,-6.474,-6.2628,0.0,0.0,0.0,0.0,0.0,-7.828,-7.548,-8.17,-8.3972,-8.1498,-8.1017,-8.1732,-8.3658,-8.0673,-8.0705,-8.405,-8.1241,-7.9486,-7.9335,-7.1691,0.0,0.0,0.0,0.0,0.0,0.0,0.0,0.0,0.0,0.0,0.0,0.0,0.0,0.0,0.0,0.0,0.0,0.0,0.0,0.0,-5.6976,0.0,0.0,0.0,0.0,0.0,0.0,0.0,0.0,0.0,-7.5961,-7.3022,-7.2645,-7.4387,-7.9347,0.0,0.0,0.0,0.0,-8.1235,-8.4663,-8.7858,-8.8827,-8.5677,-8.5252,-8.5268,-8.4967,0.0,0.0,-8.256,-8.1215,-8.0621,-8.2248,-8.129,-8.01,-8.01,-7.9679,-7.9072,-7.7668,-7.8316,-7.9162,-7.8079,-7.831,-7.9606,0.0,0.0,0.0,0.0,0.0,0.0,0.0,0.0,0.0,-5.09,-5.2045,-5.0737,0.0,0.0,0.0,0.0,0.0,0.0,0.0,0.0,-6.3673,-6.5627,-6.4925,-6.7491,-6.7065,-6.4207,-6.5797,-6.359,0.0,0.0,0.0,0.0,0.0,0.0,0.0,0.0,-7.5126,-7.4269,-7.999,-8.266,-8.172,-8.1596,-8.1847,-8.2473,-8.1429,-8.0951,-8.1064,-7.6825,-7.497,0.0,0.0,0.0,0.0,0.0,0.0,0.0,0.0,0.0,0.0,0.0,0.0,0.0,0.0,0.0,0.0,0.0,0.0,0.0,0.0,0.0,0.0,0.0,-5.455,0.0,0.0,0.0,0.0,0.0,0.0,0.0,0.0,0.0,-6.7494,-6.928,-7.1734,-7.4602,-7.4904,-7.5844,-7.8724,0.0,0.0,0.0,0.0,0.0,0.0,0.0,-8.2536,-8.0331,-8.0323,-8.0263,-7.9189,-7.8576,-7.8436,-7.9029,0.0,0.0,-7.4083,-7.3366,-7.3264,-7.2657,-7.2129,-7.1643,-7.1087,-7.2207,-7.3631,0.0,0.0,0.0,0.0,0.0,0.0,0.0,0.0,0.0,-4.3489,-4.4686,0.0,0.0,0.0,0.0,0.0,0.0,0.0,0.0,0.0,0.0,0.0,-5.9407,-6.2065,0.0,0.0,0.0,0.0,0.0,0.0,0.0,0.0,0.0,0.0,0.0,0.0,-7.1271,-7.2127,-7.8487,-8.1938,-8.19,-8.1413,-8.1413,-8.19,-8.1451,-8.0337,-7.8536,0.0,0.0,0.0,0.0,0.0,0.0,0.0,0.0,0.0,0.0,0.0,0.0,0.0,0.0,0.0,0.0,0.0,0.0,0.0,0.0,0.0,0.0,0.0,0.0,0.0,-4.6971,0.0,0.0,0.0,0.0,0.0,0.0,0.0,0.0,0.0,0.0,-6.4755,-6.7726,-7.1068,-7.2002,-7.3159,-7.538,-7.4255,-7.4804,0.0,0.0,0.0,0.0,0.0,0.0,0.0,0.0,0.0,0.0,0.0,0.0,0.0,-7.5215,-7.3449,-6.8949,-6.8197,-6.8104,-6.7576,0.0,0.0,0.0,0.0,0.0,0.0,0.0,0.0,0.0,0.0,0.0,0.0,0.0,0.0,0.0,-3.4014,0.0,0.0,-3.3991,0.0,0.0,0.0,0.0,0.0,0.0,0.0,0.0,0.0,0.0,0.0,0.0,0.0,0.0,0.0,0.0,0.0,0.0,0.0,0.0,0.0,0.0,-6.7027,-6.9044,-7.7441,-8.1915,-8.1924,-8.0367,-8.0329,-8.1811,-8.0329,-7.864,-7.6858,0.0,0.0,0.0,0.0,0.0,0.0,0.0,0.0,0.0,0.0,0.0,0.0,0.0,0.0,0.0,0.0,0.0,0.0,0.0,0.0,0.0,0.0,0.0,0.0,0.0,0.0,-4.0208,-4.4393,-4.8513,0.0,0.0,0.0,0.0,0.0,0.0,0.0,0.0,0.0,-6.8814,-6.8449,-6.8665,-7.1778,-7.0974,-7.1273,-7.4462,-7.7571,-7.8523,-7.5321,-7.5003,-7.5516,0.0,0.0,0.0,0.0,0.0,0.0,0.0,0.0,0.0,0.0,0.0,0.0,0.0,0.0,0.0,0.0,0.0,0.0,0.0,0.0,0.0,0.0,0.0,0.0,0.0,0.0,0.0,0.0,0.0,0.0,0.0,0.0,0.0,0.0,0.0,0.0,0.0,0.0,0.0,0.0,0.0,0.0,0.0,0.0,0.0,0.0,0.0,0.0,0.0,0.0,0.0,0.0,0.0,0.0,-6.4406,-6.7377,-7.4773,-7.9225,-8.0363,-7.9908,-7.987,-8.0325,-7.8766,-7.6548,0.0,0.0,0.0,0.0,0.0,0.0,0.0,0.0,0.0,0.0,0.0,0.0,0.0,0.0,0.0,0.0,0.0,0.0,0.0,0.0,0.0,0.0,0.0,0.0,0.0,0.0,0.0,0.0,-4.5063,-4.6815,-4.5401,0.0,0.0,0.0,0.0,0.0,0.0,0.0,0.0,0.0,0.0,-6.7811,-6.8756,-6.9441,-7.0626,-7.2768,-7.3009,-7.3017,-7.3047,-7.3166,-7.2979,-7.2206,0.0,0.0,0.0,0.0,0.0,0.0,0.0,0.0,0.0,0.0,0.0,0.0,0.0,0.0,0.0,0.0,0.0,0.0,0.0,0.0,0.0,0.0,0.0,0.0,0.0,0.0,0.0,0.0,0.0,0.0,0.0,0.0,0.0,0.0,0.0,0.0,0.0,0.0,0.0,0.0,0.0,0.0,0.0,0.0,0.0,0.0,0.0,0.0,0.0,0.0,0.0,0.0,0.0,-6.1506,-6.4986,-7.3025,-7.766,-7.869,-7.9338,-7.9682,-7.9682,-7.8045,-7.5335,0.0,0.0,0.0,0.0,0.0,0.0,0.0,0.0,0.0,0.0,0.0,0.0,0.0,0.0,0.0,0.0,0.0,0.0,0.0,0.0,0.0,0.0,0.0,0.0,0.0,0.0,0.0,0.0,-4.1537,-4.3665,-4.3948,0.0,0.0,0.0,0.0,0.0,0.0,0.0,0.0,0.0,0.0,-6.5268,-6.7187,-6.7718,0.0,0.0,-7.0574,-7.0094,-7.0409,-6.9958,-6.947,-6.897,-6.8363,0.0,0.0,0.0,0.0,0.0,0.0,0.0,0.0,0.0,0.0,0.0,0.0,0.0,0.0,0.0,0.0,0.0,0.0,0.0,0.0,0.0,0.0,0.0,0.0,0.0,0.0,0.0,0.0,0.0,0.0,0.0,0.0,0.0,0.0,0.0,0.0,0.0,0.0,0.0,0.0,0.0,0.0,0.0,0.0,0.0,0.0,0.0,0.0,0.0,0.0,0.0,0.0,-5.8611,-6.2395,-7.1979,-7.6988,-7.7067,-7.8666,-7.9503,-7.9349,-7.7753,-7.4513,0.0,0.0,0.0,0.0,0.0,0.0,0.0,0.0,0.0,0.0,0.0,0.0,0.0,0.0,0.0,0.0,0.0,0.0,0.0,0.0,0.0,0.0,0.0,0.0,0.0,0.0,0.0,0.0,0.0,0.0,0.0,0.0,0.0,0.0,0.0,0.0,0.0,0.0,0.0,0.0,0.0,-6.1443,-6.6274,-6.5843,-6.6094,0.0,-6.9769,-6.934,-6.7537,-6.5886,-6.526,-6.668,0.0,0.0,0.0,0.0,0.0,0.0,0.0,0.0,0.0,0.0,0.0,0.0,0.0,0.0,0.0,0.0,0.0,0.0,0.0,0.0,0.0,0.0,0.0,0.0,0.0,0.0,0.0,0.0,0.0,0.0,0.0,0.0,0.0,0.0,0.0,0.0,0.0,0.0,0.0,0.0,0.0,0.0,0.0,0.0,0.0,0.0,0.0,0.0,0.0,0.0,0.0,0.0,0.0,0.0,-6.2371,-7.0954,-7.5438,-7.5496,-7.7055,-7.74,-7.6226,-7.455,0.0,0.0,0.0,0.0,0.0,0.0,0.0,0.0,0.0,0.0,0.0,0.0,0.0,0.0,0.0,0.0,0.0,0.0,0.0,0.0,0.0,0.0,0.0,0.0,0.0,0.0,0.0,-2.7902,0.0,0.0,0.0,0.0,0.0,0.0,0.0,0.0,0.0,0.0,0.0,0.0,0.0,0.0,-5.8904,-6.1423,-6.4232,-6.6084,0.0,0.0,-6.8935,-6.6,-6.4119,-6.2767,0.0,0.0,0.0,0.0,0.0,0.0,0.0,0.0,0.0,0.0,0.0,0.0,0.0,0.0,0.0,0.0,0.0,0.0,0.0,0.0,0.0,0.0,0.0,0.0,0.0,0.0,0.0,0.0,0.0,0.0,0.0,0.0,0.0,0.0,0.0,0.0,0.0,0.0,0.0,0.0,0.0,0.0,0.0,0.0,0.0,0.0,0.0,0.0,0.0,0.0,0.0,0.0,0.0,0.0,-5.6094,-6.1221,-6.9399,-7.3603,-7.3564,-7.5804,-7.6277,-7.474,-7.3046,-6.9518,0.0,0.0,0.0,0.0,0.0,0.0,0.0,0.0,0.0,0.0,0.0,0.0,0.0,0.0,0.0,0.0,0.0,0.0,0.0,0.0,0.0,0.0,0.0,0.0,0.0,0.0,0.0,0.0,0.0,0.0,0.0,0.0,0.0,0.0,0.0,0.0,0.0,0.0,0.0,0.0,0.0,0.0,-5.9541,-6.2838,0.0,0.0,0.0,-6.6322,-6.4135,0.0,0.0,0.0,0.0,0.0,0.0,0.0,0.0,0.0,0.0,0.0,0.0,0.0,0.0,0.0,0.0,0.0,0.0,0.0,0.0,0.0,0.0,0.0,0.0,0.0,0.0,0.0,0.0,0.0,0.0,0.0,0.0,0.0,0.0,0.0,0.0,0.0,0.0,0.0,0.0,0.0,0.0,0.0,0.0,0.0,0.0,0.0,0.0,0.0,0.0,0.0,0.0,0.0,0.0,0.0,0.0,0.0,-5.96,-6.762,-7.1697,-7.1588,-7.4453,-7.5301,-7.3688,-7.2021,-6.8258,0.0,0.0,0.0,0.0,0.0,0.0,0.0,0.0,0.0,0.0,0.0,0.0,0.0,0.0,0.0,0.0,0.0,0.0,0.0,0.0,0.0,0.0,0.0,0.0,0.0,0.0,0.0,0.0,0.0,0.0,0.0,0.0,0.0,0.0,0.0,0.0,0.0,0.0,0.0,0.0,0.0,-5.5402,-5.8563,-6.1019,-6.2269,0.0,0.0,-6.2302,-6.1663,-5.8703,0.0,0.0,0.0,0.0,0.0,0.0,0.0,0.0,0.0,0.0,0.0,0.0,0.0,0.0,0.0,0.0,0.0,0.0,0.0,0.0,0.0,0.0,0.0,0.0,0.0,0.0,0.0,0.0,0.0,0.0,0.0,0.0,0.0,0.0,0.0,0.0,0.0,0.0,0.0,0.0,0.0,0.0,0.0,0.0,0.0,0.0,0.0,0.0,0.0,0.0,0.0,0.0,0.0,0.0,0.0,0.0,-5.9515,-6.6482,-6.9958,-6.9788,-7.1672,-7.1889,-7.0297,-6.8611,-6.5301,0.0,0.0,0.0,0.0,0.0,0.0,0.0,0.0,0.0,0.0,0.0,0.0,0.0,0.0,0.0,0.0,0.0,0.0,0.0,0.0,0.0,0.0,0.0,0.0,0.0,0.0,0.0,0.0,0.0,0.0,0.0,0.0,0.0,0.0,0.0,0.0,0.0,0.0,0.0,0.0,0.0,-5.1554,-5.369,-5.6469,0.0,0.0,0.0,0.0,-5.6696,-5.3686,0.0,0.0,0.0,0.0,0.0,0.0,0.0,0.0,0.0,0.0,0.0,0.0,0.0,0.0,0.0,0.0,0.0,0.0,0.0,0.0,0.0,0.0,0.0,0.0,0.0,0.0,0.0,0.0,0.0,0.0,0.0,0.0,0.0,0.0,0.0,0.0,0.0,0.0,0.0,0.0,0.0,0.0,0.0,0.0,0.0,0.0,0.0,0.0,0.0,0.0,0.0,0.0,0.0,0.0,0.0,0.0,-5.9374,-6.5185,-6.8375,-6.8886,-7.0484,-7.0585,-6.8961,-6.7301,-6.417,0.0,0.0,0.0,0.0,0.0,0.0,0.0,0.0,0.0,0.0,0.0,0.0,0.0,0.0,0.0,0.0,0.0,0.0,0.0,0.0,0.0,0.0,0.0,0.0,0.0,0.0,0.0,0.0,0.0,0.0,0.0,0.0,0.0,0.0,0.0,0.0,0.0,0.0,0.0,0.0,-4.7052,-4.9277,-5.101,0.0,0.0,0.0,0.0,0.0,0.0,-5.0926,-4.903,0.0,0.0,0.0,0.0,0.0,0.0,0.0,0.0,0.0,0.0,0.0,0.0,0.0,0.0,0.0,0.0,0.0,0.0,0.0,0.0,0.0,0.0,0.0,0.0,0.0,0.0,0.0,0.0,0.0,0.0,0.0,0.0,0.0,0.0,0.0,0.0,0.0,0.0,0.0,0.0,0.0,0.0,0.0,0.0,0.0,0.0,0.0,0.0,0.0,0.0,0.0,0.0,0.0,0.0,0.0,-5.8829,-6.3472,-6.6747,-6.8383,-6.9799,-6.9906,-6.861,-6.6965,-6.3762,-5.8826,0.0,0.0,0.0,0.0,0.0,0.0,0.0,0.0,0.0,0.0,0.0,0.0,0.0,0.0,0.0,0.0,0.0,0.0,0.0,0.0,0.0,0.0,0.0,0.0,0.0,0.0,0.0,0.0,0.0,0.0,0.0,0.0,0.0,0.0,0.0,0.0,0.0,0.0,0.0,-4.4529,-4.6535,0.0,0.0,0.0,0.0,0.0,0.0,0.0,0.0,-4.6972,0.0,0.0,0.0,0.0,0.0,0.0,0.0,0.0,0.0,0.0,0.0,0.0,0.0,0.0,0.0,0.0,0.0,0.0,0.0,0.0,0.0,0.0,0.0,0.0,0.0,0.0,0.0,0.0,0.0,0.0,0.0,0.0,0.0,0.0,0.0,0.0,0.0,0.0,0.0,0.0,0.0,0.0,0.0,0.0,0.0,0.0,0.0,0.0,0.0,0.0,0.0,0.0,0.0,0.0,0.0,0.0,-6.0726,-6.4486,-6.825,-6.8664,-6.8702,-6.842,-6.6935,-6.318,-5.7019,0.0,0.0,0.0,0.0,0.0,0.0,0.0,0.0,0.0,0.0,0.0,0.0,0.0,0.0,0.0,0.0,0.0,0.0,0.0,0.0,0.0,0.0,0.0,0.0,0.0,0.0,0.0,0.0,0.0,0.0,0.0,0.0,0.0,0.0,0.0,0.0,0.0,0.0,-3.4216,-3.6879,0.0,0.0,0.0,0.0,0.0,0.0,0.0,0.0,-4.4343,0.0,0.0,0.0,0.0,0.0,0.0,0.0,0.0,0.0,0.0,0.0,0.0,0.0,0.0,0.0,0.0,0.0,0.0,0.0,0.0,0.0,0.0,0.0,0.0,0.0,0.0,0.0,0.0,0.0,0.0,0.0,0.0,0.0,0.0,0.0,0.0,0.0,0.0,0.0,0.0,0.0,0.0,0.0,0.0,0.0,0.0,0.0,0.0,0.0,0.0,0.0,0.0,0.0,0.0,0.0,0.0,0.0,0.0,-6.3597,-6.7143,-6.8163,-6.8179,-6.7157,-6.4795,-6.1247,0.0,0.0,0.0,0.0,0.0,0.0,0.0,0.0,0.0,0.0,0.0,0.0,0.0,0.0,0.0,0.0,0.0,0.0,0.0,0.0,0.0,0.0,0.0,0.0,0.0,0.0,0.0,0.0,0.0,0.0,0.0,0.0,0.0,0.0,0.0,0.0,0.0,0.0,0.0,0.0,0.0,0.0,0.0,0.0,0.0,0.0,0.0,0.0,0.0,0.0,0.0,0.0,0.0,0.0,0.0,0.0,0.0,0.0,0.0,0.0,0.0,0.0,0.0,0.0,0.0,0.0,0.0,0.0,0.0,0.0,0.0,0.0,0.0,0.0,0.0,0.0,0.0,0.0,0.0,0.0,0.0,0.0,0.0,0.0,0.0,0.0,0.0,0.0,0.0,0.0,0.0,0.0,0.0,0.0,0.0,0.0,0.0,0.0,0.0,0.0,0.0,0.0,0.0,0.0,0.0,0.0,0.0,0.0,-6.2351,-6.5637,-6.7357,-6.7372,-6.5597,-6.2729,-5.9377,0.0,0.0,0.0,0.0,0.0,0.0,0.0,0.0,0.0,0.0,0.0,0.0,0.0,0.0,0.0,0.0,0.0,0.0,0.0,0.0,0.0,0.0,0.0,0.0,0.0,0.0,0.0,0.0,0.0,0.0,0.0,0.0,0.0,0.0,0.0,0.0,0.0,0.0,0.0,0.0,0.0,0.0,0.0,0.0,0.0,0.0,0.0,0.0,-3.9366,0.0,0.0,0.0,0.0,0.0,0.0,0.0,0.0,0.0,0.0,0.0,0.0,0.0,0.0,0.0,0.0,0.0,0.0,0.0,0.0,0.0,0.0,0.0,0.0,0.0,0.0,0.0,0.0,0.0,0.0,0.0,0.0,0.0,0.0,0.0,0.0,0.0,0.0,0.0,0.0,0.0,0.0,0.0,0.0,0.0,0.0,0.0,0.0,0.0,0.0,0.0,0.0,0.0,0.0,0.0,0.0,0.0,0.0,0.0,-5.943,-6.3732,-6.5516,-6.559,-6.3859,-6.2134,-5.8335,0.0,0.0,0.0,0.0,0.0,0.0,0.0,0.0,0.0,0.0,0.0,0.0,0.0,0.0,0.0,0.0,0.0,0.0,0.0,0.0,0.0,0.0,0.0,0.0,0.0,0.0,0.0,0.0,0.0,0.0,0.0,0.0,0.0,0.0,0.0,0.0,0.0,0.0,0.0,0.0,0.0,0.0,0.0,0.0,0.0,0.0,0.0,0.0,0.0,0.0,0.0,0.0,0.0,0.0,0.0,0.0,0.0,0.0,0.0,0.0,0.0,0.0,0.0,0.0,0.0,0.0,0.0,0.0,0.0,0.0,0.0,0.0,0.0,0.0,0.0,0.0,0.0,0.0,0.0,0.0,0.0,0.0,0.0,0.0,0.0,0.0,0.0,0.0,0.0,0.0,0.0,0.0,0.0,0.0,0.0,0.0,0.0,0.0,0.0,0.0,0.0,0.0,0.0,0.0,0.0,0.0,0.0,0.0,-5.6755,-5.948,-6.3036,-6.3081,-5.9472,-5.7889,-5.5296,0.0,0.0,0.0,0.0,0.0,0.0,0.0,0.0,0.0,0.0,0.0,0.0,0.0,0.0,0.0,0.0,0.0,0.0,0.0,0.0,0.0,0.0,0.0,0.0,0.0,0.0,0.0,0.0,0.0,0.0,0.0,0.0,0.0,0.0,0.0,0.0,0.0,0.0,0.0,0.0,0.0,0.0,0.0,0.0,0.0,0.0,0.0,0.0,0.0,0.0,0.0,0.0,0.0,0.0,0.0,0.0,0.0,0.0,0.0,0.0,0.0,0.0,0.0,0.0,0.0,0.0,0.0,0.0,0.0,0.0,0.0,0.0,0.0,0.0,0.0,0.0,0.0,0.0,0.0,0.0,0.0,0.0,0.0,0.0,0.0,0.0,0.0,0.0,0.0,0.0,0.0,0.0,0.0,0.0,0.0,0.0,0.0,0.0,0.0,0.0,0.0,0.0,0.0,0.0,0.0,0.0,0.0,0.0,0.0,-5.5381,-5.925,-5.9542,-5.5842,-5.3781,-5.1952,0.0,0.0,0.0,0.0,0.0,0.0,0.0,0.0,0.0,0.0,0.0,0.0,0.0,0.0,0.0,0.0,0.0,0.0,0.0,0.0,0.0,0.0,0.0,0.0,0.0,0.0,0.0,0.0,0.0,0.0,0.0,0.0,0.0,0.0,0.0,0.0,0.0,0.0,0.0,0.0,0.0,0.0,0.0,0.0,0.0,0.0,0.0,0.0,0.0,0.0,0.0,0.0,0.0,0.0,0.0,0.0,0.0,0.0,0.0,0.0,0.0,0.0,0.0,0.0,0.0,0.0,0.0,0.0,0.0,0.0,0.0,0.0,0.0,0.0,0.0,0.0,0.0,0.0,0.0,0.0,0.0,0.0,0.0,0.0,0.0,0.0,0.0,0.0,0.0,0.0,0.0,0.0,0.0,0.0,0.0,0.0,0.0,0.0,0.0,0.0,0.0,0.0,0.0,0.0,0.0,0.0,0.0,0.0,0.0,-5.2002,-5.3569,-5.4305,-5.3921,-5.0954,-4.856,0.0,0.0,0.0,0.0,0.0,0.0,0.0,0.0,0.0,0.0,0.0,0.0,0.0,0.0,0.0,0.0,0.0,0.0,0.0,0.0,0.0,0.0,0.0,0.0,0.0,0.0,0.0,0.0,0.0,0.0,0.0,0.0,0.0,0.0,0.0,0.0,0.0,0.0,0.0,0.0,0.0,0.0,0.0,0.0,0.0,0.0,0.0,0.0,0.0,0.0,0.0,0.0,0.0,0.0,0.0,0.0,0.0,0.0,0.0,0.0,0.0,0.0,0.0,0.0,0.0,0.0,0.0,0.0,0.0,0.0,0.0,0.0,0.0,0.0,0.0,0.0,0.0,0.0,0.0,0.0,0.0,0.0,0.0,0.0,0.0,0.0,0.0,0.0,0.0,0.0,0.0,0.0,0.0,0.0,0.0,0.0,0.0,0.0,0.0,0.0,0.0,0.0,0.0,0.0,0.0,0.0,0.0,0.0,0.0,-4.7386,-5.0575,-5.238,-5.2399,-5.0259,-4.7855,-4.5104,0.0,0.0,0.0,0.0,0.0,0.0,0.0,0.0,0.0,0.0,0.0,0.0,0.0,0.0,0.0,0.0,0.0,0.0,0.0,0.0,0.0,0.0,0.0,0.0,0.0,0.0,0.0,0.0,0.0,0.0,0.0,0.0,0.0,0.0,0.0,0.0,0.0,0.0,0.0,0.0,0.0,0.0,0.0,0.0,0.0,0.0,0.0,0.0,0.0,0.0,0.0,0.0,0.0,0.0,0.0,0.0,0.0,0.0,0.0,0.0,0.0,0.0,0.0,0.0,0.0,0.0,0.0,0.0,0.0,0.0,0.0,0.0,0.0,0.0,0.0,0.0,0.0,0.0,0.0,0.0,0.0,0.0,0.0,0.0,0.0,0.0,0.0,0.0,0.0,0.0,0.0,0.0,0.0,0.0,0.0,0.0,0.0,0.0,0.0,0.0,0.0,0.0,0.0,0.0,0.0,0.0,0.0,0.0,-4.3789,-4.7855,-5.0056,-4.9979,-4.8035,-4.558,0.0,0.0,0.0,0.0,0.0,0.0,0.0,0.0,0.0,0.0,0.0,0.0,0.0,0.0,0.0,0.0,0.0,0.0,0.0,0.0,0.0,0.0,0.0,0.0,0.0,0.0,0.0,0.0,0.0,0.0,0.0,0.0,0.0,0.0,0.0,0.0,0.0,0.0,0.0,0.0,0.0,0.0,0.0,0.0,0.0,0.0,0.0,0.0,0.0,0.0,0.0,0.0,0.0,0.0,0.0,0.0,0.0,0.0,0.0,0.0,0.0,0.0,0.0,0.0,0.0,0.0,0.0,0.0,0.0,0.0,0.0,0.0,0.0,0.0,0.0,0.0,0.0,0.0,0.0,0.0,0.0,0.0,0.0,0.0,0.0,0.0,0.0,0.0,0.0,0.0,0.0,0.0,0.0,0.0,0.0,0.0,0.0,0.0,0.0,0.0,0.0,0.0,0.0,0.0,0.0,0.0,0.0,0.0,-3.578,-4.1936,-4.5124,-4.6849,-4.6845,-4.3853,-4.1266,0.0,0.0,0.0,0.0,0.0,0.0,0.0,0.0,0.0,0.0,0.0,0.0,0.0,0.0,0.0,0.0,0.0,0.0,0.0,0.0,0.0,0.0,0.0,0.0,0.0,0.0,0.0,0.0,0.0,0.0,0.0,0.0,0.0,0.0,0.0,0.0,0.0,0.0,0.0,0.0,0.0,0.0,0.0,0.0,0.0,0.0,0.0,0.0,0.0,0.0,0.0,0.0,0.0,0.0,0.0,0.0,0.0,0.0,0.0,0.0,0.0,0.0,0.0,0.0,0.0,0.0,0.0,0.0,0.0,0.0,0.0,0.0,0.0,0.0,0.0,0.0,0.0,0.0,0.0,0.0,0.0,0.0,0.0,0.0,0.0,0.0,0.0,0.0,0.0,0.0,0.0,0.0,0.0,0.0,0.0,0.0,0.0,0.0,0.0,0.0,0.0,0.0,0.0,0.0,0.0,0.0,0.0,0.0,0.0,-3.7069,0.0,-4.5134,-4.5223,-4.421,-4.1818,0.0,0.0,0.0,0.0,0.0,0.0,0.0,0.0,0.0,0.0,0.0,0.0,0.0,0.0,0.0,0.0,0.0,0.0,0.0,0.0,0.0,0.0,0.0,0.0,0.0,0.0,0.0,0.0,0.0,0.0,0.0,0.0,0.0,0.0,0.0,0.0,0.0,0.0,0.0,0.0,0.0,0.0,0.0,0.0,0.0,0.0,0.0,0.0,0.0,0.0,0.0,0.0,0.0,0.0,0.0,0.0,0.0,0.0,0.0,0.0,0.0,0.0,0.0,0.0,0.0,0.0,0.0,0.0,0.0,0.0,0.0,0.0,0.0,0.0,0.0,0.0,0.0,0.0,0.0,0.0,0.0,0.0,0.0,0.0,0.0,0.0,0.0,0.0,0.0,0.0,0.0,0.0,0.0,0.0,0.0,0.0,0.0,0.0,0.0,0.0,0.0,0.0,0.0,0.0,0.0,0.0,0.0,0.0,0.0,-3.6416,-3.9883,-4.2621,-4.4435,-4.2727,-4.0327,0.0,0.0,0.0,0.0,0.0,0.0,0.0,0.0,0.0,0.0,0.0,0.0,0.0,0.0,0.0,0.0,0.0,0.0,0.0,0.0,0.0,0.0,0.0,0.0,0.0,0.0,0.0,0.0,0.0,0.0,0.0,0.0,0.0,0.0,0.0,0.0,0.0,0.0,0.0,0.0,0.0,0.0,0.0,0.0,0.0,0.0,0.0,0.0,0.0,0.0,0.0,0.0,0.0,0.0,0.0,0.0,0.0,0.0,0.0,0.0,0.0,0.0,0.0,0.0,0.0,0.0,0.0,0.0,0.0,0.0,0.0,0.0,0.0,0.0,0.0,0.0,0.0,0.0,0.0,0.0,0.0,0.0,0.0,0.0,0.0,0.0,0.0,0.0,0.0,0.0,0.0,0.0,0.0,0.0,0.0,0.0,0.0,0.0,0.0,0.0,0.0,0.0,0.0,0.0,0.0,0.0,0.0,0.0,0.0,-3.8866,-3.7711,-3.9332,-4.3974,-3.9545,-3.6929,0.0,0.0,0.0,0.0,0.0,0.0,0.0,0.0,0.0,0.0,0.0,0.0,0.0,0.0,0.0,0.0,0.0,0.0,0.0,0.0,0.0,0.0,0.0,0.0,0.0,0.0,0.0,0.0,0.0,0.0,0.0,0.0,0.0,0.0,0.0,0.0,0.0,0.0,0.0,0.0,0.0,0.0,0.0,0.0,0.0,0.0,0.0,0.0,0.0,0.0,0.0,0.0,0.0,0.0,0.0,0.0,0.0,0.0,0.0,0.0,0.0,0.0,0.0,0.0,0.0,0.0,0.0,0.0,0.0,0.0,0.0,0.0,0.0,0.0,0.0,0.0,0.0,0.0,0.0,0.0,0.0,0.0,0.0,0.0,0.0,0.0,0.0,0.0,0.0,0.0,0.0,0.0,0.0,0.0,0.0,0.0,0.0,0.0,0.0,0.0,0.0,0.0,0.0,0.0,0.0,0.0,0.0,0.0,0.0,0.0,-3.3979,-3.5489,-3.89,-3.7822,-3.5957,-3.3536,0.0,0.0,0.0,0.0,0.0,0.0,0.0,0.0,0.0,0.0,0.0,0.0,0.0,0.0,0.0,0.0,0.0,0.0,0.0,0.0,0.0,0.0,0.0,0.0,0.0,0.0,0.0,0.0,0.0,0.0,0.0,0.0,0.0,0.0,0.0,0.0,0.0,0.0,0.0,0.0,0.0,0.0,0.0,0.0,0.0,0.0,0.0,0.0,0.0,0.0,0.0,0.0,0.0,0.0,0.0,0.0,0.0,0.0,0.0,0.0,0.0,0.0,0.0,0.0,0.0,0.0,0.0,0.0,0.0,0.0,0.0,0.0,0.0,0.0,0.0,0.0,0.0,0.0,0.0,0.0,0.0,0.0,0.0,0.0,0.0,0.0,0.0,0.0,0.0,0.0,0.0,0.0,0.0,0.0,0.0,0.0,0.0,0.0,0.0,0.0,0.0,0.0,0.0,0.0,0.0,0.0,0.0,0.0,0.0,0.0,-3.3547,-3.6044,-3.6759,-3.5872,0.0,0.0,0.0,0.0,0.0,0.0,0.0,0.0,0.0,0.0,0.0,0.0,0.0,0.0,0.0,0.0,0.0,0.0,0.0,0.0,0.0,0.0,0.0,0.0,0.0,0.0,0.0,0.0,0.0,0.0,0.0,0.0,0.0,0.0,0.0,0.0,0.0,0.0,0.0,0.0,0.0,0.0,0.0,0.0,0.0,0.0,0.0,0.0,0.0,0.0,0.0,0.0,0.0,0.0,0.0,0.0,0.0,0.0,0.0,0.0,0.0,0.0,0.0,0.0,0.0,0.0,0.0,0.0,0.0,0.0,0.0,0.0,0.0,0.0,0.0,0.0,0.0,0.0,0.0,0.0,0.0,0.0,0.0,0.0,0.0,0.0,0.0,0.0,0.0,0.0,0.0,0.0,0.0,0.0,0.0,0.0,0.0,0.0,0.0,0.0,0.0,0.0,0.0,0.0,0.0,0.0,0.0,0.0,0.0,0.0,0.0,-3.2912,-3.4163,-3.6246,0.0,-3.4586,0.0,0.0,0.0,0.0,0.0,0.0,0.0,0.0,0.0,0.0,0.0,0.0,0.0,0.0,0.0,0.0,0.0,0.0,0.0,0.0,0.0,0.0,0.0,0.0,0.0,0.0,0.0,0.0,0.0,0.0,0.0,0.0,0.0,0.0,0.0,0.0,0.0,0.0,0.0,0.0,0.0,0.0,0.0,0.0,0.0,0.0,0.0,0.0,0.0,0.0,0.0,0.0,0.0,0.0,0.0,0.0,0.0,0.0,0.0,0.0,0.0,0.0,0.0,0.0,0.0,0.0,0.0,0.0,0.0,0.0,0.0,0.0,0.0,0.0,0.0,0.0,0.0,0.0,0.0,0.0,0.0,0.0,0.0,0.0,0.0,0.0,0.0,0.0,0.0,0.0,0.0,0.0,0.0,0.0,0.0,0.0,0.0,0.0,0.0,0.0,0.0,0.0,0.0,0.0,0.0,0.0,0.0,0.0,0.0,0.0,0.0,0.0,-3.6197,-3.708,-3.2946,0.0,0.0,0.0,0.0,0.0,0.0,0.0,0.0,0.0,0.0,0.0,0.0,0.0,0.0,0.0,0.0,0.0,0.0,0.0,0.0,0.0,0.0,0.0,0.0,0.0,0.0,0.0,0.0,0.0,0.0,0.0,0.0,0.0,0.0,0.0,0.0,0.0,0.0,0.0,0.0,0.0,0.0,0.0,0.0,0.0,0.0,0.0,0.0,0.0,0.0,0.0,0.0,0.0,0.0,0.0,0.0,0.0,0.0,0.0,0.0,0.0,0.0,0.0,0.0,0.0,0.0,0.0,0.0,0.0,0.0,0.0,0.0,0.0,0.0,0.0,0.0,0.0,0.0,0.0,0.0,0.0,0.0,0.0,0.0,0.0,0.0,0.0,0.0,0.0,0.0,0.0,0.0,0.0,0.0,0.0,0.0,0.0,0.0,0.0,0.0,0.0,0.0,0.0,0.0,0.0,0.0,0.0,0.0,0.0,0.0,-3.3282,-3.0029,-3.4745,-3.5393,-3.1326,0.0,0.0,0.0,0.0,0.0,0.0,0.0,0.0,0.0,0.0,0.0,0.0,0.0,0.0,0.0,0.0,0.0,0.0,0.0,0.0,0.0,0.0,0.0,0.0,0.0,0.0,0.0,0.0,0.0,0.0,0.0,0.0,0.0,0.0,0.0,0.0,0.0,0.0,0.0,0.0,0.0,0.0,0.0,0.0,0.0,0.0,0.0,0.0,0.0,0.0,0.0,0.0,0.0,0.0,0.0,0.0,0.0,0.0,0.0,0.0,0.0,0.0,0.0,0.0,0.0,0.0,0.0,0.0,0.0,0.0,0.0,0.0,0.0,0.0,0.0,0.0,0.0,0.0,0.0,0.0,0.0,0.0,0.0,0.0,0.0,0.0,0.0,0.0,0.0,0.0,0.0,0.0,0.0,0.0,0.0,0.0,0.0,0.0,0.0,0.0,0.0,0.0,0.0,0.0,0.0,0.0,0.0,0.0,0.0,0.0,0.0,0.0,0.0,0.0,-3.1109,0.0,0.0,0.0,0.0,0.0,0.0,0.0,0.0,0.0,0.0,0.0,0.0,0.0,0.0,0.0,0.0,0.0,0.0,0.0,0.0,0.0,0.0,0.0,0.0,0.0,0.0,0.0,0.0,0.0,0.0,0.0,0.0,0.0,0.0,0.0,0.0,0.0,0.0,0.0,0.0,0.0,0.0,0.0,0.0,0.0,0.0,0.0,0.0,0.0,0.0,0.0,0.0,0.0,0.0,0.0,0.0,0.0,0.0,0.0,0.0,0.0,0.0,0.0,0.0,0.0,0.0,0.0,0.0,0.0,0.0,0.0,0.0,0.0,0.0,0.0,0.0,0.0,0.0,0.0,0.0,0.0,0.0,0.0,0.0,0.0,0.0,0.0,0.0,0.0,0.0,0.0,0.0,0.0,0.0,0.0,0.0,0.0,0.0,0.0,0.0,0.0,0.0,0.0,0.0,0.0,0.0,0.0,0.0,0.0,0.0,0.0,0.0,0.0,0.0,0.0,0.0,0.0,0.0,0.0,0.0,0.0,0.0,0.0,0.0,0.0,0.0,0.0,0.0,0.0,0.0,0.0,0.0,0.0,0.0,0.0,0.0,0.0,0.0,0.0,0.0,0.0,0.0,0.0,0.0,0.0,0.0,0.0,0.0,0.0,0.0,0.0,0.0,0.0,0.0,0.0,0.0,0.0,0.0,0.0,0.0,0.0,0.0,0.0,0.0,0.0,0.0,0.0,0.0,0.0,0.0,0.0,0.0,0.0,0.0,0.0,0.0,0.0,0.0,0.0,0.0,0.0,0.0,0.0,0.0,0.0,0.0,0.0,0.0,0.0,0.0,0.0,0.0,0.0,0.0,0.0,0.0,0.0,0.0,0.0,0.0,0.0,0.0,0.0,0.0,0.0,0.0,0.0,0.0,0.0,0.0,0.0,0.0,0.0,0.0,0.0,0.0,0.0,0.0,0.0,0.0,0.0,0.0,0.0,0.0,0.0,0.0,0.0,0.0,0.0,0.0,0.0,0.0,0.0,0.0,0.0,0.0,0.0,0.0,0.0,0.0,0.0,0.0,0.0,0.0,0.0,0.0,0.0,0.0,0.0,0.0,0.0,0.0,0.0,0.0,0.0,0.0,0.0,0.0,0.0,0.0,0.0,0.0,0.0,0.0,0.0,0.0,0.0,0.0,0.0,0.0,0.0,0.0,0.0,0.0,0.0,0.0,0.0,0.0,0.0,0.0,0.0,0.0,0.0,0.0,0.0,0.0,0.0,0.0,0.0,0.0,0.0,0.0,0.0,0.0,0.0,0.0,0.0,0.0,0.0,0.0,0.0,0.0,0.0,0.0,0.0,0.0,0.0,0.0,0.0,0.0,0.0,0.0,0.0,0.0,0.0,0.0,0.0,0.0,0.0,0.0,0.0,0.0,0.0,0.0,0.0,0.0,0.0,0.0,0.0,0.0,0.0,0.0,0.0,0.0,0.0,0.0,0.0,0.0,0.0,0.0,0.0,0.0,0.0,0.0,0.0,0.0,0.0,0.0,0.0,0.0,0.0,0.0,0.0,0.0,0.0,0.0,0.0,0.0,0.0,0.0,0.0,0.0,0.0,0.0,0.0,0.0,0.0,0.0,0.0,0.0,0.0,0.0,0.0,0.0,0.0,0.0,0.0,0.0,0.0,0.0,0.0,0.0,0.0,0.0,0.0,0.0,0.0,0.0,0.0,0.0,0.0,0.0,0.0,0.0,0.0,0.0,0.0,0.0,0.0,0.0,0.0,0.0,0.0,0.0,0.0,0.0,0.0,0.0,0.0,0.0,0.0,0.0,0.0,0.0,0.0,0.0,0.0,0.0,0.0,0.0,0.0,0.0,0.0,0.0,0.0,0.0,0.0,0.0,0.0,0.0,0.0,0.0,0.0,0.0,0.0,0.0,0.0,0.0,0.0,0.0,0.0,0.0,0.0,0.0,0.0,0.0,0.0,0.0,0.0,0.0,0.0,0.0,0.0,0.0,0.0,0.0,0.0,0.0,0.0,0.0,0.0,0.0,0.0,0.0,0.0,0.0,0.0,0.0,0.0,0.0,0.0,0.0,0.0,0.0,0.0,0.0,0.0,0.0,0.0,0.0,0.0,0.0,0.0,0.0,0.0,0.0,0.0,0.0,0.0,0.0,0.0,0.0,0.0,0.0,0.0,0.0,0.0,0.0,0.0,0.0,0.0,0.0,0.0,0.0,0.0,0.0,0.0,0.0,0.0,0.0,0.0,0.0,0.0,0.0,0.0,0.0,0.0,0.0,0.0,0.0,0.0,0.0,0.0,0.0,0.0,0.0,0.0,0.0,0.0,0.0,0.0,0.0,0.0,0.0,0.0,0.0,0.0,0.0,0.0,0.0,0.0,0.0,0.0,0.0,0.0,0.0,0.0,0.0,0.0,0.0,0.0,0.0,0.0,0.0,0.0,0.0,0.0,0.0,0.0,0.0,0.0,0.0,0.0,0.0,0.0,0.0,0.0,0.0,0.0,0.0,0.0,0.0,0.0,0.0,0.0,0.0,0.0,0.0,0.0,0.0,0.0,0.0,0.0,0.0,0.0,0.0,0.0,0.0,0.0,0.0,0.0,0.0,0.0,0.0,0.0,0.0,0.0,0.0,0.0,0.0,0.0,0.0,0.0,0.0,0.0,0.0,0.0,0.0,0.0,0.0,0.0,0.0,0.0,0.0,0.0,0.0,0.0,0.0,0.0,0.0,0.0,0.0,0.0,0.0,0.0,0.0,0.0,0.0,0.0,0.0,0.0,0.0,0.0,0.0,0.0,0.0,0.0,0.0,0.0,0.0,0.0,0.0,0.0,0.0,0.0,0.0,0.0,0.0,0.0,0.0,0.0,0.0,0.0,0.0,0.0,0.0,0.0,0.0,0.0,0.0,0.0,0.0,0.0,0.0,0.0,0.0,0.0,0.0,0.0,0.0,0.0,0.0,0.0,0.0,0.0,0.0,0.0,0.0,0.0,0.0,0.0,0.0,0.0,0.0,0.0,0.0,0.0,0.0,0.0,0.0,0.0,0.0,0.0,0.0,0.0,0.0,0.0,0.0,0.0,0.0,0.0,0.0,0.0,0.0,0.0,0.0,0.0,0.0,0.0,0.0,0.0,0.0,0.0,0.0,0.0,0.0,0.0,0.0,0.0,0.0,0.0,0.0,0.0,0.0,0.0,0.0,0.0,0.0,0.0,0.0,0.0,0.0,0.0,0.0,0.0,0.0,0.0,0.0,0.0,0.0,0.0,0.0,0.0,0.0,0.0,0.0,0.0,0.0,0.0,0.0,0.0,0.0,0.0,0.0,0.0,0.0,0.0,0.0,0.0,0.0,0.0,0.0,0.0,0.0,0.0,0.0,0.0,0.0,0.0,0.0,0.0,0.0,0.0,0.0,0.0,0.0,0.0,0.0,0.0,0.0,0.0,0.0,0.0,0.0,0.0,0.0,0.0,0.0,0.0,0.0,0.0,0.0,0.0,0.0,0.0,0.0,0.0,0.0,0.0,0.0,0.0,0.0,0.0,0.0,0.0,0.0,0.0,0.0,0.0,0.0,0.0,0.0,0.0,0.0,0.0,0.0,0.0,0.0,0.0,0.0,0.0,0.0,0.0,0.0,0.0,0.0,0.0,0.0,0.0,0.0,0.0,0.0,0.0,0.0,0.0,0.0,0.0,0.0,0.0,0.0,0.0,0.0,0.0,0.0,0.0,0.0,0.0,0.0,0.0,0.0,0.0,0.0,0.0,0.0,0.0,0.0,0.0,0.0,0.0,0.0,0.0,0.0,0.0,0.0,0.0,0.0,0.0,0.0,0.0,0.0,0.0,0.0,0.0,0.0,0.0,0.0,0.0,0.0,0.0,0.0,0.0,0.0,0.0,0.0,0.0,0.0,0.0,0.0,0.0,0.0,0.0,0.0,0.0,0.0,0.0,0.0,0.0,0.0,0.0,0.0,0.0,0.0,0.0,0.0,0.0,0.0,0.0,0.0,0.0,0.0,0.0,0.0,0.0,0.0,0.0,0.0,0.0,0.0,0.0,0.0,0.0,0.0,0.0,0.0,0.0,0.0,0.0,0.0,0.0,0.0,0.0,0.0,0.0,0.0,0.0,0.0,0.0,0.0,0.0,0.0,0.0,0.0,0.0,0.0,0.0,0.0,0.0,0.0,0.0,0.0,0.0,0.0,0.0,0.0,0.0,0.0,0.0,0.0,0.0,0.0,0.0,0.0,0.0,0.0,0.0,0.0,0.0,0.0,0.0,0.0,0.0,0.0,0.0,0.0,0.0,0.0,0.0,0.0,0.0,0.0,0.0,0.0,0.0,0.0,0.0,0.0,0.0,0.0]}],[{"header":{"parameterUnit":"kt","parameterCategory":2,"dx":1,"dy":1,"la1":29.587661999999998,"la2":31.0,"lo1":-88.76705300000003,"lo2":-86.6583820000003,"nx":115,"ny":88,"refTime":"2022-10-09T06:00:00:Z","depth":0,"parameterNumber":2,"parameterNumberName":"V-component_of_WINDS"},"data":[-4.3468,-4.226,-4.1524,-4.1033,-4.0281,-3.5883,-3.3497,-3.2252,-2.7853,-2.5199,-2.4951,-2.4823,-2.4823,-2.4823,-2.4823,-2.4823,-2.4823,-2.4823,-2.4823,-2.4823,-2.4567,-2.4311,-2.3926,-2.3413,-2.277,-2.187,-2.1219,-2.0962,-2.0866,-2.0945,-2.1176,-2.1545,-2.1248,-2.1624,-2.2039,-2.2158,-2.2191,-2.2204,-2.2224,-2.2323,-2.2343,-2.2158,-2.2072,-2.2099,-2.2184,-2.0309,-1.8163,-1.5573,-1.2656,-0.9166,-0.5793,-0.3965,-0.3118,-0.241,-0.1985,-0.1985,-0.1975,-0.1975,-0.2105,-0.2509,-0.2636,-0.2491,-0.2467,-0.2446,-0.2169,-0.176,-0.1611,-0.1462,-0.1457,-0.1445,-0.1311,-0.118,0.0,0.0,0.0,0.0,0.0,0.0,0.0,0.0,0.0,0.0,0.0,0.0,0.0,0.0,0.0,0.0,0.0,0.6393,0.8085,1.1733,1.526,1.6303,1.6692,1.6692,1.6692,1.6692,1.6692,1.6692,1.6692,1.6692,1.6692,1.6692,1.6692,1.6427,1.6692,1.6692,1.6692,1.6432,1.6562,1.6298,1.5774,1.5231,1.4168,-4.4321,-4.359,-4.2369,-4.1524,-4.0528,-3.7635,-3.5123,-3.2755,-2.9738,-2.7089,-2.5327,-2.4951,-2.4823,-2.4823,-2.4823,-2.4823,-2.4823,-2.4823,-2.4823,-2.4823,-2.4695,-2.4567,-2.4439,-2.4054,-2.3413,-2.2506,-2.1653,-2.1273,-2.0886,-2.1011,-2.1032,-2.1195,-2.1505,-2.167,-2.1809,-2.196,-2.2059,-2.2026,-2.2059,-2.225,-2.2105,-2.1828,-2.171,-2.171,-2.1641,-2.0145,-1.8331,-1.6101,-1.3863,-1.0307,-0.659,-0.4923,-0.3665,-0.3099,-0.2822,-0.2679,-0.2666,-0.2514,-0.2646,-0.3312,-0.329,-0.3271,-0.3236,-0.308,-0.2939,-0.2792,-0.264,-0.2363,-0.2232,-0.2094,-0.1833,-0.1571,-0.1178,0.0,0.0,0.0,0.0,0.0,0.0,0.0,0.0,0.0,0.0,0.0,0.0,0.0,0.0,0.0,0.6133,0.7827,1.017,1.343,1.5784,1.6303,1.6692,1.6692,1.6692,1.6692,1.6692,1.6692,1.6692,1.6692,1.6692,1.6562,1.6038,1.5645,1.5774,1.5649,1.6038,1.6038,1.5645,1.4996,1.4343,1.2776,1.1863,-4.455,-4.382,-4.2491,-4.1879,-4.1007,-3.8255,-3.5373,-3.288,-3.0108,-2.8225,-2.7089,-2.5583,-2.4823,-2.4823,-2.4823,-2.4823,-2.4823,-2.4823,-2.4823,-2.4823,-2.4823,-2.4823,-2.4823,-2.4575,-2.3926,-2.3487,-2.2533,-2.1694,-2.1083,-2.1018,-2.1025,-2.1143,-2.1182,-2.1275,-2.1472,-2.1565,-2.1637,-2.1677,-2.1637,-2.1789,-2.194,-2.1532,-2.1275,-2.1518,-2.1604,-2.105,-1.937,-1.7713,-1.5873,-1.3324,-0.8832,-0.6516,-0.4448,-0.3754,-0.3486,-0.3489,-0.3334,-0.3313,-0.3589,-0.3833,-0.4048,-0.3895,-0.3862,-0.3709,-0.3697,-0.3563,-0.3404,-0.3403,-0.3141,-0.2879,-0.2617,-0.2355,-0.1963,-0.157,-0.1178,-0.1047,-0.1178,-0.0916,-0.0785,-0.1178,-0.144,-0.1178,-0.0916,-0.0785,0.0,0.0,0.0,0.0,0.7308,0.9522,1.2517,1.5131,1.6043,1.6692,1.6692,1.6692,1.6692,1.6692,1.6692,1.6432,1.6168,1.6432,1.6038,1.4607,1.3824,1.3949,1.3689,1.343,1.3694,1.356,1.356,1.343,1.1733,1.004,0.7827,-4.4564,-4.4077,-4.298,-4.226,-4.1634,-3.9009,-3.6506,-3.3748,-3.1118,-2.9611,-2.8479,-2.6214,-2.4823,-2.4823,-2.4823,-2.4823,-2.4823,-2.4823,-2.4823,-2.4823,-2.4823,-2.4823,-2.4823,-2.4823,-2.4447,-2.4024,-2.3483,-2.2661,-2.1578,-2.0971,-2.0835,-2.1116,-2.1037,-2.0998,-2.1169,-2.1195,-2.1235,-2.1248,-2.1182,-2.134,-2.1466,-2.1143,-2.0971,-2.1215,-2.134,-2.1031,-2.058,-1.9107,-1.8227,-1.6503,-1.1921,-0.8561,-0.5448,-0.4229,-0.3979,-0.4135,-0.3831,-0.3959,-0.4086,-0.4177,-0.4265,-0.4239,-0.4224,-0.42,-0.4319,-0.432,-0.4188,-0.4188,-0.4057,-0.3796,-0.3534,-0.3141,-0.2879,-0.2486,-0.2094,-0.2355,-0.2617,-0.1963,-0.1309,-0.157,-0.2094,-0.1832,-0.157,-0.1178,-0.0785,0.0523,0.2484,0.5094,0.7699,1.0953,1.3689,1.4996,1.6038,1.6692,1.6692,1.6692,1.6692,1.6692,1.6427,1.6038,1.552,1.4866,1.3953,1.2651,1.135,1.0953,1.0693,1.0697,1.0563,1.0173,1.0043,1.0043,0.8738,0.6654,0.3657,-4.4928,-4.4792,-4.4077,-4.3089,-4.2002,-4.102,-3.9022,-3.6381,-3.3873,-3.136,-2.8851,-2.6214,-2.5079,-2.4823,-2.4823,-2.4823,-2.4823,-2.4823,-2.4823,-2.4823,-2.4823,-2.4823,-2.4823,-2.4823,-2.4567,-2.419,-2.3774,-2.3326,-2.1981,-2.1436,-2.1177,-2.0859,-2.0839,-2.0866,-2.0971,-2.0986,-2.132,-2.1293,-2.1317,-2.1094,-2.1081,-2.0912,-2.0859,-2.0945,-2.0938,-2.0919,-2.0868,-2.0476,-1.958,-1.6987,-1.3977,-1.137,-0.8403,-0.6105,-0.4623,-0.435,-0.4178,-0.4174,-0.4292,-0.4253,-0.4216,-0.4333,-0.4322,-0.432,-0.4319,-0.4319,-0.4319,-0.4319,-0.4319,-0.4057,-0.3927,-0.3665,-0.3403,-0.3141,-0.301,-0.301,-0.3141,-0.2879,-0.2486,-0.2617,-0.2879,-0.2617,-0.2355,-0.1963,-0.144,-0.0262,0.196,0.4962,0.8087,1.1603,1.356,1.4737,1.5779,1.6692,1.6562,1.6168,1.6432,1.6298,1.6038,1.5385,1.4213,1.304,1.1871,1.0436,0.9132,0.8478,0.7566,0.8217,0.8087,0.7436,0.6784,0.6786,0.5221,0.2874,0.0,-4.4914,-4.4928,-4.455,-4.3956,-4.3102,-4.2002,-4.1143,-3.9627,-3.6754,-3.3873,-3.1244,-2.8479,-2.6461,-2.5071,-2.4823,-2.4823,-2.4823,-2.4823,-2.4823,-2.4823,-2.4823,-2.4839,-2.4823,-2.4823,-2.4734,-2.4624,-2.4359,-2.4059,-2.3485,-2.2777,-2.1865,-2.1497,-2.1355,-2.1226,-2.1001,-2.1088,-2.1428,-2.1763,-2.1701,-2.1504,-2.1233,-2.0982,-2.0833,-2.0866,-2.0859,-2.0853,-2.0886,-2.0796,-2.0354,-1.9207,-1.6594,-1.3902,-1.1134,-0.8239,-0.6525,-0.4568,-0.4394,-0.4249,-0.4257,-0.4217,-0.4329,-0.432,-0.432,-0.4319,-0.4319,-0.4319,-0.4319,-0.4319,-0.4319,-0.4188,-0.4188,-0.4057,-0.3927,-0.3796,-0.3796,-0.3665,-0.3665,-0.3534,-0.3665,-0.3665,-0.3534,-0.3272,-0.301,-0.2617,-0.1832,-0.0392,0.1829,0.47,0.7696,1.1213,1.3044,1.3958,1.5131,1.6303,1.5779,1.526,1.5385,1.5385,1.4468,1.3166,1.278,1.1347,0.9522,0.8087,0.6786,0.4962,0.3266,0.431,0.5482,0.444,0.3658,0.3658,0.2744,0.0,0.0,-4.4914,-4.4914,-4.4914,-4.455,-4.382,-4.2967,-4.2247,-4.1511,-3.8379,-3.5498,-3.287,-3.0108,-2.7217,-2.4943,-2.4823,-2.4823,-2.4823,-2.4823,-2.4823,-2.4823,-2.4823,-2.4894,-2.4949,-2.5133,-2.5196,-2.5109,-2.5003,-2.4802,-2.4418,-2.3846,-2.2907,-2.2291,-2.2134,-2.187,-2.1612,-2.1484,-2.2148,-2.2406,-2.2406,-2.212,-2.1992,-2.1734,-2.1477,-2.1219,-2.1226,-2.0962,-2.0839,-2.0866,-2.0737,-2.0201,-1.798,-1.6148,-1.3283,-1.0309,-0.7985,-0.5562,-0.462,-0.4334,-0.4233,-0.4212,-0.4319,-0.4319,-0.4319,-0.4319,-0.4319,-0.4319,-0.4319,-0.4319,-0.4319,-0.4319,-0.4188,-0.4188,-0.4057,-0.4057,-0.4057,-0.4057,-0.4057,-0.3927,-0.3927,-0.4057,-0.4057,-0.3796,-0.3534,-0.3141,-0.2355,-0.0654,0.1437,0.3786,0.6654,1.0176,1.2268,1.2789,1.3832,1.4607,1.4347,1.3434,1.3824,1.3689,1.1473,0.9649,0.9132,0.822,0.7045,0.5611,0.3918,0.183,0.0,0.0915,0.2613,0.1569,0.0,0.0,0.0,0.0,0.0,-4.4914,-4.4914,-4.4914,-4.455,-4.4063,-4.382,-4.3102,-4.1756,-3.849,-3.5622,-3.3006,-3.037,-2.7726,-2.5327,-2.4823,-2.4823,-2.4823,-2.4823,-2.4823,-2.4823,-2.4823,-2.5164,-2.5291,-2.5393,-2.5512,-2.567,-2.5601,-2.5267,-2.4549,-2.4259,-2.3705,-2.32,-2.2928,-2.2899,-2.2899,-2.2899,-2.3027,-2.3156,-2.3027,-2.2899,-2.277,-2.2642,-2.2256,-2.1992,-2.1734,-2.1477,-2.1355,-2.1097,-2.1091,-2.0182,-1.8486,-1.7312,-1.4848,-1.1217,-0.9398,-0.7585,-0.5632,-0.5104,-0.4725,-0.4334,-0.445,-0.5752,-0.4841,-0.445,-0.4449,-0.4581,-0.4319,-0.4319,-0.4319,-0.4319,-0.4319,-0.4319,-0.4319,-0.4319,-0.4319,-0.4319,-0.4319,-0.4319,-0.4319,-0.4319,-0.4319,-0.4188,-0.3927,-0.3665,-0.301,-0.1177,0.0915,0.3264,0.5613,0.9007,1.1491,1.2016,1.2529,1.3174,1.2391,1.1347,1.1343,1.095,0.8475,0.6133,0.5354,0.4572,0.3919,0.2874,0.1046,0.0,0.0,0.0,0.0,0.0,0.0,0.0,0.0,0.0,0.0,-4.4914,-4.4914,-4.4914,-4.4807,-4.455,-4.4564,-4.4077,-4.2967,-4.1117,-3.7499,-3.3622,-3.2126,-2.9231,-2.5958,-2.4823,-2.4823,-2.4823,-2.4823,-2.4823,-2.4823,-2.4823,-2.5172,-2.5362,-2.5464,-2.5749,-2.5867,-2.5851,-2.5788,-2.5352,-2.5049,-2.474,-2.426,-2.3903,-2.382,-2.4054,-2.4054,-2.4054,-2.3926,-2.3669,-2.3541,-2.3413,-2.3156,-2.2899,-2.2642,-2.2506,-2.2378,-2.2256,-2.2127,-2.1992,-2.1477,-2.0304,-1.9131,-1.6401,-1.3417,-1.147,-1.0303,-0.8613,-0.7187,-0.6275,-0.5754,-0.6665,-0.8483,-0.5752,-0.5362,-0.6405,-0.5362,-0.471,-0.4319,-0.4319,-0.4319,-0.4319,-0.4319,-0.4319,-0.4319,-0.4319,-0.4319,-0.4319,-0.4319,-0.4319,-0.4319,-0.4319,-0.4319,-0.4188,-0.3796,-0.3665,-0.1569,0.0392,0.2351,0.4311,0.7967,1.0847,1.1365,1.2012,1.135,1.0306,0.9132,0.8217,0.7824,0.5481,0.2744,0.2092,0.2484,0.1439,0.0,0.0,0.0,0.0,0.0,0.0,0.0,0.0,0.0,0.0,0.0,0.0,-4.4914,-4.4914,-4.4914,-4.4914,-4.4914,-4.4914,-4.455,-4.382,-4.2722,-3.9861,-3.5611,-3.3612,-3.0604,-2.7335,-2.5831,-2.4823,-2.4823,-2.4823,-2.4823,-2.4847,-2.498,-2.5267,-2.5496,-2.5717,-2.5977,-2.612,-2.6159,-2.6135,-2.5985,-2.5591,-2.5433,-2.5267,-2.4516,-2.4567,-2.4695,-2.4823,-2.4823,-2.4823,-2.4567,-2.4175,-2.4175,-2.3798,-2.3541,-2.3284,-2.3284,-2.3027,-2.277,-2.277,-2.2513,-2.2127,-2.2127,-2.0955,-1.8744,-1.6008,-1.4191,-1.3417,-1.134,-0.9525,-0.7967,-0.8486,-0.9001,-0.9909,-0.9392,-0.7967,-0.7967,-0.6405,-0.5231,-0.4581,-0.4319,-0.4319,-0.4319,-0.4319,-0.4319,-0.4319,-0.4319,-0.4319,-0.4319,-0.4319,-0.4319,-0.4319,-0.4319,-0.4319,-0.4319,-0.4057,-0.3927,-0.2485,-0.0784,0.1046,0.3266,0.6793,0.9543,1.0189,1.0316,0.9268,0.7829,0.6002,0.4959,0.3654,0.1437,0.0,0.0392,0.0785,0.0262,0.0131,0.0,0.0,0.0,0.0,0.0,0.0,0.0,0.0,0.0,0.0,0.0,-4.4914,-4.4914,-4.4914,-4.4914,-4.4914,-4.4914,-4.455,-4.4063,-4.382,-4.169,-3.8206,-3.5588,-3.2598,-2.9845,-2.6716,-2.5711,-2.5583,-2.5071,-2.4823,-2.4902,-2.5212,-2.5417,-2.5693,-2.6056,-2.6372,-2.6498,-2.6435,-2.6254,-2.5985,-2.5622,-2.5283,-2.4941,-2.4925,-2.4878,-2.4823,-2.4823,-2.4823,-2.4823,-2.4823,-2.4823,-2.4695,-2.4695,-2.4311,-2.4054,-2.3918,-2.3662,-2.3413,-2.3413,-2.3284,-2.3027,-2.2899,-2.2385,-2.0948,-1.8603,-1.7177,-1.6665,-1.4195,-1.16,-0.9398,-1.1466,-1.2764,-1.3413,-1.2115,-1.0953,-0.9398,-0.797,-0.7189,-0.5495,-0.445,-0.4319,-0.4319,-0.4319,-0.4319,-0.4319,-0.4319,-0.4319,-0.4319,-0.4319,-0.4319,-0.4319,-0.4319,-0.4319,-0.4319,-0.4319,-0.4188,-0.3534,-0.2094,-0.0131,0.2352,0.4965,0.7189,0.797,0.8491,0.6791,0.444,0.2743,0.1307,-0.0654,-0.157,-0.1177,-0.0785,-0.0262,0.0,0.0,0.0,0.0,0.0,0.0,0.0,0.0,0.0,0.0,0.0,0.0,0.0,-4.4914,-4.4914,-4.4914,-4.4914,-4.4914,-4.4914,-4.4792,-4.455,-4.4185,-4.2071,-3.896,-3.7464,-3.5351,-3.2472,-2.9349,-2.7853,-2.7344,-2.5975,-2.5215,-2.5109,-2.5476,-2.5583,-2.5906,-2.627,-2.6641,-2.6783,-2.6656,-2.6356,-2.6017,-2.563,-2.5346,-2.5188,-2.5157,-2.5109,-2.491,-2.4823,-2.4823,-2.4823,-2.4823,-2.4823,-2.4823,-2.4823,-2.4695,-2.4567,-2.4567,-2.4311,-2.4183,-2.4054,-2.3926,-2.3798,-2.3541,-2.3284,-2.1849,-2.0414,-1.9383,-1.8867,-1.7828,-1.5749,-1.5495,-1.6789,-1.8615,-1.7312,-1.5361,-1.3802,-1.2768,-1.0566,-0.901,-0.7187,-0.5364,-0.4319,-0.4319,-0.4319,-0.4319,-0.4319,-0.4319,-0.4319,-0.4319,-0.4319,-0.4319,-0.4319,-0.4319,-0.4319,-0.4319,-0.4319,-0.4188,-0.3796,-0.2617,-0.1047,0.0784,0.2352,0.4967,0.6536,0.6403,0.3659,0.1046,0.0392,-0.0523,-0.2355,-0.2486,-0.2094,-0.1701,-0.1047,-0.0654,-0.0392,0.0,0.0,0.0,0.0,0.0,0.0,0.0,0.0,0.0,0.0,0.0,-4.4914,-4.4914,-4.4914,-4.4914,-4.4914,-4.4914,-4.4914,-4.4792,-4.4428,-4.3061,-4.1323,-3.9466,-3.7711,-3.5464,-3.2598,-3.0856,-3.0127,-2.784,-2.7047,-2.6554,-2.5961,-2.5867,-2.6088,-2.6427,-2.6735,-2.6759,-2.6775,-2.653,-2.6206,-2.6049,-2.567,-2.5425,-2.5401,-2.5307,-2.5157,-2.491,-2.4847,-2.4823,-2.4823,-2.4823,-2.4823,-2.4823,-2.4823,-2.4823,-2.4823,-2.4823,-2.4823,-2.4823,-2.4567,-2.4447,-2.4311,-2.3926,-2.3013,-2.1835,-2.1457,-2.1599,-2.0684,-1.8861,-1.8216,-1.9911,-2.1999,-2.0697,-1.848,-1.6272,-1.6142,-1.394,-1.1733,-0.9655,-0.7837,-0.6277,-0.5625,-0.4972,-0.4319,-0.4319,-0.4319,-0.4319,-0.4319,-0.4319,-0.4319,-0.4319,-0.4319,-0.4319,-0.4319,-0.4319,-0.4319,-0.4188,-0.3272,-0.2355,-0.1569,-0.0392,0.366,0.6144,0.3791,0.1046,0.0,-0.1308,-0.2486,-0.301,-0.3272,-0.2879,-0.2486,-0.1832,-0.1047,-0.0785,0.0,0.0,0.0,0.0,0.0,0.0,0.0,0.0,0.0,0.0,0.0,-4.4914,-4.4914,-4.4914,-4.4914,-4.4914,-4.4914,-4.4914,-4.4914,-4.4914,-4.4671,-4.3928,-4.1935,-4.0192,-3.8577,-3.6098,-3.3987,-3.3267,-3.0883,-3.0081,-2.9237,-2.8183,-2.7768,-2.8078,-2.8339,-2.8101,-2.7397,-2.7769,-2.7437,-2.6554,-2.6794,-2.6943,-2.6276,-2.5949,-2.5643,-2.5291,-2.4925,-2.4831,-2.4823,-2.4823,-2.4823,-2.4823,-2.4823,-2.4823,-2.4823,-2.4823,-2.4823,-2.4823,-2.4823,-2.4823,-2.4823,-2.4695,-2.4439,-2.4054,-2.3526,-2.3013,-2.3027,-2.237,-2.1457,-2.0542,-2.1849,-2.2892,-2.2763,-2.1727,-2.004,-1.8867,-1.757,-1.5879,-1.3668,-1.056,-0.8877,-0.7317,-0.6275,-0.4972,-0.4581,-0.4319,-0.4319,-0.4319,-0.4319,-0.4319,-0.4319,-0.4319,-0.4319,-0.4319,-0.4319,-0.4319,-0.4319,-0.3403,-0.3261,-0.2871,-0.1429,0.2601,0.3268,0.0784,-0.0262,-0.1178,-0.2094,-0.314,-0.3665,-0.3665,-0.3403,-0.3141,-0.2355,-0.157,-0.1178,-0.0785,-0.0392,0.0,0.0,0.0,0.0,0.0,0.0,0.0,0.0,0.0,-4.4914,-4.4914,-4.4914,-4.4914,-4.4914,-4.4914,-4.4914,-4.4914,-4.4914,-4.4914,-4.4671,-4.405,-4.3183,-4.2084,-3.9343,-3.7352,-3.6494,-3.4095,-3.3087,-3.2859,-3.2554,-3.2299,-3.2228,-3.2671,-3.2005,-3.0187,-3.0267,-2.9149,-2.8321,-2.8568,-2.9788,-2.9168,-2.7466,-2.5993,-2.522,-2.5014,-2.4823,-2.4823,-2.4823,-2.4823,-2.4823,-2.4823,-2.4823,-2.4823,-2.4823,-2.4823,-2.4823,-2.4823,-2.4823,-2.4823,-2.4823,-2.4823,-2.4567,-2.4567,-2.4183,-2.3798,-2.3669,-2.3277,-2.327,-2.3134,-2.3534,-2.3413,-2.2899,-2.2249,-2.107,-1.8861,-1.7042,-1.6913,-1.3672,-1.082,-0.8877,-0.797,-0.6405,-0.5233,-0.445,-0.4319,-0.4319,-0.4319,-0.4319,-0.4319,-0.4319,-0.4319,-0.4319,-0.4319,-0.4319,-0.4319,-0.431,-0.4164,-0.3236,-0.2058,-0.0388,-0.0915,-0.2093,-0.1439,-0.2486,-0.3403,-0.3665,-0.4188,-0.4188,-0.3927,-0.3796,-0.314,-0.2225,-0.1701,-0.1309,-0.0785,-0.0262,0.0,0.0,0.0,0.0,0.0,0.0,0.0,0.0,-4.4914,-4.4914,-4.4914,-4.4914,-4.4914,-4.4914,-4.4914,-4.4914,-4.4914,-4.4914,-4.4914,-4.4914,-4.4792,-4.3942,-4.2329,-4.0722,-3.9664,-3.7499,-3.6325,-3.6344,-3.5409,-3.5054,-3.5598,-3.5466,-3.5193,-3.34,-3.2981,-3.1756,-3.1746,-3.2447,-3.3127,-3.217,-2.97,-2.7422,-2.775,-2.5769,-2.4983,-2.4823,-2.4823,-2.4823,-2.4823,-2.4823,-2.4823,-2.4823,-2.4823,-2.4823,-2.4823,-2.4823,-2.4823,-2.4823,-2.4823,-2.4823,-2.4823,-2.4823,-2.4695,-2.4311,-2.4311,-2.4431,-2.4823,-2.4431,-2.4439,-2.4183,-2.3798,-2.3413,-2.2892,-2.1328,-2.0163,-2.0291,-1.7166,-1.4704,-1.3028,-1.0306,-0.8225,-0.6405,-0.5102,-0.4712,-0.4319,-0.4319,-0.4319,-0.4319,-0.4319,-0.4319,-0.4319,-0.4319,-0.4319,-0.4319,-0.4312,-0.4155,-0.3478,-0.2682,-0.334,-0.4166,-0.3394,-0.2616,-0.3665,-0.4319,-0.4319,-0.4319,-0.4188,-0.4188,-0.4057,-0.3796,-0.301,-0.2355,-0.1701,-0.1047,-0.0523,0.0,0.0,0.0,0.0,0.0,0.0,0.0,0.0,-4.4914,-4.4914,-4.4914,-4.4914,-4.4914,-4.4914,-4.4914,-4.4914,-4.4914,-4.4914,-4.4914,-4.4914,-4.4914,-4.4671,-4.4063,-4.359,-4.2516,-4.0852,-4.0113,-3.9875,-3.845,-3.7884,-3.7267,-3.6813,-3.723,-3.6281,-3.6281,-3.6416,-3.6634,-3.6238,-3.6206,-3.5112,-3.2367,-3.0117,-2.9039,-2.6359,-2.4967,-2.4823,-2.4823,-2.4823,-2.4823,-2.4823,-2.4823,-2.4823,-2.4823,-2.4823,-2.4823,-2.4823,-2.4823,-2.4823,-2.4823,-2.4823,-2.4823,-2.4823,-2.4823,-2.4823,-2.4823,-2.4823,-2.4823,-2.4823,-2.4695,-2.4695,-2.4311,-2.4054,-2.3798,-2.3148,-2.2892,-2.3798,-2.1064,-1.8462,-1.6261,-1.2894,-1.0043,-0.7964,-0.5885,-0.4581,-0.4319,-0.4319,-0.4319,-0.4319,-0.4319,-0.4319,-0.4319,-0.4319,-0.4319,-0.4319,-0.4311,-0.4142,-0.3975,-0.3676,-0.4058,-0.4243,-0.3621,-0.3523,-0.4319,-0.4319,-0.4319,-0.4319,-0.4319,-0.4188,-0.4188,-0.3927,-0.3403,-0.2879,-0.2094,-0.144,-0.1047,-0.0654,-0.0262,0.0,0.0,0.0,0.0,0.0,0.0,-4.4914,-4.4914,-4.4914,-4.4914,-4.4914,-4.4914,-4.4914,-4.4914,-4.4914,-4.4914,-4.4914,-4.4914,-4.4914,-4.4914,-4.4671,-4.4321,-4.3768,-4.3937,-4.3397,-4.3219,-4.2591,-4.2916,-4.319,-4.2795,-4.1298,-3.9403,-3.928,-4.0504,-4.131,-4.0223,-3.9173,-3.7573,-3.2991,-3.0193,-2.9452,-2.6961,-2.5407,-2.4823,-2.4823,-2.4823,-2.4823,-2.4823,-2.4823,-2.4823,-2.4823,-2.4823,-2.4823,-2.4823,-2.4823,-2.4823,-2.4823,-2.4823,-2.4823,-2.4823,-2.4823,-2.4823,-2.4823,-2.4823,-2.4823,-2.4823,-2.4823,-2.4823,-2.4703,-2.4695,-2.4567,-2.4439,-2.4183,-2.3798,-2.2492,-2.1192,-1.8855,-1.4958,-1.1982,-0.9522,-0.6665,-0.4319,-0.445,-0.445,-0.4581,-0.445,-0.4319,-0.4319,-0.4581,-0.4581,-0.445,-0.445,-0.4449,-0.4277,-0.4065,-0.4146,-0.4151,-0.4204,-0.4255,-0.4299,-0.4319,-0.4319,-0.4319,-0.4319,-0.4319,-0.4319,-0.4188,-0.4057,-0.3665,-0.3272,-0.2486,-0.1963,-0.1701,-0.1309,-0.0654,0.0,0.0,0.0,0.0,0.0,0.0,-4.4914,-4.4914,-4.4914,-4.4914,-4.4914,-4.4914,-4.4914,-4.4914,-4.4914,-4.4914,-4.4914,-4.4914,-4.4914,-4.4914,-4.4914,-4.4792,-4.4484,-4.4822,-4.4819,-4.4681,-4.4732,-4.4881,-4.4623,-4.4555,-4.3342,-4.2649,-4.2248,-4.3088,-4.4181,-4.2795,-4.2109,-4.038,-3.6959,-3.3356,-3.1373,-2.844,-2.6494,-2.4951,-2.4823,-2.4823,-2.4823,-2.4823,-2.4823,-2.4823,-2.4823,-2.4823,-2.4823,-2.4823,-2.4823,-2.4823,-2.4823,-2.4823,-2.4823,-2.4823,-2.4823,-2.4823,-2.4823,-2.4823,-2.4823,-2.4823,-2.4823,-2.4823,-2.4823,-2.4823,-2.4823,-2.4823,-2.4703,-2.4439,-2.3926,-2.3141,-2.1192,-1.6768,-1.3659,-1.1073,-0.7704,-0.5622,-0.5231,-0.5231,-0.5233,-0.5364,-0.5364,-0.5364,-0.5233,-0.4972,-0.4841,-0.4579,-0.4579,-0.4377,-0.4156,-0.4139,-0.4139,-0.4195,-0.4251,-0.429,-0.4319,-0.4319,-0.4319,-0.4319,-0.4319,-0.4319,-0.4188,-0.4188,-0.3927,-0.3534,-0.3141,-0.2617,-0.2225,-0.157,-0.0785,0.0,0.0,0.0,0.0,0.0,0.0,-4.4914,-4.4914,-4.4914,-4.4914,-4.4914,-4.4914,-4.4914,-4.4914,-4.4914,-4.4914,-4.4914,-4.4914,-4.4914,-4.4914,-4.4914,-4.4914,-4.4849,-4.5104,-4.4983,-4.4801,-4.469,-4.4689,-4.4586,-4.4453,-4.4281,-4.4333,-4.3939,-4.3833,-4.4201,-4.4438,-4.353,-4.2882,-3.9911,-3.6708,-3.3533,-3.063,-2.7344,-2.5327,-2.4823,-2.4823,-2.4823,-2.4823,-2.4823,-2.4823,-2.4823,-2.4823,-2.4823,-2.4823,-2.4823,-2.4823,-2.4823,-2.4823,-2.4823,-2.4823,-2.4823,-2.4823,-2.4823,-2.4823,-2.4823,-2.4823,-2.4823,-2.4823,-2.4823,-2.4823,-2.4823,-2.4823,-2.4823,-2.4823,-2.4695,-2.4567,-2.3918,-1.9101,-1.56,-1.3275,-1.03,-0.7187,-0.6797,-0.693,-0.7191,-0.7191,-0.6799,-0.6538,-0.6405,-0.6275,-0.5885,-0.5624,-0.536,-0.5035,-0.442,-0.4139,-0.4136,-0.4181,-0.4244,-0.4289,-0.4316,-0.4315,-0.4319,-0.4319,-0.4319,-0.4319,-0.4319,-0.4319,-0.4188,-0.4057,-0.3665,-0.3141,-0.2486,-0.1832,-0.1047,-0.0523,0.0,0.0,0.0,0.0,0.0,-4.4914,-4.4914,-4.4914,-4.4914,-4.4914,-4.4914,-4.4914,-4.4914,-4.4914,-4.4914,-4.4914,-4.4914,-4.4914,-4.4914,-4.4914,-4.4914,-4.5056,-4.5369,-4.5269,-4.4888,-4.473,-4.4705,-4.4554,-4.4152,-4.3851,-4.3792,-4.3498,-4.3487,-4.3617,-4.3708,-4.3798,-4.3623,-4.0602,-3.78,-3.457,-3.0932,-2.8007,-2.5583,-2.5079,-2.4823,-2.4823,-2.4823,-2.4823,-2.4823,-2.4823,-2.4823,-2.4823,-2.4823,-2.4823,-2.4823,-2.4823,-2.4823,-2.4823,-2.4823,-2.4823,-2.4823,-2.4823,-2.4823,-2.4823,-2.4823,-2.4823,-2.4823,-2.4823,-2.4823,-2.4823,-2.4823,-2.4823,-2.4823,-2.4823,-2.4823,-2.4567,-2.0529,-1.7946,-1.5879,-1.2898,-1.0046,-0.8752,-0.9149,-0.941,-0.941,-0.8624,-0.8103,-0.7842,-0.7448,-0.6928,-0.6536,-0.614,-0.5703,-0.4697,-0.4137,-0.4005,-0.4033,-0.4251,-0.4308,-0.4304,-0.4171,-0.4318,-0.4319,-0.4319,-0.4319,-0.4319,-0.4319,-0.4319,-0.4188,-0.4057,-0.3665,-0.301,-0.2355,-0.1701,-0.0916,0.0,0.0,0.0,0.0,0.0,-4.4914,-4.4914,-4.4914,-4.4914,-4.4914,-4.4914,-4.4914,-4.4914,-4.4914,-4.4914,-4.4914,-4.4914,-4.4914,-4.4914,-4.4914,-4.4914,-4.4999,-4.5255,-4.5156,-4.5012,-4.4875,-4.474,-4.4536,-4.4119,-4.3911,-4.4193,-4.3602,-4.3492,-4.3445,-4.3421,-4.3292,-4.3305,-4.2219,-3.9429,-3.636,-3.372,-3.0436,-2.7625,-2.5711,-2.4823,-2.4823,-2.4823,-2.4823,-2.4823,-2.4823,-2.4823,-2.4823,-2.4823,-2.4823,-2.4823,-2.4823,-2.4823,-2.4823,-2.4823,-2.4823,-2.4823,-2.4823,-2.4823,-2.4823,-2.4823,-2.4823,-2.4823,-2.4823,-2.4823,-2.4823,-2.4823,-2.4823,-2.4823,-2.4823,-2.4823,-2.4567,-2.1186,-1.821,-1.6148,-1.33,-1.0707,-0.9931,-1.0717,-1.1372,-1.046,-0.9931,-0.9668,-0.9146,-0.8361,-0.797,-0.7578,-0.7312,-0.5956,-0.4947,-0.4512,-0.4379,-0.4009,-0.4238,-0.4294,-0.4155,-0.4166,-0.4312,-0.4319,-0.4319,-0.4319,-0.4319,-0.4319,-0.4319,-0.4188,-0.4188,-0.3796,-0.3534,-0.301,-0.2355,-0.157,-0.0785,-0.0392,0.0,0.0,0.0,-4.4956,-4.4729,-4.4871,-4.4914,-4.4914,-4.4914,-4.4914,-4.4914,-4.4914,-4.4914,-4.4914,-4.4914,-4.4914,-4.4914,-4.4914,-4.4914,-4.4928,-4.4971,-4.4911,-4.4899,-4.4803,-4.4722,-4.4652,-4.421,-4.421,-4.4191,-4.385,-4.3691,-4.3671,-4.3316,-4.3114,-4.3193,-4.2843,-4.1592,-3.8244,-3.5961,-3.3415,-2.9808,-2.7691,-2.658,-2.6222,-2.5711,-2.5455,-2.5455,-2.5079,-2.4951,-2.4823,-2.4823,-2.5079,-2.5207,-2.5079,-2.4823,-2.4823,-2.4823,-2.4823,-2.4823,-2.4823,-2.4823,-2.4823,-2.4823,-2.4823,-2.4823,-2.4823,-2.4823,-2.4823,-2.4823,-2.4823,-2.4823,-2.4823,-2.4823,-2.4695,-2.0929,-1.8861,-1.7058,-1.4347,-1.1886,-1.1242,-1.1893,-1.2024,-1.1372,-1.0978,-1.0978,-1.0847,-1.0059,-0.9407,-0.8752,-0.7797,-0.6447,-0.5728,-0.5274,-0.4606,-0.3946,-0.404,-0.411,-0.4118,-0.4158,-0.4305,-0.4319,-0.4319,-0.4319,-0.4319,-0.4319,-0.4319,-0.4319,-0.4319,-0.4057,-0.3796,-0.3272,-0.2879,-0.1963,-0.1178,-0.0785,-0.0392,-0.0131,0.0,-4.5025,-4.4117,-4.4686,-4.4914,-4.4914,-4.4914,-4.4914,-4.4914,-4.4914,-4.4914,-4.4914,-4.4914,-4.4914,-4.4914,-4.4914,-4.4914,-4.4914,-4.4914,-4.4877,-4.4812,-4.4503,-4.4423,-4.4714,-4.4343,-4.4125,-4.4044,-4.3321,-4.3511,-4.374,-4.3723,-4.3981,-4.3823,-4.2942,-4.1091,-3.9368,-3.7742,-3.4801,-3.1802,-3.0699,-2.9728,-2.8125,-2.7234,-2.6724,-2.6605,-2.5967,-2.5335,-2.5199,-2.5079,-2.5583,-2.6724,-2.5591,-2.5079,-2.4951,-2.4823,-2.4823,-2.4823,-2.4823,-2.4823,-2.4823,-2.4823,-2.4823,-2.4823,-2.4823,-2.4823,-2.4823,-2.4823,-2.4823,-2.4823,-2.4823,-2.4823,-2.4695,-2.4431,-2.1842,-1.8615,-1.7069,-1.4876,-1.3191,-1.2544,-1.2544,-1.2414,-1.2414,-1.2414,-1.2414,-1.2154,-1.1629,-0.9931,-0.9392,-0.7858,-0.6715,-0.6401,-0.5845,-0.467,-0.4223,-0.4177,-0.4097,-0.4143,-0.4292,-0.4319,-0.4318,-0.4319,-0.4319,-0.4319,-0.4319,-0.4319,-0.4319,-0.4188,-0.3927,-0.3665,-0.3141,-0.2486,-0.1701,-0.1178,-0.0785,-0.0262,0.0,-4.519,-4.4938,-4.4498,-4.4587,-4.4899,-4.4914,-4.4914,-4.4914,-4.4914,-4.4914,-4.4914,-4.4914,-4.4914,-4.4914,-4.4914,-4.4914,-4.4914,-4.4914,-4.4914,-4.4807,-4.4564,-4.4671,-4.4792,-4.4685,-4.4564,-4.4442,-4.3834,-4.3742,-4.3826,-4.3484,-4.3484,-4.3647,-4.3689,-4.2801,-4.1077,-3.9848,-3.7464,-3.436,-3.2609,-3.0992,-2.9151,-2.8388,-2.8125,-2.7998,-2.7625,-2.7243,-2.7115,-2.6477,-2.6724,-2.7489,-2.6852,-2.6086,-2.6094,-2.5455,-2.4823,-2.4823,-2.4823,-2.4823,-2.4823,-2.4823,-2.4823,-2.4823,-2.4823,-2.4823,-2.4823,-2.4823,-2.4823,-2.4823,-2.4823,-2.4823,-2.4823,-2.4823,-2.2877,-1.9653,-1.8104,-1.6427,-1.2931,-1.2675,-1.2675,-1.2675,-1.2675,-1.2675,-1.2675,-1.2544,-1.1893,-1.0981,-1.059,-0.9267,-0.7831,-0.7787,-0.7352,-0.5658,-0.4807,-0.4254,-0.4054,-0.4097,-0.4122,-0.4304,-0.4316,-0.4319,-0.4319,-0.4319,-0.4319,-0.4319,-0.4319,-0.4188,-0.4188,-0.4057,-0.3403,-0.2748,-0.2225,-0.144,-0.0654,0.0,0.0,-4.564,-4.5596,-4.4956,-4.4802,-4.5096,-4.5154,-4.4984,-4.4914,-4.4914,-4.4914,-4.4914,-4.4914,-4.4914,-4.4914,-4.4914,-4.4914,-4.4914,-4.4914,-4.4914,-4.4914,-4.4914,-4.4914,-4.4914,-4.4914,-4.4914,-4.4807,-4.4442,-4.4185,-4.4063,-4.3876,-4.3646,-4.3482,-4.407,-4.3837,-4.3223,-4.1919,-3.9715,-3.6703,-3.465,-3.288,-3.0662,-2.9776,-2.9531,-2.9404,-2.9024,-2.8906,-2.8779,-2.7998,-2.8098,-2.9139,-2.8181,-2.7489,-2.7489,-2.6605,-2.5975,-2.5711,-2.5455,-2.5327,-2.4951,-2.4823,-2.4823,-2.4823,-2.4823,-2.4823,-2.4823,-2.4823,-2.4823,-2.4823,-2.4823,-2.4823,-2.4823,-2.4823,-2.3654,-2.0684,-1.8615,-1.6292,-1.3451,-1.2675,-1.2675,-1.2675,-1.2675,-1.2675,-1.2675,-1.2544,-1.2284,-1.1502,-1.1094,-1.0493,-0.941,-0.9064,-0.8593,-0.6886,-0.4904,-0.4343,-0.4008,-0.405,-0.4094,-0.4275,-0.429,-0.4155,-0.4288,-0.4299,-0.431,-0.4315,-0.4311,-0.4318,-0.4319,-0.4188,-0.3534,-0.2748,-0.2225,-0.1701,-0.0785,0.0,0.0,-4.6632,-4.5827,-4.6283,-4.5886,-4.5514,-4.5469,-4.5196,-4.4949,-4.4914,-4.4914,-4.4914,-4.4914,-4.4914,-4.4914,-4.4914,-4.4914,-4.4914,-4.4914,-4.4914,-4.4914,-4.4914,-4.4914,-4.4914,-4.4914,-4.4914,-4.4899,-4.475,-4.4764,-4.4671,-4.4614,-4.4792,-4.438,-4.3802,-4.3374,-4.364,-4.3374,-4.1363,-3.8356,-3.8184,-3.628,-3.2796,-3.1526,-3.0885,-3.0876,-2.9827,-2.9176,-2.9284,-2.9012,-2.9279,-2.9927,-2.9395,-2.8913,-2.8869,-2.8761,-2.7853,-2.6979,-2.6843,-2.6222,-2.5207,-2.4951,-2.4823,-2.4823,-2.4823,-2.4823,-2.4823,-2.4823,-2.4823,-2.4823,-2.4687,-2.4695,-2.4559,-2.4431,-2.4213,-2.3541,-1.9092,-1.5453,-1.3077,-1.2687,-1.2679,-1.2675,-1.2675,-1.2675,-1.2675,-1.2675,-1.2544,-1.2284,-1.228,-1.1548,-1.061,-0.9963,-0.946,-0.7543,-0.505,-0.4337,-0.3959,-0.4,-0.4036,-0.4077,-0.409,-0.4093,-0.4099,-0.4133,-0.4286,-0.4294,-0.43,-0.4311,-0.4187,-0.4057,-0.3534,-0.2743,-0.2089,-0.1832,-0.1175,-0.039,0.0,-4.6383,-4.5658,-4.5129,-4.4566,-4.4137,-4.4424,-4.4474,-4.4345,-4.4743,-4.4914,-4.4914,-4.4914,-4.4914,-4.4914,-4.4914,-4.4914,-4.4914,-4.4914,-4.4914,-4.4914,-4.4914,-4.4914,-4.4914,-4.4914,-4.4914,-4.4857,-4.4515,-4.4515,-4.4885,-4.453,-4.4146,-4.3918,-4.3695,-4.3568,-4.3388,-4.3802,-4.2384,-3.9228,-3.8873,-3.7151,-3.3748,-3.2401,-3.2018,-3.1853,-3.1134,-3.0747,-3.0737,-3.0614,-3.079,-3.1057,-3.0893,-3.0383,-2.9755,-2.9023,-2.8506,-2.8054,-2.7489,-2.6835,-2.6222,-2.5287,-2.4823,-2.4823,-2.4823,-2.4815,-2.4823,-2.4823,-2.4823,-2.4559,-2.3783,-2.2877,-2.2749,-2.1849,-2.1128,-2.1288,-1.801,-1.5262,-1.3375,-1.2687,-1.2695,-1.2675,-1.2675,-1.2675,-1.2675,-1.2675,-1.2675,-1.2675,-1.2675,-1.2222,-1.1803,-1.1052,-0.9622,-0.7787,-0.5659,-0.4534,-0.4043,-0.3947,-0.398,-0.4,-0.4019,-0.4031,-0.4044,-0.4081,-0.4233,-0.4238,-0.4254,-0.4262,-0.4158,-0.4034,-0.3513,-0.2602,-0.1817,0.0,0.0,0.0,0.0,-4.5674,-4.5319,-4.4442,-4.393,-4.3429,-4.3818,-4.4224,-4.4779,-4.5525,-4.6281,-4.667,-4.6368,-4.6124,-4.6003,-4.5156,-4.4914,-4.5035,-4.5761,-4.6124,-4.6003,-4.5263,-4.4914,-4.4914,-4.4914,-4.4914,-4.4814,-4.4274,-4.4131,-4.4231,-4.3904,-4.3534,-4.3264,-4.3534,-4.3477,-4.3207,-4.3587,-4.2123,-3.8848,-3.8215,-3.6279,-3.286,-3.2217,-3.2033,-3.2127,-3.1886,-3.1551,-3.1311,-3.1415,-3.1488,-3.1488,-3.1624,-3.137,-3.076,-2.9827,-2.9221,-2.861,-2.776,-2.7006,-2.6125,-2.5117,-2.4604,-2.4636,-2.473,-2.4778,-2.4793,-2.4872,-2.4823,-2.4687,-2.2998,-2.1762,-2.1565,-2.0037,-1.888,-1.8288,-1.6334,-1.4354,-1.328,-1.2882,-1.2771,-1.2695,-1.2675,-1.2675,-1.2675,-1.2675,-1.2675,-1.2675,-1.2675,-1.2647,-1.2249,-1.1379,-1.0079,-0.8168,-0.6445,-0.4827,-0.4237,-0.3897,-0.3914,-0.3925,-0.3948,-0.3967,-0.3986,-0.4012,-0.4025,-0.4165,-0.4058,-0.408,-0.4109,-0.3861,-0.321,-0.2438,-0.1793,0.0,0.0,0.0,0.0,-4.4751,-4.4687,-4.4766,-4.4185,-4.3728,-4.3989,-4.4939,-4.63,-4.7306,-4.8734,-4.9975,-4.9326,-4.8611,-4.8346,-4.6667,-4.522,-4.5722,-4.7642,-4.8627,-4.8404,-4.6321,-4.5263,-4.5085,-4.4992,-4.4899,-4.47,-4.4231,-4.3705,-4.3292,-4.3179,-4.3065,-4.3051,-4.2965,-4.2837,-4.3138,-4.2409,-4.0537,-3.7576,-3.643,-3.4398,-3.1543,-3.1156,-3.1206,-3.1614,-3.1593,-3.1174,-3.0411,-3.0777,-3.1114,-3.1167,-3.1405,-3.1687,-3.1405,-3.1336,-3.051,-2.8644,-2.7876,-2.6646,-2.4579,-2.425,-2.4159,-2.4075,-2.428,-2.4486,-2.4549,-2.477,-2.4823,-2.4559,-2.302,-2.1674,-2.1515,-1.9745,-1.7822,-1.6114,-1.4463,-1.3459,-1.3298,-1.31,-1.2739,-1.2719,-1.2675,-1.2675,-1.2675,-1.2675,-1.2675,-1.2675,-1.2675,-1.2659,-1.2493,-1.195,-1.09,-0.8868,-0.687,-0.5427,-0.4569,-0.3964,-0.3968,-0.3856,-0.3891,-0.391,-0.393,-0.3942,-0.3956,-0.3967,-0.3987,-0.4011,-0.404,-0.3679,-0.3039,-0.2533,-0.2014,0.0,0.0,0.0,0.0,-4.4955,-4.3637,-4.3542,-4.3013,-4.2341,-4.4181,-4.5382,-4.6176,-4.8293,-4.9607,-5.0307,-5.0489,-5.0467,-5.0415,-5.0177,-4.942,-4.8566,-4.9775,-5.0467,-5.0266,-4.8503,-4.7297,-4.6773,-4.5558,-4.4501,-4.3819,-4.3861,-4.3676,-4.315,-4.2681,-4.2268,-4.1813,-4.1387,-4.1187,-4.1244,-4.1443,-3.9688,-3.6791,-3.5845,-3.3999,-3.1031,-3.0243,-3.0295,-3.0651,-3.0473,-3.0034,-2.9784,-3.0306,-3.0536,-3.0557,-3.0693,-3.0777,-3.0808,-3.107,-3.1005,-3.045,-2.9623,-2.8298,-2.6715,-2.5738,-2.4882,-2.4056,-2.4217,-2.4556,-2.4446,-2.4746,-2.4792,-2.4047,-2.1849,-1.9666,-1.9147,-1.6814,-1.4587,-1.4037,-1.3389,-1.3068,-1.3199,-1.2977,-1.2743,-1.2715,-1.2671,-1.2671,-1.2675,-1.2675,-1.2675,-1.2675,-1.2675,-1.2675,-1.2525,-1.1735,-1.0425,-0.9529,-0.7633,-0.6072,-0.5302,-0.4327,-0.3967,-0.3967,-0.3872,-0.3866,-0.3873,-0.388,-0.3889,-0.3899,-0.3917,-0.394,-0.3841,-0.3491,-0.3127,-0.2759,-0.2243,-0.1607,-0.0986,-0.0369,0.0,-4.6527,-4.5407,-4.5407,-4.4971,-4.447,-4.6287,-4.7467,-4.8317,-5.0337,-5.1639,-5.2127,-5.2129,-5.2115,-5.2262,-5.3688,-5.3698,-5.2731,-5.2345,-5.2132,-5.1956,-5.0075,-4.903,-4.8434,-4.6487,-4.5073,-4.4283,-4.3356,-4.2567,-4.1799,-4.1372,-4.0931,-4.0505,-4.0135,-3.9936,-3.9964,-4.0135,-3.8436,-3.5298,-3.4671,-3.2932,-2.9826,-2.919,-2.9159,-2.9542,-2.9291,-2.9179,-2.9513,-2.9919,-3.0159,-3.0327,-3.0327,-3.0327,-3.0358,-3.0609,-3.0774,-3.0442,-2.9759,-2.8686,-2.7499,-2.6651,-2.5631,-2.458,-2.4775,-2.4887,-2.4572,-2.473,-2.4823,-2.4175,-2.1077,-1.8879,-1.8009,-1.512,-1.2783,-1.2929,-1.2921,-1.2866,-1.2854,-1.2727,-1.2604,-1.2683,-1.2481,-1.2485,-1.2651,-1.2675,-1.2675,-1.2675,-1.2675,-1.2675,-1.2517,-1.175,-1.082,-0.9914,-0.8292,-0.6476,-0.6046,-0.4702,-0.3962,-0.3962,-0.3964,-0.3965,-0.3965,-0.3856,-0.3858,-0.3872,-0.3876,-0.3894,-0.3898,-0.3676,-0.3309,-0.2948,-0.2575,-0.1949,-0.1097,-0.0729,-0.0362,-4.9351,-4.9726,-4.9726,-4.9406,-4.9637,-4.9778,-5.0628,-5.1847,-5.3151,-5.4497,-5.5501,-5.4365,-5.37,-5.3867,-5.5896,-5.7239,-5.6894,-5.4801,-5.3735,-5.3514,-5.1356,-5.0166,-4.9891,-4.7645,-4.6391,-4.5674,-4.2842,-4.0789,-3.9629,-3.9374,-3.9218,-3.9204,-3.9239,-3.9133,-3.9154,-3.8727,-3.6826,-3.3808,-3.299,-3.1091,-2.8631,-2.8255,-2.8158,-2.8199,-2.8158,-2.8596,-2.9315,-2.9503,-2.9732,-3.0264,-3.0306,-3.0327,-3.0327,-3.0106,-2.9529,-2.8592,-2.8351,-2.778,-2.6583,-2.6503,-2.6186,-2.5348,-2.5271,-2.5432,-2.4532,-2.4746,-2.4815,-2.4823,-2.107,-1.8486,-1.7975,-1.4774,-1.2763,-1.2743,-1.2632,-1.2529,-1.2493,-1.2338,-1.2358,-1.2433,-1.2354,-1.2342,-1.2501,-1.2671,-1.2675,-1.2675,-1.2675,-1.2675,-1.2525,-1.2413,-1.1484,-1.0317,-0.8815,-0.7482,-0.6122,-0.4849,-0.4088,-0.3962,-0.3962,-0.3964,-0.3962,-0.3962,-0.3964,-0.3967,-0.3973,-0.3973,-0.3967,-0.3729,-0.3498,-0.3258,-0.2894,-0.229,-0.1449,-0.1082,-0.06,-5.0946,-5.0823,-5.0062,-4.9547,-4.9351,-5.0451,-5.1335,-5.1917,-5.3822,-5.4897,-5.5306,-5.5426,-5.5143,-5.4746,-5.5342,-5.5677,-5.5753,-5.5519,-5.5459,-5.53,-5.3522,-5.2441,-5.1641,-4.7957,-4.5708,-4.4725,-4.2085,-4.059,-4.0633,-3.9729,-3.9097,-3.8656,-3.8201,-3.7987,-3.7959,-3.7845,-3.6069,-3.3041,-3.2607,-3.0949,-2.8164,-2.7773,-2.7773,-2.7805,-2.7981,-2.8262,-2.8642,-2.9169,-2.9596,-2.9721,-3.0149,-3.0327,-3.0211,-2.8553,-2.75,-2.7143,-2.7143,-2.6223,-2.4388,-2.5947,-2.6133,-2.4596,-2.4701,-2.4694,-2.4587,-2.4746,-2.4808,-2.4544,-2.107,-1.7952,-1.6546,-1.4097,-1.263,-1.2425,-1.239,-1.2179,-1.1878,-1.1993,-1.2104,-1.2148,-1.2116,-1.2152,-1.2322,-1.2578,-1.2655,-1.2663,-1.2671,-1.2675,-1.2663,-1.2501,-1.2015,-1.0322,-0.9049,-0.7945,-0.7362,-0.5579,-0.409,-0.3962,-0.3962,-0.3962,-0.3962,-0.3962,-0.3962,-0.3962,-0.3962,-0.3962,-0.3962,-0.3962,-0.3729,-0.3605,-0.3244,-0.2644,-0.1801,-0.1321,-0.072,-5.3317,-5.3821,-5.2231,-5.1704,-5.2144,-5.3126,-5.3477,-5.339,-5.4785,-5.522,-5.5069,-5.5506,-5.5449,-5.5012,-5.5012,-5.5012,-5.5031,-5.5487,-5.5715,-5.5561,-5.4696,-5.4016,-5.3328,-4.9455,-4.736,-4.6778,-4.3677,-4.1889,-4.1308,-4.0287,-3.9199,-3.8221,-3.7776,-3.7461,-3.7461,-3.7461,-3.6217,-3.3536,-3.2829,-3.0761,-2.7707,-2.7114,-2.702,-2.7072,-2.7449,-2.7763,-2.8025,-2.8564,-2.9054,-2.9354,-2.9615,-2.9751,-2.9751,-2.7442,-2.618,-2.6066,-2.5381,-2.4746,-2.4525,-2.5846,-2.6458,-2.6079,-2.5704,-2.5407,-2.5062,-2.4911,-2.4541,-2.3666,-2.059,-1.7591,-1.5619,-1.3719,-1.2394,-1.2294,-1.2211,-1.2001,-1.1556,-1.1687,-1.1802,-1.1814,-1.187,-1.1961,-1.2068,-1.2219,-1.2346,-1.2429,-1.2638,-1.2671,-1.2675,-1.2675,-1.2081,-1.1032,-0.9915,-0.867,-0.7194,-0.5623,-0.4718,-0.4091,-0.3962,-0.3962,-0.3962,-0.3962,-0.3964,-0.3962,-0.3962,-0.3962,-0.3967,-0.3962,-0.3962,-0.3842,-0.3482,-0.3002,-0.2161,-0.1441,-0.072,-5.6113,-5.7121,-5.5125,-5.5144,-5.6196,-5.6299,-5.6029,-5.5635,-5.5635,-5.5427,-5.4993,-5.5012,-5.5012,-5.5012,-5.5012,-5.5012,-5.5012,-5.5012,-5.5031,-5.5031,-5.5012,-5.5012,-5.4662,-5.1751,-5.0267,-4.9709,-4.6365,-4.3423,-4.1514,-4.0867,-3.956,-3.7764,-3.7461,-3.7461,-3.7461,-3.7461,-3.6535,-3.4751,-3.3127,-3.0594,-2.7208,-2.6513,-2.6193,-2.6204,-2.6601,-2.703,-2.7512,-2.7855,-2.8293,-2.882,-2.8925,-2.8945,-2.8394,-2.6375,-2.5026,-2.4591,-2.2696,-2.2707,-2.5062,-2.5738,-2.6628,-2.8279,-2.7269,-2.6259,-2.5843,-2.4534,-2.3425,-2.1848,-1.9326,-1.686,-1.5141,-1.3373,-1.2195,-1.214,-1.2032,-1.183,-1.1517,-1.1477,-1.1505,-1.1505,-1.1538,-1.1633,-1.1688,-1.1925,-1.2072,-1.2235,-1.2382,-1.2489,-1.2622,-1.2647,-1.2481,-1.2074,-1.1127,-0.9284,-0.7174,-0.6207,-0.5273,-0.4121,-0.3983,-0.3993,-0.3998,-0.3994,-0.3982,-0.389,-0.3872,-0.3869,-0.3862,-0.3971,-0.3973,-0.3849,-0.3842,-0.3482,-0.2401,-0.1681,-0.084,-5.7243,-5.7448,-5.6402,-5.601,-5.5945,-5.5512,-5.5305,-5.5201,-5.5201,-5.5097,-5.4993,-5.5012,-5.5012,-5.5012,-5.5012,-5.5012,-5.5012,-5.5012,-5.5012,-5.5012,-5.5012,-5.5012,-5.4691,-5.1904,-5.0188,-4.9222,-4.6362,-4.3506,-4.116,-4.0674,-3.963,-3.7663,-3.7461,-3.7461,-3.7461,-3.7461,-3.6027,-3.3177,-3.1868,-3.0283,-2.8193,-2.6922,-2.6193,-2.6204,-2.6308,-2.656,-2.701,-2.7491,-2.7951,-2.8272,-2.8747,-2.8143,-2.6356,-2.3897,-2.1778,-1.9882,-1.7645,-1.7451,-1.9891,-2.2287,-2.4324,-2.5859,-2.5086,-2.4913,-2.5329,-2.1884,-1.8454,-1.6839,-1.6226,-1.5,-1.3164,-1.2213,-1.1703,-1.1695,-1.164,-1.1485,-1.1071,-1.1342,-1.1505,-1.1505,-1.1532,-1.1499,-1.1613,-1.168,-1.1894,-1.2056,-1.2227,-1.2334,-1.2358,-1.2465,-1.2465,-1.2082,-1.1131,-0.9705,-0.8162,-0.6927,-0.5613,-0.4229,-0.4094,-0.4087,-0.4088,-0.4094,-0.4096,-0.3964,-0.4091,-0.3944,-0.3913,-0.3901,-0.3882,-0.3971,-0.3962,-0.3722,-0.3242,-0.2401,-0.1441,-5.755,-5.7448,-5.6647,-5.6029,-5.5738,-5.5201,-5.5012,-5.4974,-5.4614,-5.4633,-5.4974,-5.5012,-5.5012,-5.5012,-5.5012,-5.5012,-5.5012,-5.5012,-5.5012,-5.5012,-5.5012,-5.5012,-5.4813,-5.2973,-5.1666,-5.0774,-4.9166,-4.6662,-4.3625,-4.2868,-4.1391,-3.9044,-3.7952,-3.7333,-3.7049,-3.7035,-3.568,-3.2984,-3.0876,-2.9011,-2.7541,-2.6467,-2.5973,-2.6193,-2.6193,-2.6403,-2.6853,-2.7334,-2.77,-2.7941,-2.7013,-2.5954,-2.4594,-2.1357,-1.8838,-1.7426,-1.5201,-1.4518,-1.5907,-1.8715,-2.1311,-2.3296,-2.2531,-2.2281,-2.2946,-1.9587,-1.6969,-1.5415,-1.483,-1.3868,-1.2011,-1.1699,-1.1572,-1.1401,-1.1382,-1.1267,-1.0938,-1.1044,-1.1326,-1.1465,-1.1433,-1.1449,-1.1503,-1.1523,-1.1586,-1.187,-1.1973,-1.2072,-1.2152,-1.2243,-1.2282,-1.2259,-1.1626,-1.0593,-0.9389,-0.7972,-0.6569,-0.527,-0.4515,-0.4139,-0.4139,-0.4137,-0.4136,-0.4137,-0.3986,-0.396,-0.3933,-0.3905,-0.3878,-0.3967,-0.3962,-0.3722,-0.3362,-0.2641,-0.1681,-5.7091,-5.6989,-5.5803,-5.5289,-5.5289,-5.4858,-5.4652,-5.4595,-5.3911,-5.3987,-5.4652,-5.4652,-5.4652,-5.4652,-5.4652,-5.4708,-5.4822,-5.4822,-5.4898,-5.4993,-5.5012,-5.5012,-5.4955,-5.4272,-5.3513,-5.2715,-5.2563,-5.0477,-4.6774,-4.5241,-4.3097,-4.0107,-3.8222,-3.6921,-3.6423,-3.6198,-3.4952,-3.2518,-2.9766,-2.7626,-2.6093,-2.5586,-2.5639,-2.6162,-2.613,-2.635,-2.6936,-2.724,-2.7449,-2.7575,-2.5356,-2.3812,-2.3063,-1.9359,-1.6734,-1.5867,-1.4159,-1.3157,-1.313,-1.5634,-1.8215,-2.0473,-1.9936,-1.9155,-1.8504,-1.7425,-1.6326,-1.5369,-1.4312,-1.3005,-1.1598,-1.1354,-1.1267,-1.1136,-1.1124,-1.1072,-1.0905,-1.0831,-1.0985,-1.1362,-1.129,-1.1267,-1.1429,-1.1465,-1.1528,-1.1562,-1.1625,-1.1676,-1.1933,-1.1957,-1.2001,-1.212,-1.2219,-1.1577,-0.9873,-0.8906,-0.7528,-0.605,-0.4784,-0.4155,-0.4141,-0.4139,-0.4139,-0.4139,-0.3979,-0.3943,-0.3923,-0.3884,-0.3861,-0.3845,-0.3722,-0.3602,-0.3002,-0.2387,-0.1666,-5.4615,-5.4516,-5.3542,-5.3062,-5.3062,-5.2962,-5.2962,-5.2943,-5.281,0.0,0.0,-5.2943,-5.2943,-5.2962,-5.2943,-5.3342,-5.407,-5.4089,-5.4348,-5.4993,-5.5012,-5.5012,-5.4993,-5.4841,-5.4348,-5.3633,-5.2848,-4.9944,-4.5366,-4.3797,-4.1105,-3.751,-3.6362,-3.5854,-3.5658,-3.4579,-3.2086,-2.8369,-2.7568,-2.6551,-2.5148,-2.4969,-2.5335,-2.6183,-2.5806,-2.6193,-2.7397,-2.6811,-2.68,-2.7533,-2.6815,-2.4652,-2.1255,-1.997,-1.7642,-1.3881,-1.3103,-1.284,-1.266,-1.5238,-1.669,-1.6383,-1.7572,-1.7057,-1.409,-1.3112,-1.2557,-1.225,-1.2298,-1.1888,-1.0966,-1.0727,-1.0632,-1.0604,-1.06,-1.0588,-1.0572,-1.079,-1.0863,-1.093,-1.093,-1.1084,-1.1255,-1.1282,-1.135,-1.1505,-1.1548,-1.1491,-1.1751,-1.1687,-1.1667,-1.1886,-1.2096,-1.136,-0.932,-0.8362,-0.7374,-0.5094,-0.4326,-0.4066,-0.4152,-0.4139,-0.4139,-0.4128,-0.4005,-0.397,-0.393,-0.3902,-0.3894,-0.385,-0.3482,-0.3002,-0.2875,-0.2353,-0.162,-5.436,-5.4086,-5.318,-5.2884,0.0,-5.2606,-5.2032,-5.1176,-5.1709,-5.2146,-5.2506,-5.2506,-5.2506,-5.2506,-5.2506,-5.2734,-5.3114,-5.2715,-5.2962,-5.3702,-5.3323,-5.3133,-5.3114,-5.3133,-5.1953,-4.9818,-4.9837,-4.7606,-4.3428,-4.2006,-4.0147,-3.7642,-3.6193,-3.5897,-3.648,-3.4124,-3.0505,-2.557,-2.603,-2.589,-2.5242,-2.5136,-2.5492,-2.6151,-2.5722,0.0,0.0,0.0,0.0,0.0,0.0,0.0,0.0,-1.6856,0.0,-1.2722,-1.2623,-1.2586,-1.2476,-1.3625,-1.4307,-1.3847,-1.471,-1.4359,-1.2287,-1.1634,-1.1217,-1.1195,-1.0987,-1.0774,-1.0441,-1.0294,-1.0191,-1.0191,-1.0191,-1.0191,-1.0215,-1.0421,-1.0564,-1.0784,-1.0894,-1.0901,-1.1076,-1.11,-1.1175,-1.1334,-1.137,-1.1429,-1.1572,-1.1405,-1.1346,-1.1632,-1.1878,-1.1238,-0.9438,-0.8522,-0.7302,-0.5475,-0.4464,-0.4081,-0.4054,-0.4049,-0.3927,-0.4047,-0.3901,-0.3874,-0.3841,-0.3813,-0.3785,-0.376,-0.3518,-0.3165,-0.2459,-0.1737,-0.1145,-5.3869,-5.3519,-5.2895,-5.268,-5.2563,-5.1885,-5.0779,-4.9489,-5.0266,-5.095,-5.1557,-5.1557,-5.1576,-5.1557,-5.146,-5.1633,-5.1747,-5.1102,-5.1254,-5.2013,-5.1349,-5.1064,-5.1064,-5.1216,-4.9748,-4.7068,-4.7123,-4.5534,-4.2205,-4.042,-3.9009,-3.7887,-3.5813,-3.5284,-3.6057,0.0,0.0,0.0,-2.499,-2.5084,-2.5084,-2.5084,-2.5398,-2.6026,-2.5597,0.0,-2.6187,-2.4194,-2.3007,-2.2915,-1.8937,0.0,0.0,0.0,0.0,0.0,0.0,0.0,0.0,0.0,0.0,0.0,-1.1917,-1.175,-1.1171,-1.1054,-1.0982,-1.0952,-1.0457,-1.0016,-1.0092,-0.9866,-0.9782,-0.9782,-0.9782,-0.9766,-0.9743,-0.9953,-1.0187,-1.0802,-1.0715,-1.0675,-1.0725,-1.0788,-1.0989,-1.1155,-1.1187,-1.1247,-1.1263,-1.1159,-1.0973,-1.135,-1.1468,-1.1171,-0.9839,-0.8849,-0.7794,-0.6116,-0.4778,-0.4179,-0.3931,-0.3808,-0.3808,-0.3808,-0.377,-0.374,-0.3738,-0.3699,-0.3675,-0.3666,-0.3553,-0.3201,-0.2159,-0.1362,-0.0794,-5.1233,-5.1157,-5.0608,-5.0342,-5.0323,-4.8729,-4.797,-4.7799,-4.7913,-4.8008,-4.8121,-4.8102,-4.8102,-4.8102,-4.8102,-4.852,-4.9296,-4.9201,-4.9526,-5.0228,-5.0134,-5.0115,-5.0134,-5.0931,-5.1081,-5.0545,-4.8259,-4.6079,-4.3759,-3.9909,-3.6999,-3.5091,-3.3066,-3.1892,-3.1438,-2.8179,-2.6709,-2.7106,-2.4929,-2.3782,-2.3772,-2.3772,-2.4278,-2.5471,-2.5126,-2.5492,-2.6594,-2.4157,-2.2787,-2.2723,-2.0447,-1.8209,-1.6114,-1.5423,-1.4131,0.0,-1.1524,0.0,0.0,0.0,0.0,0.0,0.0,0.0,0.0,-1.0882,-1.1443,-1.1554,-1.0826,-1.0284,-0.9982,-0.9551,-0.9251,-0.9255,-0.9255,-0.9191,-0.906,-0.9445,-0.9937,-1.0461,-1.037,-1.0326,-1.0497,-1.0651,-1.0802,-1.0957,-1.0977,-1.0981,-1.0914,-1.0863,-1.0831,-1.0906,-1.1201,-1.1023,-0.9811,-0.9227,-0.8233,-0.6008,-0.5149,-0.4914,-0.3922,-0.3683,-0.3686,-0.3685,-0.3673,-0.367,-0.3677,-0.3668,-0.366,-0.3656,-0.3306,-0.2712,-0.2432,-0.1866,-0.1426,-4.9602,-4.9329,-4.878,-4.8155,-4.7547,-4.6539,-4.6283,-4.6457,-4.6177,-4.6003,-4.6071,-4.6109,-4.609,-4.609,-4.6003,-4.6318,-4.6729,-4.6272,-4.6679,-4.7875,-4.7438,-4.7386,-4.7841,-4.7267,-4.607,-4.459,-4.24,-4.0289,-3.825,-3.6029,-3.4281,-3.2863,-3.1327,-2.9957,-2.867,-2.5376,-2.3885,-2.4499,-2.33,-2.3043,-2.3765,-2.3646,-2.4055,-2.5042,-2.3662,-2.3246,-2.3986,-2.0794,-1.8857,-1.8719,-1.6633,-1.5057,-1.3951,-1.3327,-1.265,0.0,0.0,0.0,0.0,0.0,0.0,0.0,0.0,0.0,0.0,0.0,-1.0604,-1.0185,-0.9829,-0.9605,-0.9526,-0.9223,-0.9004,-0.9004,-0.9004,-0.8949,-0.8806,-0.9139,-0.9508,-0.9834,-0.9886,-0.9929,-1.0009,-1.0167,-1.0374,-1.0651,-1.0516,-1.0493,-1.0735,-1.0451,-1.054,-1.0792,-1.0989,-1.0854,-1.0272,-0.9094,-0.7472,-0.5685,-0.4742,-0.4169,-0.3738,-0.3491,-0.3482,-0.3618,-0.3491,-0.3479,-0.3622,-0.3629,-0.3531,-0.3547,-0.3076,-0.2592,-0.2128,-0.1591,-0.1061,-4.8054,-4.7537,-4.6362,-4.566,-4.5112,-4.4615,-4.4564,-4.4903,-4.4504,-4.4317,-4.4317,-4.442,-4.4504,-4.4485,-4.4568,-4.4652,-4.4568,-4.3488,-4.3615,-4.4655,-4.3632,-4.3498,-4.4108,-4.2863,-4.111,-3.9094,-3.7232,-3.5665,-3.4218,-3.309,-3.232,-3.1724,-2.975,-2.8081,-2.6751,-2.3835,-2.2195,-2.1986,-2.2195,-2.2532,-2.2869,-2.2755,-2.301,-2.3804,-2.2017,-2.1062,-2.0943,-1.7664,-1.5698,-1.5403,-1.3405,-1.2079,-1.1862,-1.1191,0.0,0.0,0.0,0.0,0.0,0.0,0.0,0.0,0.0,-0.8207,-0.7983,0.0,-0.9386,0.0,-0.8733,-0.8867,-0.9038,-0.8977,0.0,0.0,-0.8753,-0.8701,-0.8552,-0.879,-0.9032,-0.9211,-0.9413,-0.9544,-0.954,-0.9731,-0.9746,-0.9526,-0.9211,-0.9204,-0.9772,-0.9684,-0.9816,-0.9925,-1.0407,-1.0456,-0.9174,-0.7787,-0.6363,-0.5296,-0.4288,-0.364,-0.3479,-0.3342,-0.3327,-0.3471,-0.3342,-0.3332,-0.348,-0.3486,-0.3498,-0.3395,-0.3024,-0.2455,-0.2047,-0.1439,-0.0824,-4.6219,-4.561,-4.2743,-4.2387,-4.3615,-4.255,-4.2326,-4.2811,-4.2711,-4.273,-4.273,-4.273,-4.2972,-4.3275,-4.3657,0.0,-4.3195,-4.1609,-4.0797,-4.045,-3.886,-3.8114,-3.8299,-3.8793,-3.8962,-3.8638,-3.6865,-3.5927,-3.5635,-3.3124,-3.2213,-3.2605,-2.7663,-2.5308,-2.5558,-2.4113,-2.2897,-2.1997,-2.2876,-2.2152,-1.9584,-1.9784,-2.017,-2.0719,-2.0359,-1.969,-1.8899,-1.6776,-1.5493,-1.5203,-1.3312,-1.1793,-1.0858,0.0,0.0,0.0,0.0,0.0,0.0,0.0,0.0,0.0,0.0,0.0,0.0,0.0,0.0,-0.7706,-0.8149,0.0,-0.8713,-0.8747,0.0,0.0,0.0,-0.8283,-0.8052,-0.8274,-0.8508,-0.8735,0.0,0.0,-0.9195,-0.9481,-0.8935,-0.6829,-0.6698,-0.6749,-0.7129,-0.8369,-0.8773,-0.7287,-0.9237,-0.916,-0.5398,-0.5282,-0.5495,-0.488,-0.4977,-0.4337,-0.3515,-0.3303,-0.3308,-0.3311,-0.3314,-0.331,-0.3316,-0.3303,-0.3289,-0.3185,-0.306,-0.2955,-0.2461,-0.1793,-0.1208,-4.3077,-4.1627,-4.0329,-3.9967,-4.0094,-3.931,-3.8814,-3.8586,-3.941,-3.9449,-3.9137,-4.0091,-4.0505,-4.0376,-4.0505,0.0,0.0,0.0,-3.9495,-3.8375,-3.8279,-3.768,-3.6648,-3.5848,-3.555,-3.5465,-3.3612,-3.2763,-3.2936,-3.0763,-2.9731,-2.9653,0.0,-2.4553,-2.4563,-2.1806,-2.0215,-1.9999,-1.9423,-1.8717,-1.7775,-1.7938,-1.821,-1.857,-1.743,-1.6712,-1.6531,-1.4676,-1.3424,-1.3168,-1.2152,-1.1133,0.0,0.0,0.0,0.0,0.0,0.0,0.0,0.0,0.0,0.0,0.0,-0.5864,-0.6131,0.0,0.0,0.0,-0.7723,-0.8246,-0.849,-0.8568,0.0,0.0,0.0,0.0,0.0,0.0,0.0,-0.8024,-0.8405,-0.8711,-0.8818,-0.8858,-0.8184,-0.6326,-0.6049,-0.5753,-0.504,0.0,-0.5414,-0.4613,-0.5607,-0.5735,-0.3376,-0.4749,-0.5362,-0.2777,-0.2442,-0.253,-0.3049,-0.3126,-0.3118,-0.3143,-0.3127,-0.3114,-0.3149,-0.3067,-0.2979,-0.2847,-0.2655,-0.2289,-0.1923,-0.1395,-0.0848,-3.8958,0.0,0.0,0.0,0.0,-3.6037,-3.5564,-3.5272,-3.6165,-3.6302,-3.5833,-3.701,0.0,0.0,0.0,0.0,0.0,0.0,-3.6997,-3.5938,-3.5754,-3.5043,-3.3735,-3.2281,-3.1615,-3.1547,-2.9817,-2.9326,-2.9903,-2.7319,-2.6139,-2.6444,0.0,0.0,0.0,0.0,-1.8524,-1.8354,-1.7139,-1.6269,-1.561,-1.6273,-1.6547,-1.6231,-1.4759,-1.393,-1.3809,-1.2497,-1.1626,-1.1449,-1.0915,0.0,0.0,0.0,0.0,0.0,0.0,0.0,0.0,0.0,0.0,0.0,0.0,0.0,0.0,0.0,0.0,0.0,0.0,0.0,-0.7704,-0.7949,-0.8116,0.0,0.0,0.0,0.0,0.0,0.0,0.0,0.0,0.0,-0.7105,-0.6754,-0.6036,0.0,0.0,-0.3685,-0.28,-0.1875,-0.1397,-0.2085,-0.1617,0.0,-0.0888,-0.2883,-0.3562,-0.0856,-0.0744,-0.1569,-0.3184,-0.3141,-0.3027,-0.3369,-0.3141,-0.2928,-0.2963,-0.2874,-0.2706,-0.2683,-0.2431,-0.2002,-0.1473,-0.1055,-0.0624,0.0,0.0,0.0,0.0,-3.3662,0.0,0.0,0.0,-3.3368,-3.3327,0.0,-3.3446,0.0,0.0,0.0,0.0,-3.5113,-3.3464,0.0,0.0,-3.0013,-2.8455,-2.8098,-2.7498,-2.7237,-2.7174,-2.5941,-2.6138,-2.7315,-2.2926,-2.1488,0.0,0.0,0.0,0.0,0.0,-1.8884,-1.786,-1.718,-1.5469,-1.2817,-1.4742,-1.5056,-1.325,-1.2687,-1.1971,-1.0786,-1.0605,-1.0553,-1.0533,-0.9836,0.0,0.0,0.0,0.0,0.0,0.0,0.0,0.0,0.0,0.0,0.0,0.0,0.0,0.0,0.0,0.0,0.0,0.0,0.0,0.0,-0.6996,0.0,0.0,0.0,0.0,0.0,0.0,0.0,0.0,0.0,-0.6896,-0.3827,-0.2934,-0.1948,-0.0433,0.0,0.0,0.0,0.0,0.2837,0.0092,0.2397,0.3975,0.2898,0.1767,0.0744,0.0093,0.0,0.0,-0.3875,-0.3368,-0.2991,-0.4041,-0.3372,-0.271,-0.271,-0.2782,-0.2761,-0.2712,-0.2649,-0.2332,-0.1618,-0.1452,-0.1129,0.0,0.0,0.0,0.0,0.0,0.0,0.0,0.0,0.0,-2.9908,-2.952,-2.9961,0.0,0.0,0.0,0.0,0.0,0.0,0.0,0.0,-2.9102,-2.7773,-2.4841,-2.557,-2.5409,-2.4486,-2.4356,-2.3538,0.0,0.0,0.0,0.0,0.0,0.0,0.0,0.0,-1.5969,-1.5617,-1.3565,-1.1985,-1.1031,-1.1377,-1.1503,-1.1132,-1.063,-1.0478,-1.0492,-1.0114,-0.9953,0.0,0.0,0.0,0.0,0.0,0.0,0.0,0.0,0.0,0.0,0.0,0.0,0.0,0.0,0.0,0.0,0.0,0.0,0.0,0.0,0.0,0.0,0.0,-0.6819,0.0,0.0,0.0,0.0,0.0,0.0,0.0,0.0,0.0,-0.339,-0.2495,-0.1722,-0.0326,0.0572,0.1324,0.1632,0.0,0.0,0.0,0.0,0.0,0.0,0.0,0.045,0.0789,-0.1402,-0.3417,-0.3631,-0.283,-0.2482,-0.3796,0.0,0.0,-0.3073,-0.2963,-0.2638,-0.2617,-0.2519,-0.2267,-0.1784,-0.2443,-0.2973,0.0,0.0,0.0,0.0,0.0,0.0,0.0,0.0,0.0,-2.5809,-2.5411,0.0,0.0,0.0,0.0,0.0,0.0,0.0,0.0,0.0,0.0,0.0,-2.2582,-2.3282,0.0,0.0,0.0,0.0,0.0,0.0,0.0,0.0,0.0,0.0,0.0,0.0,-1.337,-1.3124,-1.0856,-0.9607,-0.9603,-0.9186,-0.9186,-0.9603,-0.919,-0.9242,-0.9904,0.0,0.0,0.0,0.0,0.0,0.0,0.0,0.0,0.0,0.0,0.0,0.0,0.0,0.0,0.0,0.0,0.0,0.0,0.0,0.0,0.0,0.0,0.0,0.0,0.0,-0.5923,0.0,0.0,0.0,0.0,0.0,0.0,0.0,0.0,0.0,0.0,-0.1342,-0.0813,0.0698,0.165,0.2395,0.2962,0.3486,0.392,0.0,0.0,0.0,0.0,0.0,0.0,0.0,0.0,0.0,0.0,0.0,0.0,0.0,-0.2216,-0.1442,-0.3161,-0.2978,-0.2453,-0.236,0.0,0.0,0.0,0.0,0.0,0.0,0.0,0.0,0.0,0.0,0.0,0.0,0.0,0.0,0.0,-2.1151,0.0,0.0,-2.1188,0.0,0.0,0.0,0.0,0.0,0.0,0.0,0.0,0.0,0.0,0.0,0.0,0.0,0.0,0.0,0.0,0.0,0.0,0.0,0.0,0.0,0.0,-1.1442,-1.0627,-0.9166,-0.8429,-0.834,-0.827,-0.8266,-0.8328,-0.8266,-0.8352,-0.8587,0.0,0.0,0.0,0.0,0.0,0.0,0.0,0.0,0.0,0.0,0.0,0.0,0.0,0.0,0.0,0.0,0.0,0.0,0.0,0.0,0.0,0.0,0.0,0.0,0.0,0.0,-0.3474,-0.3982,-0.4778,0.0,0.0,0.0,0.0,0.0,0.0,0.0,0.0,0.0,0.2779,0.3288,0.3523,0.3605,0.372,0.3813,0.3902,0.4065,0.4029,0.3453,0.2865,0.2307,0.0,0.0,0.0,0.0,0.0,0.0,0.0,0.0,0.0,0.0,0.0,0.0,0.0,0.0,0.0,0.0,0.0,0.0,0.0,0.0,0.0,0.0,0.0,0.0,0.0,0.0,0.0,0.0,0.0,0.0,0.0,0.0,0.0,0.0,0.0,0.0,0.0,0.0,0.0,0.0,0.0,0.0,0.0,0.0,0.0,0.0,0.0,0.0,0.0,0.0,0.0,0.0,0.0,0.0,-0.9554,-0.8273,-0.6953,-0.5627,-0.4475,-0.445,-0.4448,-0.4473,-0.4473,-0.4682,0.0,0.0,0.0,0.0,0.0,0.0,0.0,0.0,0.0,0.0,0.0,0.0,0.0,0.0,0.0,0.0,0.0,0.0,0.0,0.0,0.0,0.0,0.0,0.0,0.0,0.0,0.0,0.0,-0.2657,-0.2607,-0.2727,0.0,0.0,0.0,0.0,0.0,0.0,0.0,0.0,0.0,0.0,0.3851,0.3227,0.3943,0.4474,0.4291,0.4066,0.3907,0.4068,0.3194,0.207,0.0788,0.0,0.0,0.0,0.0,0.0,0.0,0.0,0.0,0.0,0.0,0.0,0.0,0.0,0.0,0.0,0.0,0.0,0.0,0.0,0.0,0.0,0.0,0.0,0.0,0.0,0.0,0.0,0.0,0.0,0.0,0.0,0.0,0.0,0.0,0.0,0.0,0.0,0.0,0.0,0.0,0.0,0.0,0.0,0.0,0.0,0.0,0.0,0.0,0.0,0.0,0.0,0.0,0.0,-0.7484,-0.6401,-0.5026,-0.3815,-0.2834,-0.2771,-0.2696,-0.2696,-0.2811,-0.3125,0.0,0.0,0.0,0.0,0.0,0.0,0.0,0.0,0.0,0.0,0.0,0.0,0.0,0.0,0.0,0.0,0.0,0.0,0.0,0.0,0.0,0.0,0.0,0.0,0.0,0.0,0.0,0.0,-0.1723,-0.1716,-0.1199,0.0,0.0,0.0,0.0,0.0,0.0,0.0,0.0,0.0,0.0,0.3778,0.3448,0.4142,0.0,0.0,0.4085,0.3827,0.4306,0.3513,0.2502,0.1354,0.1342,0.0,0.0,0.0,0.0,0.0,0.0,0.0,0.0,0.0,0.0,0.0,0.0,0.0,0.0,0.0,0.0,0.0,0.0,0.0,0.0,0.0,0.0,0.0,0.0,0.0,0.0,0.0,0.0,0.0,0.0,0.0,0.0,0.0,0.0,0.0,0.0,0.0,0.0,0.0,0.0,0.0,0.0,0.0,0.0,0.0,0.0,0.0,0.0,0.0,0.0,0.0,0.0,-0.5257,-0.4637,-0.3379,-0.2604,-0.2523,-0.2403,-0.2342,-0.2424,-0.246,-0.2765,0.0,0.0,0.0,0.0,0.0,0.0,0.0,0.0,0.0,0.0,0.0,0.0,0.0,0.0,0.0,0.0,0.0,0.0,0.0,0.0,0.0,0.0,0.0,0.0,0.0,0.0,0.0,0.0,0.0,0.0,0.0,0.0,0.0,0.0,0.0,0.0,0.0,0.0,0.0,0.0,0.0,0.3489,0.4126,0.4316,0.4549,0.0,0.4191,0.371,0.3983,0.3597,0.3206,0.2911,0.0,0.0,0.0,0.0,0.0,0.0,0.0,0.0,0.0,0.0,0.0,0.0,0.0,0.0,0.0,0.0,0.0,0.0,0.0,0.0,0.0,0.0,0.0,0.0,0.0,0.0,0.0,0.0,0.0,0.0,0.0,0.0,0.0,0.0,0.0,0.0,0.0,0.0,0.0,0.0,0.0,0.0,0.0,0.0,0.0,0.0,0.0,0.0,0.0,0.0,0.0,0.0,0.0,0.0,-0.0885,-0.0697,0.0165,0.1647,0.1513,0.1351,0.1164,0.1464,0.0,0.0,0.0,0.0,0.0,0.0,0.0,0.0,0.0,0.0,0.0,0.0,0.0,0.0,0.0,0.0,0.0,0.0,0.0,0.0,0.0,0.0,0.0,0.0,0.0,0.0,0.0,-0.0365,0.0,0.0,0.0,0.0,0.0,0.0,0.0,0.0,0.0,0.0,0.0,0.0,0.0,0.0,0.3345,0.3824,0.3929,0.4114,0.0,0.0,0.3462,0.3603,0.322,0.2878,0.0,0.0,0.0,0.0,0.0,0.0,0.0,0.0,0.0,0.0,0.0,0.0,0.0,0.0,0.0,0.0,0.0,0.0,0.0,0.0,0.0,0.0,0.0,0.0,0.0,0.0,0.0,0.0,0.0,0.0,0.0,0.0,0.0,0.0,0.0,0.0,0.0,0.0,0.0,0.0,0.0,0.0,0.0,0.0,0.0,0.0,0.0,0.0,0.0,0.0,0.0,0.0,0.0,0.0,-0.1469,0.1469,0.2348,0.3616,0.5467,0.555,0.5334,0.4981,0.5268,0.4556,0.0,0.0,0.0,0.0,0.0,0.0,0.0,0.0,0.0,0.0,0.0,0.0,0.0,0.0,0.0,0.0,0.0,0.0,0.0,0.0,0.0,0.0,0.0,0.0,0.0,0.0,0.0,0.0,0.0,0.0,0.0,0.0,0.0,0.0,0.0,0.0,0.0,0.0,0.0,0.0,0.0,0.0,0.3511,0.3706,0.0,0.0,0.0,0.3258,0.3642,0.0,0.0,0.0,0.0,0.0,0.0,0.0,0.0,0.0,0.0,0.0,0.0,0.0,0.0,0.0,0.0,0.0,0.0,0.0,0.0,0.0,0.0,0.0,0.0,0.0,0.0,0.0,0.0,0.0,0.0,0.0,0.0,0.0,0.0,0.0,0.0,0.0,0.0,0.0,0.0,0.0,0.0,0.0,0.0,0.0,0.0,0.0,0.0,0.0,0.0,0.0,0.0,0.0,0.0,0.0,0.0,0.0,0.3124,0.5025,0.6825,0.8552,0.8894,0.8829,0.8233,0.8445,0.7249,0.0,0.0,0.0,0.0,0.0,0.0,0.0,0.0,0.0,0.0,0.0,0.0,0.0,0.0,0.0,0.0,0.0,0.0,0.0,0.0,0.0,0.0,0.0,0.0,0.0,0.0,0.0,0.0,0.0,0.0,0.0,0.0,0.0,0.0,0.0,0.0,0.0,0.0,0.0,0.0,0.0,0.3389,0.3325,0.3598,0.3672,0.0,0.0,0.3061,0.3636,0.3526,0.0,0.0,0.0,0.0,0.0,0.0,0.0,0.0,0.0,0.0,0.0,0.0,0.0,0.0,0.0,0.0,0.0,0.0,0.0,0.0,0.0,0.0,0.0,0.0,0.0,0.0,0.0,0.0,0.0,0.0,0.0,0.0,0.0,0.0,0.0,0.0,0.0,0.0,0.0,0.0,0.0,0.0,0.0,0.0,0.0,0.0,0.0,0.0,0.0,0.0,0.0,0.0,0.0,0.0,0.0,0.0,0.4945,0.5451,0.6659,0.8878,0.88,0.8588,0.8476,0.85,0.7729,0.0,0.0,0.0,0.0,0.0,0.0,0.0,0.0,0.0,0.0,0.0,0.0,0.0,0.0,0.0,0.0,0.0,0.0,0.0,0.0,0.0,0.0,0.0,0.0,0.0,0.0,0.0,0.0,0.0,0.0,0.0,0.0,0.0,0.0,0.0,0.0,0.0,0.0,0.0,0.0,0.0,0.4001,0.3401,0.3949,0.0,0.0,0.0,0.0,0.2661,0.2814,0.0,0.0,0.0,0.0,0.0,0.0,0.0,0.0,0.0,0.0,0.0,0.0,0.0,0.0,0.0,0.0,0.0,0.0,0.0,0.0,0.0,0.0,0.0,0.0,0.0,0.0,0.0,0.0,0.0,0.0,0.0,0.0,0.0,0.0,0.0,0.0,0.0,0.0,0.0,0.0,0.0,0.0,0.0,0.0,0.0,0.0,0.0,0.0,0.0,0.0,0.0,0.0,0.0,0.0,0.0,0.0,0.6765,0.7067,0.8547,1.1605,1.1716,1.1574,1.1154,1.1187,1.0092,0.0,0.0,0.0,0.0,0.0,0.0,0.0,0.0,0.0,0.0,0.0,0.0,0.0,0.0,0.0,0.0,0.0,0.0,0.0,0.0,0.0,0.0,0.0,0.0,0.0,0.0,0.0,0.0,0.0,0.0,0.0,0.0,0.0,0.0,0.0,0.0,0.0,0.0,0.0,0.0,0.3084,0.3392,0.3064,0.0,0.0,0.0,0.0,0.0,0.0,0.2502,0.2409,0.0,0.0,0.0,0.0,0.0,0.0,0.0,0.0,0.0,0.0,0.0,0.0,0.0,0.0,0.0,0.0,0.0,0.0,0.0,0.0,0.0,0.0,0.0,0.0,0.0,0.0,0.0,0.0,0.0,0.0,0.0,0.0,0.0,0.0,0.0,0.0,0.0,0.0,0.0,0.0,0.0,0.0,0.0,0.0,0.0,0.0,0.0,0.0,0.0,0.0,0.0,0.0,0.0,0.0,0.0,0.8333,0.8568,1.0572,1.4457,1.4916,1.4779,1.4115,1.4005,1.2611,0.9844,0.0,0.0,0.0,0.0,0.0,0.0,0.0,0.0,0.0,0.0,0.0,0.0,0.0,0.0,0.0,0.0,0.0,0.0,0.0,0.0,0.0,0.0,0.0,0.0,0.0,0.0,0.0,0.0,0.0,0.0,0.0,0.0,0.0,0.0,0.0,0.0,0.0,0.0,0.0,0.2675,0.2846,0.0,0.0,0.0,0.0,0.0,0.0,0.0,0.0,0.2513,0.0,0.0,0.0,0.0,0.0,0.0,0.0,0.0,0.0,0.0,0.0,0.0,0.0,0.0,0.0,0.0,0.0,0.0,0.0,0.0,0.0,0.0,0.0,0.0,0.0,0.0,0.0,0.0,0.0,0.0,0.0,0.0,0.0,0.0,0.0,0.0,0.0,0.0,0.0,0.0,0.0,0.0,0.0,0.0,0.0,0.0,0.0,0.0,0.0,0.0,0.0,0.0,0.0,0.0,0.0,0.0,0.8197,1.0286,1.4351,1.4595,1.4603,1.4465,1.4151,1.2998,1.089,0.0,0.0,0.0,0.0,0.0,0.0,0.0,0.0,0.0,0.0,0.0,0.0,0.0,0.0,0.0,0.0,0.0,0.0,0.0,0.0,0.0,0.0,0.0,0.0,0.0,0.0,0.0,0.0,0.0,0.0,0.0,0.0,0.0,0.0,0.0,0.0,0.0,0.0,0.1419,0.3186,0.0,0.0,0.0,0.0,0.0,0.0,0.0,0.0,0.3198,0.0,0.0,0.0,0.0,0.0,0.0,0.0,0.0,0.0,0.0,0.0,0.0,0.0,0.0,0.0,0.0,0.0,0.0,0.0,0.0,0.0,0.0,0.0,0.0,0.0,0.0,0.0,0.0,0.0,0.0,0.0,0.0,0.0,0.0,0.0,0.0,0.0,0.0,0.0,0.0,0.0,0.0,0.0,0.0,0.0,0.0,0.0,0.0,0.0,0.0,0.0,0.0,0.0,0.0,0.0,0.0,0.0,0.0,0.9576,1.3127,1.325,1.3562,1.4198,1.3625,1.26,0.0,0.0,0.0,0.0,0.0,0.0,0.0,0.0,0.0,0.0,0.0,0.0,0.0,0.0,0.0,0.0,0.0,0.0,0.0,0.0,0.0,0.0,0.0,0.0,0.0,0.0,0.0,0.0,0.0,0.0,0.0,0.0,0.0,0.0,0.0,0.0,0.0,0.0,0.0,0.0,0.0,0.0,0.0,0.0,0.0,0.0,0.0,0.0,0.0,0.0,0.0,0.0,0.0,0.0,0.0,0.0,0.0,0.0,0.0,0.0,0.0,0.0,0.0,0.0,0.0,0.0,0.0,0.0,0.0,0.0,0.0,0.0,0.0,0.0,0.0,0.0,0.0,0.0,0.0,0.0,0.0,0.0,0.0,0.0,0.0,0.0,0.0,0.0,0.0,0.0,0.0,0.0,0.0,0.0,0.0,0.0,0.0,0.0,0.0,0.0,0.0,0.0,0.0,0.0,0.0,0.0,0.0,0.0,0.9179,1.2313,1.2408,1.2943,1.3868,1.3119,1.208,0.0,0.0,0.0,0.0,0.0,0.0,0.0,0.0,0.0,0.0,0.0,0.0,0.0,0.0,0.0,0.0,0.0,0.0,0.0,0.0,0.0,0.0,0.0,0.0,0.0,0.0,0.0,0.0,0.0,0.0,0.0,0.0,0.0,0.0,0.0,0.0,0.0,0.0,0.0,0.0,0.0,0.0,0.0,0.0,0.0,0.0,0.0,0.0,0.3055,0.0,0.0,0.0,0.0,0.0,0.0,0.0,0.0,0.0,0.0,0.0,0.0,0.0,0.0,0.0,0.0,0.0,0.0,0.0,0.0,0.0,0.0,0.0,0.0,0.0,0.0,0.0,0.0,0.0,0.0,0.0,0.0,0.0,0.0,0.0,0.0,0.0,0.0,0.0,0.0,0.0,0.0,0.0,0.0,0.0,0.0,0.0,0.0,0.0,0.0,0.0,0.0,0.0,0.0,0.0,0.0,0.0,0.0,0.0,0.9679,1.3329,1.3702,1.3717,1.3646,1.2995,1.1868,0.0,0.0,0.0,0.0,0.0,0.0,0.0,0.0,0.0,0.0,0.0,0.0,0.0,0.0,0.0,0.0,0.0,0.0,0.0,0.0,0.0,0.0,0.0,0.0,0.0,0.0,0.0,0.0,0.0,0.0,0.0,0.0,0.0,0.0,0.0,0.0,0.0,0.0,0.0,0.0,0.0,0.0,0.0,0.0,0.0,0.0,0.0,0.0,0.0,0.0,0.0,0.0,0.0,0.0,0.0,0.0,0.0,0.0,0.0,0.0,0.0,0.0,0.0,0.0,0.0,0.0,0.0,0.0,0.0,0.0,0.0,0.0,0.0,0.0,0.0,0.0,0.0,0.0,0.0,0.0,0.0,0.0,0.0,0.0,0.0,0.0,0.0,0.0,0.0,0.0,0.0,0.0,0.0,0.0,0.0,0.0,0.0,0.0,0.0,0.0,0.0,0.0,0.0,0.0,0.0,0.0,0.0,0.0,0.8609,1.1158,1.1968,1.2333,1.237,1.1778,1.0999,0.0,0.0,0.0,0.0,0.0,0.0,0.0,0.0,0.0,0.0,0.0,0.0,0.0,0.0,0.0,0.0,0.0,0.0,0.0,0.0,0.0,0.0,0.0,0.0,0.0,0.0,0.0,0.0,0.0,0.0,0.0,0.0,0.0,0.0,0.0,0.0,0.0,0.0,0.0,0.0,0.0,0.0,0.0,0.0,0.0,0.0,0.0,0.0,0.0,0.0,0.0,0.0,0.0,0.0,0.0,0.0,0.0,0.0,0.0,0.0,0.0,0.0,0.0,0.0,0.0,0.0,0.0,0.0,0.0,0.0,0.0,0.0,0.0,0.0,0.0,0.0,0.0,0.0,0.0,0.0,0.0,0.0,0.0,0.0,0.0,0.0,0.0,0.0,0.0,0.0,0.0,0.0,0.0,0.0,0.0,0.0,0.0,0.0,0.0,0.0,0.0,0.0,0.0,0.0,0.0,0.0,0.0,0.0,0.0,0.9268,1.0514,1.1237,1.1361,1.0637,1.0098,0.0,0.0,0.0,0.0,0.0,0.0,0.0,0.0,0.0,0.0,0.0,0.0,0.0,0.0,0.0,0.0,0.0,0.0,0.0,0.0,0.0,0.0,0.0,0.0,0.0,0.0,0.0,0.0,0.0,0.0,0.0,0.0,0.0,0.0,0.0,0.0,0.0,0.0,0.0,0.0,0.0,0.0,0.0,0.0,0.0,0.0,0.0,0.0,0.0,0.0,0.0,0.0,0.0,0.0,0.0,0.0,0.0,0.0,0.0,0.0,0.0,0.0,0.0,0.0,0.0,0.0,0.0,0.0,0.0,0.0,0.0,0.0,0.0,0.0,0.0,0.0,0.0,0.0,0.0,0.0,0.0,0.0,0.0,0.0,0.0,0.0,0.0,0.0,0.0,0.0,0.0,0.0,0.0,0.0,0.0,0.0,0.0,0.0,0.0,0.0,0.0,0.0,0.0,0.0,0.0,0.0,0.0,0.0,0.0,0.876,1.0534,1.1296,1.1093,1.0251,0.9439,0.0,0.0,0.0,0.0,0.0,0.0,0.0,0.0,0.0,0.0,0.0,0.0,0.0,0.0,0.0,0.0,0.0,0.0,0.0,0.0,0.0,0.0,0.0,0.0,0.0,0.0,0.0,0.0,0.0,0.0,0.0,0.0,0.0,0.0,0.0,0.0,0.0,0.0,0.0,0.0,0.0,0.0,0.0,0.0,0.0,0.0,0.0,0.0,0.0,0.0,0.0,0.0,0.0,0.0,0.0,0.0,0.0,0.0,0.0,0.0,0.0,0.0,0.0,0.0,0.0,0.0,0.0,0.0,0.0,0.0,0.0,0.0,0.0,0.0,0.0,0.0,0.0,0.0,0.0,0.0,0.0,0.0,0.0,0.0,0.0,0.0,0.0,0.0,0.0,0.0,0.0,0.0,0.0,0.0,0.0,0.0,0.0,0.0,0.0,0.0,0.0,0.0,0.0,0.0,0.0,0.0,0.0,0.0,0.0,0.6554,0.9202,1.0478,1.0185,0.9656,0.9086,0.8512,0.0,0.0,0.0,0.0,0.0,0.0,0.0,0.0,0.0,0.0,0.0,0.0,0.0,0.0,0.0,0.0,0.0,0.0,0.0,0.0,0.0,0.0,0.0,0.0,0.0,0.0,0.0,0.0,0.0,0.0,0.0,0.0,0.0,0.0,0.0,0.0,0.0,0.0,0.0,0.0,0.0,0.0,0.0,0.0,0.0,0.0,0.0,0.0,0.0,0.0,0.0,0.0,0.0,0.0,0.0,0.0,0.0,0.0,0.0,0.0,0.0,0.0,0.0,0.0,0.0,0.0,0.0,0.0,0.0,0.0,0.0,0.0,0.0,0.0,0.0,0.0,0.0,0.0,0.0,0.0,0.0,0.0,0.0,0.0,0.0,0.0,0.0,0.0,0.0,0.0,0.0,0.0,0.0,0.0,0.0,0.0,0.0,0.0,0.0,0.0,0.0,0.0,0.0,0.0,0.0,0.0,0.0,0.0,0.4699,0.8008,0.9503,0.8869,0.874,0.8448,0.0,0.0,0.0,0.0,0.0,0.0,0.0,0.0,0.0,0.0,0.0,0.0,0.0,0.0,0.0,0.0,0.0,0.0,0.0,0.0,0.0,0.0,0.0,0.0,0.0,0.0,0.0,0.0,0.0,0.0,0.0,0.0,0.0,0.0,0.0,0.0,0.0,0.0,0.0,0.0,0.0,0.0,0.0,0.0,0.0,0.0,0.0,0.0,0.0,0.0,0.0,0.0,0.0,0.0,0.0,0.0,0.0,0.0,0.0,0.0,0.0,0.0,0.0,0.0,0.0,0.0,0.0,0.0,0.0,0.0,0.0,0.0,0.0,0.0,0.0,0.0,0.0,0.0,0.0,0.0,0.0,0.0,0.0,0.0,0.0,0.0,0.0,0.0,0.0,0.0,0.0,0.0,0.0,0.0,0.0,0.0,0.0,0.0,0.0,0.0,0.0,0.0,0.0,0.0,0.0,0.0,0.0,0.0,0.2071,0.3761,0.7298,0.8472,0.7106,0.7535,0.7555,0.0,0.0,0.0,0.0,0.0,0.0,0.0,0.0,0.0,0.0,0.0,0.0,0.0,0.0,0.0,0.0,0.0,0.0,0.0,0.0,0.0,0.0,0.0,0.0,0.0,0.0,0.0,0.0,0.0,0.0,0.0,0.0,0.0,0.0,0.0,0.0,0.0,0.0,0.0,0.0,0.0,0.0,0.0,0.0,0.0,0.0,0.0,0.0,0.0,0.0,0.0,0.0,0.0,0.0,0.0,0.0,0.0,0.0,0.0,0.0,0.0,0.0,0.0,0.0,0.0,0.0,0.0,0.0,0.0,0.0,0.0,0.0,0.0,0.0,0.0,0.0,0.0,0.0,0.0,0.0,0.0,0.0,0.0,0.0,0.0,0.0,0.0,0.0,0.0,0.0,0.0,0.0,0.0,0.0,0.0,0.0,0.0,0.0,0.0,0.0,0.0,0.0,0.0,0.0,0.0,0.0,0.0,0.0,0.0,0.3978,0.0,0.7705,0.6658,0.6755,0.6577,0.0,0.0,0.0,0.0,0.0,0.0,0.0,0.0,0.0,0.0,0.0,0.0,0.0,0.0,0.0,0.0,0.0,0.0,0.0,0.0,0.0,0.0,0.0,0.0,0.0,0.0,0.0,0.0,0.0,0.0,0.0,0.0,0.0,0.0,0.0,0.0,0.0,0.0,0.0,0.0,0.0,0.0,0.0,0.0,0.0,0.0,0.0,0.0,0.0,0.0,0.0,0.0,0.0,0.0,0.0,0.0,0.0,0.0,0.0,0.0,0.0,0.0,0.0,0.0,0.0,0.0,0.0,0.0,0.0,0.0,0.0,0.0,0.0,0.0,0.0,0.0,0.0,0.0,0.0,0.0,0.0,0.0,0.0,0.0,0.0,0.0,0.0,0.0,0.0,0.0,0.0,0.0,0.0,0.0,0.0,0.0,0.0,0.0,0.0,0.0,0.0,0.0,0.0,0.0,0.0,0.0,0.0,0.0,0.0,0.435,0.565,0.6085,0.5702,0.6148,0.6027,0.0,0.0,0.0,0.0,0.0,0.0,0.0,0.0,0.0,0.0,0.0,0.0,0.0,0.0,0.0,0.0,0.0,0.0,0.0,0.0,0.0,0.0,0.0,0.0,0.0,0.0,0.0,0.0,0.0,0.0,0.0,0.0,0.0,0.0,0.0,0.0,0.0,0.0,0.0,0.0,0.0,0.0,0.0,0.0,0.0,0.0,0.0,0.0,0.0,0.0,0.0,0.0,0.0,0.0,0.0,0.0,0.0,0.0,0.0,0.0,0.0,0.0,0.0,0.0,0.0,0.0,0.0,0.0,0.0,0.0,0.0,0.0,0.0,0.0,0.0,0.0,0.0,0.0,0.0,0.0,0.0,0.0,0.0,0.0,0.0,0.0,0.0,0.0,0.0,0.0,0.0,0.0,0.0,0.0,0.0,0.0,0.0,0.0,0.0,0.0,0.0,0.0,0.0,0.0,0.0,0.0,0.0,0.0,0.0,0.4643,0.4047,0.3874,0.438,0.5602,0.589,0.0,0.0,0.0,0.0,0.0,0.0,0.0,0.0,0.0,0.0,0.0,0.0,0.0,0.0,0.0,0.0,0.0,0.0,0.0,0.0,0.0,0.0,0.0,0.0,0.0,0.0,0.0,0.0,0.0,0.0,0.0,0.0,0.0,0.0,0.0,0.0,0.0,0.0,0.0,0.0,0.0,0.0,0.0,0.0,0.0,0.0,0.0,0.0,0.0,0.0,0.0,0.0,0.0,0.0,0.0,0.0,0.0,0.0,0.0,0.0,0.0,0.0,0.0,0.0,0.0,0.0,0.0,0.0,0.0,0.0,0.0,0.0,0.0,0.0,0.0,0.0,0.0,0.0,0.0,0.0,0.0,0.0,0.0,0.0,0.0,0.0,0.0,0.0,0.0,0.0,0.0,0.0,0.0,0.0,0.0,0.0,0.0,0.0,0.0,0.0,0.0,0.0,0.0,0.0,0.0,0.0,0.0,0.0,0.0,0.0,0.2786,0.3378,0.4992,0.5315,0.5214,0.4713,0.0,0.0,0.0,0.0,0.0,0.0,0.0,0.0,0.0,0.0,0.0,0.0,0.0,0.0,0.0,0.0,0.0,0.0,0.0,0.0,0.0,0.0,0.0,0.0,0.0,0.0,0.0,0.0,0.0,0.0,0.0,0.0,0.0,0.0,0.0,0.0,0.0,0.0,0.0,0.0,0.0,0.0,0.0,0.0,0.0,0.0,0.0,0.0,0.0,0.0,0.0,0.0,0.0,0.0,0.0,0.0,0.0,0.0,0.0,0.0,0.0,0.0,0.0,0.0,0.0,0.0,0.0,0.0,0.0,0.0,0.0,0.0,0.0,0.0,0.0,0.0,0.0,0.0,0.0,0.0,0.0,0.0,0.0,0.0,0.0,0.0,0.0,0.0,0.0,0.0,0.0,0.0,0.0,0.0,0.0,0.0,0.0,0.0,0.0,0.0,0.0,0.0,0.0,0.0,0.0,0.0,0.0,0.0,0.0,0.0,0.3711,0.4865,0.4962,0.4723,0.0,0.0,0.0,0.0,0.0,0.0,0.0,0.0,0.0,0.0,0.0,0.0,0.0,0.0,0.0,0.0,0.0,0.0,0.0,0.0,0.0,0.0,0.0,0.0,0.0,0.0,0.0,0.0,0.0,0.0,0.0,0.0,0.0,0.0,0.0,0.0,0.0,0.0,0.0,0.0,0.0,0.0,0.0,0.0,0.0,0.0,0.0,0.0,0.0,0.0,0.0,0.0,0.0,0.0,0.0,0.0,0.0,0.0,0.0,0.0,0.0,0.0,0.0,0.0,0.0,0.0,0.0,0.0,0.0,0.0,0.0,0.0,0.0,0.0,0.0,0.0,0.0,0.0,0.0,0.0,0.0,0.0,0.0,0.0,0.0,0.0,0.0,0.0,0.0,0.0,0.0,0.0,0.0,0.0,0.0,0.0,0.0,0.0,0.0,0.0,0.0,0.0,0.0,0.0,0.0,0.0,0.0,0.0,0.0,0.0,0.0,0.4223,0.4006,0.4491,0.0,0.3635,0.0,0.0,0.0,0.0,0.0,0.0,0.0,0.0,0.0,0.0,0.0,0.0,0.0,0.0,0.0,0.0,0.0,0.0,0.0,0.0,0.0,0.0,0.0,0.0,0.0,0.0,0.0,0.0,0.0,0.0,0.0,0.0,0.0,0.0,0.0,0.0,0.0,0.0,0.0,0.0,0.0,0.0,0.0,0.0,0.0,0.0,0.0,0.0,0.0,0.0,0.0,0.0,0.0,0.0,0.0,0.0,0.0,0.0,0.0,0.0,0.0,0.0,0.0,0.0,0.0,0.0,0.0,0.0,0.0,0.0,0.0,0.0,0.0,0.0,0.0,0.0,0.0,0.0,0.0,0.0,0.0,0.0,0.0,0.0,0.0,0.0,0.0,0.0,0.0,0.0,0.0,0.0,0.0,0.0,0.0,0.0,0.0,0.0,0.0,0.0,0.0,0.0,0.0,0.0,0.0,0.0,0.0,0.0,0.0,0.0,0.0,0.0,0.3924,0.4553,0.5071,0.0,0.0,0.0,0.0,0.0,0.0,0.0,0.0,0.0,0.0,0.0,0.0,0.0,0.0,0.0,0.0,0.0,0.0,0.0,0.0,0.0,0.0,0.0,0.0,0.0,0.0,0.0,0.0,0.0,0.0,0.0,0.0,0.0,0.0,0.0,0.0,0.0,0.0,0.0,0.0,0.0,0.0,0.0,0.0,0.0,0.0,0.0,0.0,0.0,0.0,0.0,0.0,0.0,0.0,0.0,0.0,0.0,0.0,0.0,0.0,0.0,0.0,0.0,0.0,0.0,0.0,0.0,0.0,0.0,0.0,0.0,0.0,0.0,0.0,0.0,0.0,0.0,0.0,0.0,0.0,0.0,0.0,0.0,0.0,0.0,0.0,0.0,0.0,0.0,0.0,0.0,0.0,0.0,0.0,0.0,0.0,0.0,0.0,0.0,0.0,0.0,0.0,0.0,0.0,0.0,0.0,0.0,0.0,0.0,0.0,0.1853,0.2166,0.3575,0.4267,0.4055,0.0,0.0,0.0,0.0,0.0,0.0,0.0,0.0,0.0,0.0,0.0,0.0,0.0,0.0,0.0,0.0,0.0,0.0,0.0,0.0,0.0,0.0,0.0,0.0,0.0,0.0,0.0,0.0,0.0,0.0,0.0,0.0,0.0,0.0,0.0,0.0,0.0,0.0,0.0,0.0,0.0,0.0,0.0,0.0,0.0,0.0,0.0,0.0,0.0,0.0,0.0,0.0,0.0,0.0,0.0,0.0,0.0,0.0,0.0,0.0,0.0,0.0,0.0,0.0,0.0,0.0,0.0,0.0,0.0,0.0,0.0,0.0,0.0,0.0,0.0,0.0,0.0,0.0,0.0,0.0,0.0,0.0,0.0,0.0,0.0,0.0,0.0,0.0,0.0,0.0,0.0,0.0,0.0,0.0,0.0,0.0,0.0,0.0,0.0,0.0,0.0,0.0,0.0,0.0,0.0,0.0,0.0,0.0,0.0,0.0,0.0,0.0,0.0,0.0,0.2482,0.0,0.0,0.0,0.0,0.0,0.0,0.0,0.0,0.0,0.0,0.0,0.0,0.0,0.0,0.0,0.0,0.0,0.0,0.0,0.0,0.0,0.0,0.0,0.0,0.0,0.0,0.0,0.0,0.0,0.0,0.0,0.0,0.0,0.0,0.0,0.0,0.0,0.0,0.0,0.0,0.0,0.0,0.0,0.0,0.0,0.0,0.0,0.0,0.0,0.0,0.0,0.0,0.0,0.0,0.0,0.0,0.0,0.0,0.0,0.0,0.0,0.0,0.0,0.0,0.0,0.0,0.0,0.0,0.0,0.0,0.0,0.0,0.0,0.0,0.0,0.0,0.0,0.0,0.0,0.0,0.0,0.0,0.0,0.0,0.0,0.0,0.0,0.0,0.0,0.0,0.0,0.0,0.0,0.0,0.0,0.0,0.0,0.0,0.0,0.0,0.0,0.0,0.0,0.0,0.0,0.0,0.0,0.0,0.0,0.0,0.0,0.0,0.0,0.0,0.0,0.0,0.0,0.0,0.0,0.0,0.0,0.0,0.0,0.0,0.0,0.0,0.0,0.0,0.0,0.0,0.0,0.0,0.0,0.0,0.0,0.0,0.0,0.0,0.0,0.0,0.0,0.0,0.0,0.0,0.0,0.0,0.0,0.0,0.0,0.0,0.0,0.0,0.0,0.0,0.0,0.0,0.0,0.0,0.0,0.0,0.0,0.0,0.0,0.0,0.0,0.0,0.0,0.0,0.0,0.0,0.0,0.0,0.0,0.0,0.0,0.0,0.0,0.0,0.0,0.0,0.0,0.0,0.0,0.0,0.0,0.0,0.0,0.0,0.0,0.0,0.0,0.0,0.0,0.0,0.0,0.0,0.0,0.0,0.0,0.0,0.0,0.0,0.0,0.0,0.0,0.0,0.0,0.0,0.0,0.0,0.0,0.0,0.0,0.0,0.0,0.0,0.0,0.0,0.0,0.0,0.0,0.0,0.0,0.0,0.0,0.0,0.0,0.0,0.0,0.0,0.0,0.0,0.0,0.0,0.0,0.0,0.0,0.0,0.0,0.0,0.0,0.0,0.0,0.0,0.0,0.0,0.0,0.0,0.0,0.0,0.0,0.0,0.0,0.0,0.0,0.0,0.0,0.0,0.0,0.0,0.0,0.0,0.0,0.0,0.0,0.0,0.0,0.0,0.0,0.0,0.0,0.0,0.0,0.0,0.0,0.0,0.0,0.0,0.0,0.0,0.0,0.0,0.0,0.0,0.0,0.0,0.0,0.0,0.0,0.0,0.0,0.0,0.0,0.0,0.0,0.0,0.0,0.0,0.0,0.0,0.0,0.0,0.0,0.0,0.0,0.0,0.0,0.0,0.0,0.0,0.0,0.0,0.0,0.0,0.0,0.0,0.0,0.0,0.0,0.0,0.0,0.0,0.0,0.0,0.0,0.0,0.0,0.0,0.0,0.0,0.0,0.0,0.0,0.0,0.0,0.0,0.0,0.0,0.0,0.0,0.0,0.0,0.0,0.0,0.0,0.0,0.0,0.0,0.0,0.0,0.0,0.0,0.0,0.0,0.0,0.0,0.0,0.0,0.0,0.0,0.0,0.0,0.0,0.0,0.0,0.0,0.0,0.0,0.0,0.0,0.0,0.0,0.0,0.0,0.0,0.0,0.0,0.0,0.0,0.0,0.0,0.0,0.0,0.0,0.0,0.0,0.0,0.0,0.0,0.0,0.0,0.0,0.0,0.0,0.0,0.0,0.0,0.0,0.0,0.0,0.0,0.0,0.0,0.0,0.0,0.0,0.0,0.0,0.0,0.0,0.0,0.0,0.0,0.0,0.0,0.0,0.0,0.0,0.0,0.0,0.0,0.0,0.0,0.0,0.0,0.0,0.0,0.0,0.0,0.0,0.0,0.0,0.0,0.0,0.0,0.0,0.0,0.0,0.0,0.0,0.0,0.0,0.0,0.0,0.0,0.0,0.0,0.0,0.0,0.0,0.0,0.0,0.0,0.0,0.0,0.0,0.0,0.0,0.0,0.0,0.0,0.0,0.0,0.0,0.0,0.0,0.0,0.0,0.0,0.0,0.0,0.0,0.0,0.0,0.0,0.0,0.0,0.0,0.0,0.0,0.0,0.0,0.0,0.0,0.0,0.0,0.0,0.0,0.0,0.0,0.0,0.0,0.0,0.0,0.0,0.0,0.0,0.0,0.0,0.0,0.0,0.0,0.0,0.0,0.0,0.0,0.0,0.0,0.0,0.0,0.0,0.0,0.0,0.0,0.0,0.0,0.0,0.0,0.0,0.0,0.0,0.0,0.0,0.0,0.0,0.0,0.0,0.0,0.0,0.0,0.0,0.0,0.0,0.0,0.0,0.0,0.0,0.0,0.0,0.0,0.0,0.0,0.0,0.0,0.0,0.0,0.0,0.0,0.0,0.0,0.0,0.0,0.0,0.0,0.0,0.0,0.0,0.0,0.0,0.0,0.0,0.0,0.0,0.0,0.0,0.0,0.0,0.0,0.0,0.0,0.0,0.0,0.0,0.0,0.0,0.0,0.0,0.0,0.0,0.0,0.0,0.0,0.0,0.0,0.0,0.0,0.0,0.0,0.0,0.0,0.0,0.0,0.0,0.0,0.0,0.0,0.0,0.0,0.0,0.0,0.0,0.0,0.0,0.0,0.0,0.0,0.0,0.0,0.0,0.0,0.0,0.0,0.0,0.0,0.0,0.0,0.0,0.0,0.0,0.0,0.0,0.0,0.0,0.0,0.0,0.0,0.0,0.0,0.0,0.0,0.0,0.0,0.0,0.0,0.0,0.0,0.0,0.0,0.0,0.0,0.0,0.0,0.0,0.0,0.0,0.0,0.0,0.0,0.0,0.0,0.0,0.0,0.0,0.0,0.0,0.0,0.0,0.0,0.0,0.0,0.0,0.0,0.0,0.0,0.0,0.0,0.0,0.0,0.0,0.0,0.0,0.0,0.0,0.0,0.0,0.0,0.0,0.0,0.0,0.0,0.0,0.0,0.0,0.0,0.0,0.0,0.0,0.0,0.0,0.0,0.0,0.0,0.0,0.0,0.0,0.0,0.0,0.0,0.0,0.0,0.0,0.0,0.0,0.0,0.0,0.0,0.0,0.0,0.0,0.0,0.0,0.0,0.0,0.0,0.0,0.0,0.0,0.0,0.0,0.0,0.0,0.0,0.0,0.0,0.0,0.0,0.0,0.0,0.0,0.0,0.0,0.0,0.0,0.0,0.0,0.0,0.0,0.0,0.0,0.0,0.0,0.0,0.0,0.0,0.0,0.0,0.0,0.0,0.0,0.0,0.0,0.0,0.0,0.0,0.0,0.0,0.0,0.0,0.0,0.0,0.0,0.0,0.0,0.0,0.0,0.0,0.0,0.0,0.0,0.0,0.0,0.0,0.0,0.0,0.0,0.0,0.0,0.0,0.0,0.0,0.0,0.0,0.0,0.0,0.0,0.0,0.0,0.0,0.0,0.0,0.0,0.0,0.0,0.0,0.0,0.0,0.0,0.0,0.0,0.0,0.0,0.0,0.0,0.0,0.0,0.0,0.0,0.0,0.0,0.0,0.0,0.0,0.0,0.0,0.0,0.0,0.0,0.0,0.0,0.0,0.0,0.0,0.0,0.0,0.0,0.0,0.0,0.0,0.0,0.0,0.0,0.0,0.0,0.0,0.0,0.0,0.0,0.0,0.0,0.0,0.0,0.0,0.0,0.0,0.0,0.0,0.0,0.0,0.0,0.0,0.0,0.0,0.0,0.0,0.0,0.0,0.0,0.0,0.0,0.0,0.0,0.0,0.0,0.0,0.0,0.0,0.0,0.0,0.0,0.0,0.0,0.0,0.0,0.0,0.0,0.0,0.0,0.0,0.0,0.0,0.0,0.0,0.0,0.0,0.0,0.0,0.0,0.0,0.0,0.0,0.0,0.0,0.0,0.0,0.0,0.0,0.0,0.0,0.0,0.0,0.0,0.0,0.0,0.0,0.0,0.0,0.0,0.0,0.0,0.0,0.0,0.0,0.0,0.0,0.0,0.0,0.0,0.0,0.0,0.0,0.0,0.0,0.0,0.0,0.0,0.0,0.0,0.0,0.0,0.0,0.0,0.0,0.0,0.0,0.0,0.0,0.0,0.0,0.0,0.0,0.0,0.0,0.0,0.0,0.0,0.0,0.0,0.0,0.0,0.0,0.0,0.0,0.0,0.0,0.0,0.0,0.0,0.0,0.0,0.0,0.0,0.0,0.0,0.0,0.0,0.0,0.0,0.0,0.0,0.0,0.0,0.0,0.0,0.0,0.0,0.0,0.0,0.0,0.0,0.0,0.0,0.0,0.0,0.0,0.0,0.0,0.0,0.0]}]]]